Date StartTime U_cm/s V_cm/s W_cm/s Ustd_cm/s Vstd_cm/s Wstd_cm/s Uvar_(cm/s)^2 Vvar_(cm/s)^2 Wvar_(cm/s)^2 KE_(m/s)^2 TurbulentKE_(m/s)^2 HorizWindSpeed_cm/s FrictionSpeec_cm/s DragCoef SpeedOfSound_m/s SonicTemperature_C Pressure_mb 
07/07/2013  00:00:00      -87.703      -31.908      -12.674       22.434       27.670       14.222      503.283      765.631      202.272        0.517        0.074       93.326        9.400        0.010      345.533       23.131      857.668
07/07/2013  00:01:00      -76.311      -37.816       -0.514       16.784       27.127       11.363      281.713      735.879      129.123        0.420        0.057       85.167        4.280        0.003      345.582       23.213      857.643
07/07/2013  00:02:00      -85.856       17.546      -10.166       16.740       16.870        9.727      280.229      284.609       94.617        0.422        0.033       87.630        8.745        0.010      345.545       23.152      857.645
07/07/2013  00:03:00      -43.779      -11.141       -1.942       39.407       26.006       11.023     1552.876      676.322      121.506        0.220        0.118       45.174       15.927        0.124      345.628       23.296      857.648
07/07/2013  00:04:00       15.447       40.200        4.415       32.375       24.596       23.103     1048.151      604.957      533.729        0.203        0.109       43.066       25.100        0.340      345.442       22.975      857.619
07/07/2013  00:05:00      -94.795       37.278      -13.397       38.481       27.511       16.591     1480.782      756.840      275.248        0.653        0.126      101.861        9.666        0.009      345.393       22.891      857.606
07/07/2013  00:06:00     -100.771       22.075      -15.328       36.328       25.946       15.889     1319.708      673.213      252.453        0.656        0.112      103.160        6.611        0.004      345.440       22.971      857.619
07/07/2013  00:07:00      -20.283      -16.866       -5.416       17.940       17.566        8.029      321.827      308.559       64.471        0.071        0.035       26.379        5.384        0.042      345.511       23.093      857.651
07/07/2013  00:08:00       -6.329      -40.542       13.438       33.217       23.959       27.335     1103.351      574.015      747.203        0.214        0.121       41.033       17.009        0.172      345.287       22.709      857.699
07/07/2013  00:09:00      -87.022     -108.737        5.270       60.451       61.854       32.616     3654.371     3825.908     1063.773        1.398        0.427      139.272       32.169        0.053      345.176       22.518      857.745
07/07/2013  00:10:00      -41.209     -109.160       -4.310       61.561       57.322       20.971     3789.817     3285.783      439.769        1.057        0.376      116.679       25.447        0.048      345.342       22.801      857.744
07/07/2013  00:11:00      -70.564      -86.772       -0.824       55.793       40.871       26.009     3112.899     1670.405      676.491        0.898        0.273      111.842       27.397        0.060      345.307       22.744      857.714
07/07/2013  00:12:00      -85.479      -46.999       -2.545       34.105       33.916       17.406     1163.148     1150.281      302.961        0.607        0.131       97.548       20.465        0.044      345.379       22.869      857.659
07/07/2013  00:13:00     -125.547       29.247       -7.846       29.713       44.647       15.548      882.881     1993.329      241.737        0.990        0.156      128.909       13.189        0.010      345.397       22.900      857.607
07/07/2013  00:14:00     -108.967       62.719       -4.059       40.433       33.582       24.693     1634.804     1127.726      609.747        0.960        0.169      125.728       16.601        0.017      344.965       22.158      857.583
07/07/2013  00:15:00     -129.171       49.877       -6.637       27.361       23.004       18.347      748.609      529.196      336.606        1.042        0.081      138.466       13.028        0.009      344.959       22.149      857.564
07/07/2013  00:16:00     -137.134        4.465      -12.908       40.235       39.779       22.882     1618.895     1582.346      523.595        1.136        0.186      137.206       23.909        0.030      345.040       22.287      857.541
07/07/2013  00:17:00     -101.730      -99.874        0.711       85.169       55.986       39.704     7253.749     3134.378     1576.385        1.614        0.598      142.561       52.042        0.133      344.995       22.208      857.538
07/07/2013  00:18:00     -139.452      -80.282       -3.172       73.633       85.424       35.983     5421.778     7297.290     1294.787        1.996        0.701      160.910       26.458        0.027      345.097       22.384      857.508
07/07/2013  00:19:00      -77.607      -23.639       10.986       66.039       40.509       27.630     4361.187     1641.017      763.410        0.673        0.338       81.127       30.249        0.139      344.922       22.084      857.475
07/07/2013  00:20:00      -80.465      -49.731       -3.599       50.281       40.593       24.363     2528.156     1647.827      593.546        0.686        0.238       94.593       28.146        0.089      344.913       22.071      857.470
07/07/2013  00:21:00     -131.578      -63.438        3.179       44.216       40.790       26.881     1955.059     1663.838      722.596        1.284        0.217      146.073       20.245        0.019      344.782       21.845      857.503
07/07/2013  00:22:00     -146.921      -72.300        1.192       79.523       57.943       29.870     6323.932     3357.368      892.200        1.869        0.529      163.747       37.168        0.052      344.802       21.877      857.555
07/07/2013  00:23:00     -127.184     -117.667        8.513       84.383       60.620       44.296     7120.493     3674.825     1962.150        2.142        0.638      173.266       45.327        0.068      344.983       22.187      857.604
07/07/2013  00:24:00     -106.356      -89.523       -1.525       53.273       41.175       30.048     2838.023     1695.369      902.888        1.238        0.272      139.018       29.147        0.044      345.055       22.314      857.614
07/07/2013  00:25:00      -64.058      -83.404        2.614       27.447       45.835       15.246      753.345     2100.803      232.433        0.708        0.154      105.165       17.968        0.029      345.113       22.412      857.597
07/07/2013  00:26:00      -63.184      -41.491        1.175       31.523       37.681       14.933      993.679     1419.869      222.998        0.418        0.132       75.590       19.816        0.069      345.102       22.392      857.573
07/07/2013  00:27:00      -73.914      -20.761       -1.890       24.948       19.165       13.955      622.421      367.312      194.752        0.354        0.059       76.775       13.907        0.033      345.046       22.296      857.548
07/07/2013  00:28:00       -9.175       10.380        9.842       18.843       18.261       14.513      355.064      333.481      210.639        0.059        0.045       13.854       12.741        0.846      344.836       21.939      857.493
07/07/2013  00:29:00       15.585       25.181       -8.233       22.750       21.666       15.111      517.547      469.399      228.343        0.108        0.061       29.614        9.327        0.099      344.893       22.034      857.457
07/07/2013  00:30:00       19.818      -57.550       -6.338       19.227       44.903       11.879      369.661     2016.297      141.117        0.314        0.126       60.867       11.295        0.034      344.876       22.006      857.490
07/07/2013  00:31:00      -29.910      -68.670       -5.974       68.730       36.744       24.996     4723.752     1350.138      624.808        0.617        0.335       74.901       27.339        0.133      345.055       22.313      857.530
07/07/2013  00:32:00     -139.761      -85.031       -2.271       60.876       45.616       27.546     3705.908     2080.775      758.763        1.666        0.327      163.595       28.779        0.031      344.911       22.066      857.576
07/07/2013  00:33:00     -156.105      -65.710       -8.090       61.752       52.318       26.763     3813.270     2737.125      716.234        1.801        0.363      169.371       29.427        0.030      344.970       22.166      857.552
07/07/2013  00:34:00     -237.792      -40.050       -7.757      112.326       70.590       43.481    12617.236     4982.918     1890.575        3.885        0.975      241.142       53.462        0.049      345.062       22.322      857.497
07/07/2013  00:35:00     -306.217      -60.019      -28.398       99.567       82.328       51.128     9913.669     6777.831     2614.086        5.874        0.965      312.044       42.592        0.019      345.271       22.678      857.478
07/07/2013  00:36:00     -321.666      -65.013       -9.387      123.521      105.788       64.452    15257.366    11191.001     4154.075        6.919        1.530      328.170       60.888        0.034      345.343       22.802      857.455
07/07/2013  00:37:00     -311.006      -53.838       -7.589      125.070       95.802       58.324    15642.496     9178.035     3401.653        6.395        1.411      315.631       56.911        0.033      345.402       22.902      857.441
07/07/2013  00:38:00     -287.789      -92.890       -0.738      104.972       69.813       52.460    11019.063     4873.895     2752.041        5.504        0.932      302.409       49.984        0.027      345.431       22.951      857.441
07/07/2013  00:39:00     -307.374      -96.921       -4.994      124.127      105.712       56.472    15407.571    11175.130     3189.084        6.683        1.489      322.292       63.101        0.038      345.525       23.113      857.462
07/07/2013  00:40:00     -290.345     -118.216      -10.323       92.786       88.402       49.918     8609.260     7814.987     2491.779        5.865        0.946      313.489       43.415        0.019      345.413       22.921      857.492
07/07/2013  00:41:00     -229.137      -58.746      -22.035      138.399       68.748       43.595    19154.290     4726.276     1900.550        4.111        1.289      236.548       54.051        0.052      345.415       22.926      857.491
07/07/2013  00:42:00     -355.065      -58.796      -23.692      138.039      106.764       56.011    19054.728    11398.600     3137.194        8.183        1.680      359.900       63.217        0.031      345.657       23.341      857.449
07/07/2013  00:43:00     -411.145      -64.841      -43.070      114.209       91.880       64.066    13043.630     8441.978     4104.438       10.034        1.280      416.226       65.364        0.025      345.628       23.291      857.422
07/07/2013  00:44:00     -423.029      -98.583      -21.456      153.420      127.889       71.761    23537.703    16355.618     5149.629       11.708        2.252      434.364       71.304        0.027      345.873       23.711      857.401
07/07/2013  00:45:00     -334.737      -39.735      -22.456      151.514      120.273       63.058    22956.514    14465.478     3976.349        7.776        2.070      337.087       61.054        0.033      345.772       23.538      857.407
07/07/2013  00:46:00     -331.598      -84.803      -17.868      124.067      123.192       63.323    15392.502    15176.202     4009.858        7.602        1.729      342.270       60.256        0.031      345.892       23.745      857.419
07/07/2013  00:47:00     -360.373      -84.501      -12.458      133.605      116.657       68.586    17850.355    13608.968     4704.086        8.666        1.808      370.147       73.898        0.040      345.942       23.830      857.441
07/07/2013  00:48:00     -291.704      -32.682      -15.760      103.418       91.127       52.409    10695.342     8304.191     2746.754        5.407        1.087      293.529       56.632        0.037      345.932       23.811      857.466
07/07/2013  00:49:00     -162.193      -76.404        0.415       95.896       70.958       44.275     9196.120     5035.065     1960.311        2.416        0.810      179.288       50.525        0.079      345.865       23.700      857.473
07/07/2013  00:50:00     -120.104      -70.849       -0.706       89.230       63.948       37.261     7961.995     4089.370     1388.355        1.644        0.672      139.444       39.105        0.079      345.835       23.648      857.474
07/07/2013  00:51:00      -67.857      -20.184       13.669       90.742       83.573       40.705     8234.118     6984.510     1656.926        1.103        0.844       70.795       43.087        0.370      345.788       23.568      857.479
07/07/2013  00:52:00     -182.022       21.719      -16.816      121.133       55.302       38.914    14673.172     3058.315     1514.264        2.656        0.962      183.314       46.418        0.064      345.938       23.827      857.478
07/07/2013  00:53:00      -37.790       29.304       11.951       68.335       52.151       35.438     4669.663     2719.770     1255.863        0.554        0.432       47.821       33.869        0.502      345.867       23.706      857.495
07/07/2013  00:54:00       25.954       41.701        1.237       42.476       62.142       25.995     1804.246     3861.578      675.726        0.438        0.317       49.118       25.463        0.269      345.791       23.575      857.535
07/07/2013  00:55:00      145.821       77.807       43.194       63.668       70.748       54.205     4053.609     5005.279     2938.196        2.059        0.600      165.281       42.042        0.065      345.696       23.408      857.543
07/07/2013  00:56:00       89.354       94.395       91.024      123.171       74.175       66.077    15170.982     5501.859     4366.160        2.510        1.252      129.979       66.003        0.258      345.428       22.950      857.578
07/07/2013  00:57:00      167.006       99.124       18.216      101.620       75.872       52.396    10326.616     5756.565     2745.366        2.843        0.941      194.207       32.201        0.027      345.032       22.273      857.611
07/07/2013  00:58:00       93.471       58.430       23.572       71.295       46.728       65.099     5083.026     2183.504     4237.878        1.210        0.575      110.231       50.395        0.209      344.901       22.048      857.638
07/07/2013  00:59:00      149.735      126.113       82.075      102.374       69.219       59.993    10480.440     4791.261     3599.128        3.196        0.944      195.768       51.498        0.069      344.928       22.093      857.603
07/07/2013  01:00:00      178.326      101.726       74.980      110.059       79.943       89.968    12112.944     6390.824     8094.263        3.718        1.330      205.301       72.014        0.123      344.905       22.052      857.560
07/07/2013  01:01:00      233.278      151.186      114.578      136.096       82.897       87.122    18522.198     6871.905     7590.320        6.169        1.649      277.985       82.800        0.089      344.861       21.977      857.537
07/07/2013  01:02:00       74.833      154.186      142.880       85.143       75.961       57.083     7249.312     5770.005     3258.436        3.303        0.814      171.386       47.020        0.075      344.798       21.868      857.524
07/07/2013  01:03:00       97.728      161.145      134.629      106.296       72.250       67.159    11298.842     5220.014     4510.292        3.733        1.051      188.464       54.822        0.085      344.750       21.787      857.568
07/07/2013  01:04:00      130.933      -20.803       57.750      102.257       97.895       63.580    10456.463     9583.434     4042.428        2.249        1.204      132.575       63.528        0.230      344.879       22.009      857.598
07/07/2013  01:05:00       85.505      -95.593       36.223      114.404       95.323       64.725    13088.214     9086.392     4189.282        2.206        1.318      128.254       46.413        0.131      344.916       22.073      857.599
07/07/2013  01:06:00      -22.344      -34.335       22.672       97.259       70.526       39.743     9459.242     4973.970     1579.522        0.910        0.801       40.965       35.816        0.764      344.841       21.945      857.626
07/07/2013  01:07:00      -76.829        7.702       -8.162       40.568       55.614       26.485     1645.739     3092.917      701.430        0.573        0.272       77.214       21.861        0.080      344.704       21.710      857.658
07/07/2013  01:08:00      -55.312      -13.756        8.745       84.558       42.409       27.948     7150.068     1798.546      781.066        0.653        0.486       56.997       37.993        0.444      344.696       21.698      857.673
07/07/2013  01:09:00       10.991       22.632       12.247       22.378       24.402       18.567      500.782      595.452      344.735        0.111        0.072       25.159       11.580        0.212      344.662       21.639      857.709
07/07/2013  01:10:00       30.685      111.873      -15.584       33.193       38.471       24.865     1101.747     1480.049      618.264        0.845        0.160      116.005       19.946        0.030      344.753       21.796      857.708
07/07/2013  01:11:00       41.165       26.253       13.484       23.307       26.814       21.464      543.196      719.011      460.702        0.214        0.086       48.824       12.401        0.065      344.856       21.970      857.747
07/07/2013  01:12:00       30.370       20.817       23.315       18.283       15.520       13.678      334.280      240.859      187.099        0.133        0.038       36.819       10.458        0.081      344.812       21.896      857.778
07/07/2013  01:13:00       45.371       38.362       66.331       46.466       64.356       44.574     2159.050     4141.756     1986.843        0.811        0.414       59.415       44.398        0.558      344.754       21.799      857.765
07/07/2013  01:14:00       65.348       53.751      113.802       76.791       85.445       60.228     5896.898     7300.902     3627.421        1.846        0.841       84.614       65.440        0.598      344.972       22.169      857.725
07/07/2013  01:15:00       30.920      138.390      152.795       59.062       62.927       35.295     3488.293     3959.844     1245.714        2.607        0.435      141.802       31.270        0.049      345.113       22.410      857.672
07/07/2013  01:16:00       27.591       82.324       98.063       54.572       53.438       33.956     2978.104     2855.648     1153.036        1.207        0.349       86.824       28.401        0.107      345.144       22.463      857.693
07/07/2013  01:17:00       16.665       39.236       60.056       32.501       38.882       25.149     1056.342     1511.815      632.478        0.431        0.160       42.629       21.486        0.254      345.097       22.385      857.776
07/07/2013  01:18:00       22.871       42.097       93.447       50.118       72.370       45.679     2511.770     5237.351     2086.563        1.043        0.492       47.909       52.874        1.218      345.030       22.270      857.817
07/07/2013  01:19:00       38.649       40.150       78.897       48.721       59.258       40.067     2373.757     3511.479     1605.403        0.841        0.375       55.729       31.054        0.311      345.026       22.262      857.867
07/07/2013  01:20:00       75.809       62.836       97.899       74.056       72.898       62.345     5484.264     5314.127     3886.878        1.698        0.734       98.465       55.535        0.318      345.025       22.260      857.873
07/07/2013  01:21:00      104.860       60.934       92.162      105.868       90.060       73.459    11208.115     8110.843     5396.268        2.395        1.236      121.278       79.142        0.426      345.093       22.378      857.852
07/07/2013  01:22:00      118.260      127.576      112.323       71.637       54.103       50.905     5131.850     2927.093     2591.321        2.676        0.533      173.958       39.824        0.052      345.106       22.396      857.828
07/07/2013  01:23:00      106.219      113.731       90.574       60.554       50.606       48.435     3666.812     2561.001     2345.969        2.050        0.429      155.619       28.219        0.033      345.041       22.287      857.809
07/07/2013  01:24:00       52.100       16.755       56.317       62.678       52.221       40.439     3928.475     2727.017     1635.344        0.723        0.415       54.728       37.898        0.480      345.103       22.393      857.819
07/07/2013  01:25:00        7.535      -25.226       30.641       20.440       30.381       17.046      417.803      923.025      290.561        0.163        0.082       26.327       14.877        0.319      345.050       22.304      857.856
07/07/2013  01:26:00       54.229      -75.557        6.628       43.440       37.734       24.863     1887.064     1423.886      618.161        0.631        0.196       93.003       23.273        0.063      345.121       22.426      857.896
07/07/2013  01:27:00       80.784      -81.199        8.802       57.131       58.664       38.069     3263.953     3441.468     1449.270        1.067        0.408      114.539       43.166        0.142      345.116       22.417      857.956
07/07/2013  01:28:00       44.579      -76.639      -17.838       34.031       42.849       24.588     1158.099     1836.024      604.571        0.589        0.180       88.662       22.664        0.065      345.109       22.405      858.011
07/07/2013  01:29:00       49.294      -38.004       18.293       39.406       42.004       39.743     1552.833     1764.342     1579.503        0.455        0.245       62.243       29.741        0.228      344.980       22.185      858.024
07/07/2013  01:30:00       48.659       31.564       54.475       37.756       40.093       28.072     1425.539     1607.428      788.010        0.508        0.191       58.000       22.119        0.145      344.920       22.081      857.999
07/07/2013  01:31:00       56.592       61.267       66.194       41.719       44.888       26.508     1740.488     2014.971      702.689        0.790        0.223       83.405       27.907        0.112      344.947       22.127      857.952
07/07/2013  01:32:00      110.055       61.065       13.170       29.462       31.155       31.178      868.009      970.642      972.049        0.941        0.141      125.862       18.001        0.020      344.902       22.050      857.923
07/07/2013  01:33:00      128.455       61.346        9.793       37.380       35.842       31.250     1397.288     1284.649      976.546        1.201        0.183      142.352       24.701        0.030      344.816       21.904      857.905
07/07/2013  01:34:00       91.697       65.064       14.464       37.382       37.556       26.383     1397.405     1410.455      696.067        0.818        0.175      112.435       16.404        0.021      344.674       21.660      857.917
07/07/2013  01:35:00      100.383       48.139        2.346       36.174       30.414       18.619     1308.553      925.029      346.653        0.749        0.129      111.329        8.754        0.006      344.624       21.576      857.972
07/07/2013  01:36:00       80.042       38.426        7.088       41.941       40.211       22.420     1759.071     1616.942      502.662        0.591        0.194       88.787       21.890        0.061      344.590       21.516      858.046
07/07/2013  01:37:00       14.847       21.798       33.704       22.324       33.147       31.516      498.351     1098.724      993.286        0.221        0.130       26.374       26.038        0.975      344.604       21.541      858.114
07/07/2013  01:38:00       17.920       39.807       69.132       26.150       37.788       18.752      683.826     1427.969      351.630        0.457        0.123       43.654       19.971        0.209      344.609       21.550      858.156
07/07/2013  01:39:00       -0.253       80.725      102.191       33.570       52.039       31.728     1126.917     2708.008     1006.659        1.090        0.242       80.725       35.623        0.195      344.675       21.662      858.175
07/07/2013  01:40:00       15.650       67.888       82.299       39.796       37.922       30.472     1583.750     1438.116      928.567        0.779        0.198       69.668       24.521        0.124      344.626       21.578      858.170
07/07/2013  01:41:00       33.488       25.989       71.828       59.531       92.505       57.498     3543.903     8557.234     3306.029        1.118        0.770       42.389       71.815        2.870      344.669       21.651      858.141
07/07/2013  01:42:00       14.837       73.967      107.763       41.302       48.650       26.523     1705.831     2366.870      703.451        1.104        0.239       75.440       25.384        0.113      344.712       21.724      858.109
07/07/2013  01:43:00       50.842      -15.170       52.013       47.583      103.918       44.610     2264.125    10798.995     1990.016        1.028        0.753       53.057       59.413        1.254      344.668       21.649      858.128
07/07/2013  01:44:00      151.261     -215.591      -31.665       54.100       61.747       33.857     2926.762     3812.711     1146.268        3.912        0.394      263.361       14.515        0.003      344.726       21.745      858.167
07/07/2013  01:45:00      107.391     -156.899      -14.012       74.157       70.023       43.747     5499.312     4903.156     1913.781        2.433        0.616      190.131       37.311        0.039      344.698       21.699      858.225
07/07/2013  01:46:00       16.738      -50.987       29.462       43.294       49.632       40.173     1874.401     2463.343     1613.908        0.485        0.298       53.664       35.665        0.442      344.603       21.540      858.248
07/07/2013  01:47:00       28.938      -16.368       15.788       21.896       43.846       23.451      479.449     1922.440      549.971        0.215        0.148       33.246       22.999        0.479      344.521       21.399      858.252
07/07/2013  01:48:00       28.767        6.885       42.684       38.742       41.239       25.555     1500.931     1700.635      653.069        0.327        0.193       29.580       26.807        0.821      344.528       21.409      858.236
07/07/2013  01:49:00       57.673      -37.199       24.910       33.233       42.273       37.417     1104.427     1787.010     1400.024        0.481        0.215       68.629       33.238        0.235      344.555       21.458      858.240
07/07/2013  01:50:00       38.031      -47.779        7.973       34.784       38.427       25.671     1209.914     1476.609      658.979        0.357        0.167       61.067       23.823        0.152      344.603       21.539      858.257
07/07/2013  01:51:00      -45.214      -19.420       -9.355       28.982       23.827       17.306      839.947      567.716      299.491        0.211        0.085       49.208       16.673        0.115      344.486       21.336      858.290
07/07/2013  01:52:00      -11.759      -25.040       -2.371       25.053       32.559       19.894      627.637     1060.097      395.777        0.143        0.104       27.664       19.449        0.494      344.532       21.418      858.296
07/07/2013  01:53:00        5.358      -16.675       15.585       21.373       39.871       23.790      456.805     1589.674      565.948        0.158        0.131       17.515       17.184        0.963      344.603       21.539      858.271
07/07/2013  01:54:00       11.080      -12.142       19.878       14.850       35.461       17.221      220.514     1257.499      296.576        0.122        0.089       16.438        7.085        0.186      344.517       21.392      858.244
07/07/2013  01:55:00        0.615       12.047       46.008       14.067       14.977        9.594      197.892      224.305       92.043        0.139        0.026       12.063        6.870        0.324      344.532       21.419      858.228
07/07/2013  01:56:00       16.736       12.799       46.385       18.801       19.676       15.401      353.475      387.152      237.188        0.179        0.049       21.069       15.733        0.558      344.526       21.408      858.231
07/07/2013  01:57:00        5.936       15.389       29.611       18.458       21.479       18.494      340.689      461.356      342.025        0.115        0.057       16.494       16.070        0.949      344.483       21.335      858.242
07/07/2013  01:58:00      -10.547      -22.394        6.295       19.949       21.911       14.525      397.958      480.095      210.978        0.087        0.054       24.753       16.029        0.419      344.510       21.380      858.270
07/07/2013  01:59:00       13.166      -48.921       -1.075       26.987       18.799       17.336      728.311      353.399      300.550        0.197        0.069       50.662       12.226        0.058      344.636       21.596      858.307
07/07/2013  02:00:00      -15.846      -12.566       -0.246       14.737       10.754       11.349      217.185      115.646      128.807        0.044        0.023       20.224        7.123        0.124      344.516       21.391      858.323
07/07/2013  02:01:00      -21.348       10.205       -6.475       10.984       10.949        7.504      120.658      119.872       56.307        0.045        0.015       23.662        3.144        0.018      344.392       21.176      858.320
07/07/2013  02:02:00      -39.744       17.845       -8.373        7.753       17.034        6.609       60.110      290.157       43.679        0.118        0.020       43.567        5.930        0.019      344.443       21.265      858.304
07/07/2013  02:03:00      -25.805       41.215       -7.844       14.371       16.131        6.621      206.520      260.209       43.833        0.147        0.026       48.627        4.154        0.007      344.655       21.627      858.291
07/07/2013  02:04:00      -14.351       48.504       -4.313        8.928       16.040        7.896       79.713      257.283       62.343        0.149        0.020       50.582        3.450        0.005      344.803       21.881      858.292
07/07/2013  02:05:00        1.177        7.048        3.414        9.992       20.776        7.446       99.833      431.655       55.447        0.032        0.029        7.146        8.413        1.386      344.606       21.543      858.290
07/07/2013  02:06:00       -5.697       -0.095       -2.209       11.659        8.254        6.665      135.930       68.136       44.427        0.014        0.012        5.698        3.836        0.453      344.644       21.608      858.293
07/07/2013  02:07:00      -32.305        8.038       -3.126        9.678       21.012        7.835       93.666      441.524       61.382        0.086        0.030       33.290        7.304        0.048      344.491       21.350      858.292
07/07/2013  02:08:00      -39.355       -3.361       -6.121       10.087       10.765        4.930      101.752      115.883       24.308        0.092        0.012       39.498        3.471        0.008      344.373       21.144      858.300
07/07/2013  02:09:00      -40.054      -19.708       -7.133       11.825       11.335        7.871      139.827      128.490       61.951        0.119        0.017       44.640        4.379        0.010      344.313       21.043      858.302
07/07/2013  02:10:00      -38.455       -4.270       -6.493       21.369       13.686       14.607      456.653      187.300      213.355        0.120        0.043       38.691       12.694        0.108      344.284       20.994      858.300
07/07/2013  02:11:00      -24.509       -4.044        2.673        9.845       14.589        7.687       96.923      212.852       59.090        0.050        0.018       24.840        8.896        0.128      344.235       20.910      858.301
07/07/2013  02:12:00       -3.279        6.125        7.267        9.169        4.782        4.211       84.073       22.870       17.734        0.011        0.006        6.948        3.136        0.204      344.473       21.319      858.288
07/07/2013  02:13:00       -7.037       -6.193       -2.705        6.434        5.613        3.425       41.395       31.500       11.731        0.009        0.004        9.374        3.888        0.172      344.299       21.021      858.273
07/07/2013  02:14:00      -14.574       -7.625       -3.266        6.880        4.843        4.134       47.332       23.458       17.091        0.018        0.004       16.449        2.634        0.026      344.373       21.145      858.261
07/07/2013  02:15:00      -45.138        4.741       -6.239       12.022       12.019        5.149      144.527      144.449       26.514        0.121        0.016       45.387        1.810        0.002      344.386       21.168      858.245
07/07/2013  02:16:00      -60.638       15.123       -4.122        9.764       10.980        4.375       95.329      120.570       19.145        0.208        0.012       62.496        2.976        0.002      344.393       21.179      858.226
07/07/2013  02:17:00      -69.893      -14.465      -10.143       10.578       11.105        6.604      111.889      123.320       43.615        0.274        0.014       71.374        5.659        0.006      344.104       20.685      858.243
07/07/2013  02:18:00     -116.760      -52.282      -20.959       31.079       25.726       20.263      965.882      661.825      410.573        0.942        0.102      127.931       11.512        0.008      343.744       20.072      858.272
07/07/2013  02:19:00     -179.684      -44.334       -8.611       52.764       60.301       31.495     2784.065     3636.235      991.934        2.087        0.371      185.072       27.454        0.022      343.608       19.838      858.296
07/07/2013  02:20:00     -164.843      -41.844       -9.545       62.689       59.021       31.941     3929.952     3483.455     1020.229        1.872        0.422      170.071       31.599        0.035      343.574       19.781      858.297
07/07/2013  02:21:00     -204.894       21.926      -20.910       34.740       40.693       21.524     1206.837     1655.934      463.275        2.311        0.166      206.064       12.245        0.004      343.593       19.812      858.287
07/07/2013  02:22:00     -110.915       25.078       -2.511       60.056       40.080       25.771     3606.757     1606.418      664.153        0.941        0.294      113.715       24.152        0.045      343.538       19.721      858.265
07/07/2013  02:23:00     -136.080       34.484       -4.351       58.303       48.465       30.406     3399.192     2348.819      924.532        1.320        0.334      140.382       27.969        0.040      343.653       19.916      858.247
07/07/2013  02:24:00     -140.976       26.525      -13.256       61.343       38.131       25.039     3763.009     1453.966      626.959        1.330        0.292      143.450       19.492        0.018      343.606       19.835      858.235
07/07/2013  02:25:00     -140.942       34.129      -21.128       33.346       32.648       24.483     1111.974     1065.866      599.440        1.213        0.139      145.015       16.827        0.013      343.629       19.875      858.206
07/07/2013  02:26:00      -92.396       28.268      -10.953       38.365       45.187       21.550     1471.878     2041.857      464.421        0.672        0.199       96.624       18.026        0.035      343.688       19.975      858.177
07/07/2013  02:27:00      -49.621       30.059        5.048       23.664       34.416       20.107      559.964     1184.465      404.298        0.277        0.107       58.015       11.800        0.041      343.706       20.008      858.169
07/07/2013  02:28:00      -68.861       31.145      -13.861       29.687       24.691       19.950      881.334      609.638      397.992        0.390        0.094       75.577        8.650        0.013      343.795       20.160      858.181
07/07/2013  02:29:00      -83.956      -11.671      -14.182       20.949       24.112       16.673      438.861      581.378      277.998        0.434        0.065       84.763       11.267        0.018      343.782       20.135      858.219
07/07/2013  02:30:00     -126.684      -40.313       -4.656       29.779       28.420       13.490      886.760      807.688      181.980        0.979        0.094      132.944       10.885        0.007      343.529       19.705      858.240
07/07/2013  02:31:00     -130.230      -37.185       -5.920       22.143       28.187       18.170      490.309      794.503      330.162        1.000        0.081      135.435       15.303        0.013      343.420       19.516      858.244
07/07/2013  02:32:00     -118.852      -15.776      -11.182       25.112       22.359       16.282      630.619      499.944      265.096        0.795        0.070      119.895       11.191        0.009      343.502       19.658      858.237
07/07/2013  02:33:00      -96.570       17.206      -11.232       35.488       26.520       14.447     1259.377      703.330      208.704        0.596        0.109       98.091       11.710        0.014      343.532       19.709      858.216
07/07/2013  02:34:00     -115.889       38.446       -9.643       31.871       25.299       17.670     1015.785      640.029      312.214        0.848        0.098      122.100       14.351        0.014      343.564       19.764      858.199
07/07/2013  02:35:00     -124.124       51.641      -10.268       43.127       24.523       19.883     1859.895      601.381      395.315        1.052        0.143      134.438       21.561        0.026      343.616       19.852      858.188
07/07/2013  02:36:00     -147.452       15.734      -14.161       45.795       45.180       22.823     2097.151     2041.227      520.899        1.342        0.233      148.289       10.652        0.005      343.644       19.899      858.180
07/07/2013  02:37:00     -131.687       -5.017       -6.891       45.641       36.028       24.188     2083.066     1298.027      585.055        1.069        0.198      131.782       22.455        0.029      343.601       19.830      858.192
07/07/2013  02:38:00      -68.829      -47.091      -20.175       57.751       23.742       21.263     3335.158      563.703      452.105        0.586        0.218       83.396       22.651        0.074      343.633       19.882      858.211
07/07/2013  02:39:00     -108.529      -57.469      -10.581       53.614       35.725       14.171     2874.484     1276.306      200.815        0.977        0.218      122.806       19.021        0.024      343.484       19.629      858.239
07/07/2013  02:40:00     -133.150      -52.168       -5.784       43.389       51.689       28.133     1882.616     2671.746      791.462        1.291        0.267      143.005       21.757        0.023      343.359       19.414      858.240
07/07/2013  02:41:00     -149.102       18.704      -10.424       65.844       28.216       26.226     4335.456      796.154      687.812        1.425        0.291      150.271       29.903        0.040      343.330       19.366      858.214
07/07/2013  02:42:00     -172.949       42.981      -17.242       43.947       34.169       18.879     1931.357     1167.495      356.427        1.775        0.173      178.210       19.110        0.011      343.291       19.298      858.192
07/07/2013  02:43:00     -165.159       18.913      -13.444       44.752       45.082       20.365     2002.732     2032.379      414.719        1.613        0.222      166.238       16.122        0.009      343.381       19.453      858.188
07/07/2013  02:44:00     -190.471      -26.609      -22.274       20.520       26.112       16.799      421.065      681.826      282.203        1.943        0.069      192.320        4.296        0.000      343.436       19.546      858.220
07/07/2013  02:45:00     -130.653      -71.598      -12.803       28.721       26.880       23.570      824.892      722.519      555.545        1.223        0.105      148.985       19.790        0.018      343.359       19.413      858.258
07/07/2013  02:46:00     -116.383      -31.773      -19.963       28.460       30.558       15.991      809.974      933.785      255.715        0.848        0.100      120.642       13.421        0.012      343.436       19.548      858.246
07/07/2013  02:47:00     -108.491       -0.489      -11.511       19.267       17.285       15.187      371.207      298.778      230.645        0.640        0.045      108.492       12.945        0.014      343.408       19.498      858.227
07/07/2013  02:48:00     -101.878       13.521       -9.390       40.065       22.526       15.403     1605.200      507.408      237.255        0.650        0.117      102.771       16.973        0.027      343.328       19.363      858.183
07/07/2013  02:49:00     -134.777        7.938      -12.771       35.582       34.325       18.586     1266.098     1178.199      345.433        1.059        0.139      135.010       16.766        0.015      343.309       19.329      858.163
07/07/2013  02:50:00     -111.734      -23.469        0.698       47.285       36.618       26.819     2235.885     1340.910      719.272        0.867        0.215      114.173       25.120        0.048      343.289       19.296      858.181
07/07/2013  02:51:00     -114.633      -35.614      -12.048       41.160       38.478       27.393     1694.166     1480.580      750.379        0.924        0.196      120.038       24.682        0.042      343.234       19.200      858.199
07/07/2013  02:52:00     -128.976        5.659       -6.224       39.471       42.497       27.834     1557.988     1805.996      774.737        1.042        0.207      129.100       25.726        0.040      343.183       19.115      858.221
07/07/2013  02:53:00     -135.991       21.368      -13.678       43.688       32.005       21.226     1908.630     1024.301      450.540        1.126        0.169      137.660       14.826        0.012      343.217       19.172      858.209
07/07/2013  02:54:00     -132.656       23.724       -2.468       35.292       29.522       19.877     1245.538      871.542      395.093        1.034        0.126      134.761       12.295        0.008      343.245       19.220      858.182
07/07/2013  02:55:00     -109.604        2.685      -10.437       28.829       33.047       17.734      831.127     1092.120      314.511        0.718        0.112      109.637       14.091        0.017      343.256       19.240      858.176
07/07/2013  02:56:00     -151.942       12.998      -13.789       48.790       32.371       26.379     2380.481     1047.862      695.862        1.378        0.206      152.497       23.874        0.025      343.188       19.124      858.172
07/07/2013  02:57:00     -143.500      -25.587      -14.269       41.193       31.921       22.559     1696.903     1018.944      508.907        1.234        0.161      145.763       23.585        0.026      343.086       18.951      858.184
07/07/2013  02:58:00     -128.518      -23.754       -8.248       37.891       39.843       19.914     1435.713     1587.458      396.570        1.028        0.171      130.695       17.583        0.018      343.037       18.868      858.198
07/07/2013  02:59:00     -125.261      -34.699      -12.588       28.520       21.745       15.570      813.395      472.832      242.417        0.929        0.076      129.978       16.450        0.016      342.992       18.790      858.206
07/07/2013  03:00:00     -144.601      -34.731      -16.262       28.538       31.564       22.088      814.438      996.311      487.864        1.234        0.115      148.714       14.276        0.009      342.959       18.734      858.214
07/07/2013  03:01:00     -155.067      -18.177       -5.556       55.682       47.831       30.153     3100.472     2287.795      909.197        1.535        0.315      156.128       22.512        0.021      342.912       18.654      858.213
07/07/2013  03:02:00     -169.969       14.069       -8.042       50.780       50.500       25.179     2578.612     2550.290      633.982        1.746        0.288      170.550       22.509        0.017      342.928       18.678      858.222
07/07/2013  03:03:00     -170.790       -5.456      -19.568       34.528       37.034       20.199     1192.192     1371.508      408.011        1.628        0.149      170.878       13.994        0.007      342.978       18.765      858.197
07/07/2013  03:04:00     -136.613      -15.119      -17.197       33.473       33.263       19.924     1120.412     1106.427      396.969        1.091        0.131      137.447       13.244        0.009      343.013       18.826      858.176
07/07/2013  03:05:00     -114.445      -22.198      -13.043       29.976       34.683       19.421      898.563     1202.933      377.165        0.812        0.124      116.578       12.431        0.011      343.023       18.843      858.146
07/07/2013  03:06:00      -86.262       11.888      -10.461       31.053       32.085       18.139      964.265     1029.467      329.009        0.501        0.116       87.077       15.447        0.031      342.985       18.778      858.127
07/07/2013  03:07:00      -67.980       -6.519      -15.979       28.356       22.723       14.441      804.061      516.355      208.549        0.322        0.076       68.292        6.387        0.009      343.105       18.982      858.122
07/07/2013  03:08:00      -40.921        8.610       -3.089       27.662       29.040       17.065      765.205      843.336      291.206        0.183        0.095       41.817       18.355        0.193      343.259       19.243      858.115
07/07/2013  03:09:00      -61.481        9.383       -7.236       22.805       35.173       13.243      520.072     1237.167      175.365        0.293        0.097       62.192       15.739        0.064      343.237       19.207      858.123
07/07/2013  03:10:00      -72.472      -22.708       -7.776       24.660       28.909       20.589      608.120      835.720      423.907        0.385        0.093       75.947       18.644        0.060      343.209       19.160      858.123
07/07/2013  03:11:00     -121.474      -22.015      -10.990       37.468       22.399       14.429     1403.880      501.704      208.200        0.874        0.106      123.453       10.892        0.008      342.990       18.786      858.134
07/07/2013  03:12:00     -138.937      -25.506       -5.538       34.028       26.686       20.225     1157.882      712.158      409.065        1.113        0.114      141.259       16.151        0.013      342.881       18.601      858.138
07/07/2013  03:13:00     -148.963      -27.103       -5.912       38.077       36.853       19.799     1449.862     1358.141      391.994        1.308        0.160      151.408       16.124        0.011      342.970       18.752      858.124
07/07/2013  03:14:00     -146.889        0.548       -6.682       50.247       29.457       31.030     2524.800      867.706      962.876        1.299        0.218      146.890       28.861        0.039      342.944       18.708      858.124
07/07/2013  03:15:00     -142.717       -6.577       -5.908       54.895       33.989       26.675     3013.474     1155.280      711.570        1.266        0.244      142.869       25.003        0.031      342.932       18.688      858.128
07/07/2013  03:16:00     -160.657      -17.877      -10.793       45.008       32.301       25.077     2025.739     1043.367      628.855        1.497        0.185      161.649       23.784        0.022      343.003       18.809      858.135
07/07/2013  03:17:00     -166.397      -14.435      -10.386       49.848       42.743       29.078     2484.815     1826.974      845.529        1.658        0.258      167.021       24.289        0.021      342.972       18.755      858.141
07/07/2013  03:18:00     -171.002       -7.498      -19.521       29.572       36.617       22.231      874.485     1340.815      494.197        1.619        0.135      171.167       15.158        0.008      343.012       18.824      858.136
07/07/2013  03:19:00     -175.673       52.568      -15.808       53.386       33.738       28.373     2850.102     1138.268      805.013        1.933        0.240      183.369       21.298        0.013      342.981       18.770      858.091
07/07/2013  03:20:00     -110.747       64.214       -6.400       58.385       36.818       30.728     3408.805     1355.581      944.194        1.107        0.285      128.017       26.516        0.043      343.089       18.954      858.039
07/07/2013  03:21:00      -93.941       49.464      -10.336       32.189       33.767       19.757     1036.118     1140.201      390.349        0.697        0.128      106.168       14.857        0.020      343.351       19.402      858.028
07/07/2013  03:22:00      -69.077      -23.183       -8.649       41.031       41.520       16.079     1683.550     1723.901      258.536        0.452        0.183       72.863       13.821        0.036      343.240       19.212      858.035
07/07/2013  03:23:00     -138.493      -17.751       -9.105       40.920       45.752       24.112     1674.479     2093.259      581.407        1.196        0.217      139.626       25.242        0.033      342.955       18.727      858.067
07/07/2013  03:24:00     -143.965      -43.678       -7.600       45.220       32.297       25.735     2044.884     1043.108      662.301        1.322        0.188      150.445       27.079        0.032      342.987       18.781      858.102
07/07/2013  03:25:00     -127.777      -70.360      -12.247       50.542       30.255       25.248     2554.454      915.392      637.446        1.277        0.205      145.868       22.628        0.024      343.127       19.020      858.128
07/07/2013  03:26:00     -120.386      -80.344       -0.822       69.265       58.901       31.200     4797.658     3469.368      973.455        1.509        0.462      144.734       28.521        0.039      343.139       19.040      858.152
07/07/2013  03:27:00      -86.552      -99.212        2.231       47.273       42.508       23.411     2234.783     1806.901      548.083        1.096        0.229      131.659       21.789        0.027      343.172       19.096      858.165
07/07/2013  03:28:00      -74.437      -55.684        4.646       56.956       40.344       27.620     3243.973     1627.618      762.859        0.715        0.282       92.960       33.328        0.129      343.116       19.001      858.158
07/07/2013  03:29:00      -92.873      -36.668      -10.491       29.865       28.020       14.136      891.889      785.112      199.823        0.598        0.094       99.850        7.454        0.006      343.198       19.141      858.125
07/07/2013  03:30:00      -59.571      -18.017       -8.524       21.331       18.564       13.729      454.994      344.631      188.497        0.247        0.049       62.237       10.530        0.029      343.156       19.072      858.097
07/07/2013  03:31:00     -131.495        2.486      -10.324       48.151       29.435       21.320     2318.481      866.422      454.562        1.052        0.182      131.518       19.505        0.022      343.341       19.384      858.083
07/07/2013  03:32:00     -126.987       -9.666       -8.152       43.099       37.579       21.683     1857.489     1412.167      470.164        1.001        0.187      127.354       18.875        0.022      343.386       19.459      858.075
07/07/2013  03:33:00     -171.430       17.439      -19.473       51.261       52.636       25.223     2627.666     2770.531      636.192        1.805        0.302      172.315       21.505        0.016      343.529       19.704      858.062
07/07/2013  03:34:00      -63.648       -9.385       -5.109       38.816       36.658       18.929     1506.708     1343.780      358.294        0.369        0.160       64.336       12.381        0.037      343.284       19.287      858.077
07/07/2013  03:35:00      -88.218      -41.518       -9.511       38.777       28.498       16.386     1503.667      812.109      268.497        0.609        0.129       97.499       15.398        0.025      343.188       19.125      858.094
07/07/2013  03:36:00     -101.948      -49.556       -8.476       50.273       30.542       20.442     2527.345      932.823      417.888        0.840        0.194      113.354       14.621        0.017      343.138       19.039      858.094
07/07/2013  03:37:00     -105.027      -39.275       -6.597       33.614       35.033       18.384     1129.888     1227.303      337.958        0.766        0.135      112.130       14.886        0.018      343.127       19.022      858.094
07/07/2013  03:38:00      -60.098      -21.899        7.997       33.388       37.364       21.504     1114.731     1396.062      462.417        0.356        0.149       63.963       22.296        0.121      343.138       19.039      858.091
07/07/2013  03:39:00     -103.733      -71.268       -3.840       30.515       27.784       19.462      931.178      771.935      378.775        0.897        0.104      125.855       17.525        0.019      343.102       18.978      858.082
07/07/2013  03:40:00      -89.232      -64.914       -0.553       34.108       25.379       15.971     1163.333      644.117      255.088        0.712        0.103      110.345       13.288        0.015      343.122       19.012      858.089
07/07/2013  03:41:00      -62.894      -31.685        1.550       39.102       19.161       16.129     1528.932      367.126      260.140        0.356        0.108       70.424       16.542        0.055      343.131       19.027      858.122
07/07/2013  03:42:00        5.366      -35.581        1.916       20.413       23.257       16.935      416.683      540.877      286.791        0.127        0.062       35.984        8.615        0.057      343.169       19.089      858.146
07/07/2013  03:43:00       -1.609      -45.493       11.009       20.539       37.558       27.288      421.866     1410.615      744.616        0.238        0.129       45.521       24.049        0.279      343.058       18.902      858.159
07/07/2013  03:44:00       10.337       36.535       56.132       35.606       38.088       34.001     1267.766     1450.681     1156.089        0.423        0.194       37.969       21.664        0.326      342.827       18.510      858.170
07/07/2013  03:45:00       29.360        7.115       57.985       47.940       73.541       51.700     2298.272     5408.292     2672.931        0.733        0.519       30.210       55.738        3.404      342.799       18.461      858.191
07/07/2013  03:46:00       76.255      -86.394      -24.481       29.825       34.847       12.552      889.511     1214.290      157.557        0.807        0.113      115.233        9.750        0.007      342.925       18.676      858.206
07/07/2013  03:47:00       22.600      -35.201       -3.420       24.899       21.855       17.037      619.977      477.654      290.268        0.157        0.069       41.831       16.841        0.162      343.106       18.983      858.205
07/07/2013  03:48:00       -6.115       -1.696        1.956        5.546        3.248        6.461       30.753       10.552       41.739        0.006        0.004        6.346        1.900        0.090      342.945       18.708      858.195
07/07/2013  03:49:00       -3.562        3.914        2.557        7.159        4.282        5.571       51.250       18.339       31.041        0.007        0.005        5.292        2.433        0.211      343.038       18.868      858.182
07/07/2013  03:50:00      -12.385        7.544        2.106        6.517        4.844        4.866       42.466       23.469       23.681        0.015        0.004       14.502        3.150        0.047      343.063       18.908      858.168
07/07/2013  03:51:00      -47.176       21.728       -8.916        8.773       14.669        6.065       76.966      215.171       36.790        0.155        0.016       51.940        7.039        0.018      342.890       18.616      858.141
07/07/2013  03:52:00      -33.984       -2.315       -7.904        9.793       10.508        5.262       95.896      110.425       27.691        0.073        0.012       34.062        5.805        0.029      342.891       18.616      858.138
07/07/2013  03:53:00      -12.371       -9.739        5.806       24.026        9.589        8.836      577.242       91.956       78.080        0.051        0.037       15.745       10.214        0.421      342.946       18.711      858.166
07/07/2013  03:54:00       24.008       13.559        3.706        9.361       14.488       11.676       87.633      209.888      136.332        0.060        0.022       27.572        9.041        0.108      342.921       18.672      858.182
07/07/2013  03:55:00       -9.628       16.492       -4.405       21.555       12.409        3.676      464.636      153.989       13.511        0.051        0.032       19.097        4.650        0.059      342.936       18.693      858.198
07/07/2013  03:56:00      -46.887        6.476       -5.063        6.711        7.624        6.158       45.037       58.132       37.918        0.120        0.007       47.332        3.340        0.005      342.972       18.757      858.212
07/07/2013  03:57:00      -35.932       30.354       -4.179       16.235       12.487        7.682      263.574      155.929       59.019        0.135        0.024       47.037        7.523        0.026      342.838       18.528      858.233
07/07/2013  03:58:00        3.977       37.065        3.931       14.244       21.358       11.176      202.888      456.183      124.900        0.109        0.039       37.277       12.649        0.115      342.699       18.290      858.245
07/07/2013  03:59:00       22.741       51.222      -10.131       16.699       19.922        9.637      278.842      396.888       92.878        0.201        0.038       56.044        8.930        0.025      342.413       17.805      858.241
07/07/2013  04:00:00       10.456        5.443        6.044       16.212       18.959        9.243      262.823      359.429       85.439        0.044        0.035       11.787        8.233        0.488      342.422       17.823      858.235
07/07/2013  04:01:00       16.491      -11.731        1.035       30.611       18.525        8.693      937.008      343.177       75.565        0.088        0.068       20.238        3.039        0.023      342.692       18.280      858.248
07/07/2013  04:02:00       -3.968      -75.940        2.214       16.068       18.762       18.103      258.178      352.017      327.733        0.336        0.047       76.043        9.282        0.015      342.989       18.785      858.262
07/07/2013  04:03:00      -34.041      -24.185       -0.316       28.552       28.703       15.695      815.242      823.867      246.341        0.181        0.094       41.757        8.448        0.041      342.900       18.634      858.285
07/07/2013  04:04:00        0.720        3.559       13.399        6.915       25.399       13.437       47.824      645.106      180.556        0.053        0.044        3.632       11.063        9.280      342.776       18.421      858.297
07/07/2013  04:05:00      -15.712       42.322       -2.306       16.064       12.284       10.732      258.051      150.890      115.168        0.128        0.026       45.144        9.126        0.041      342.705       18.300      858.294
07/07/2013  04:06:00      -13.893       69.399       -2.482       16.299       17.605       12.449      265.663      309.951      154.985        0.287        0.037       70.776        6.256        0.008      342.803       18.470      858.263
07/07/2013  04:07:00       17.737       57.941       -5.043       18.818       28.065       15.062      354.135      787.646      226.852        0.253        0.068       60.595       14.451        0.057      342.771       18.414      858.230
07/07/2013  04:08:00       70.602       30.160       17.259       24.945       17.664       16.146      622.255      312.025      260.695        0.369        0.060       76.774       12.851        0.028      342.843       18.536      858.220
07/07/2013  04:09:00       23.389       21.372       28.667       24.647       24.549       21.431      607.479      602.674      459.292        0.175        0.083       31.683       17.885        0.319      342.738       18.356      858.258
07/07/2013  04:10:00       19.658      -54.736        5.905       28.075       30.061       15.394      788.186      903.651      236.973        0.267        0.096       58.159       15.581        0.072      342.814       18.488      858.309
07/07/2013  04:11:00       26.215      -82.964       -6.075       19.751       23.530       21.502      390.091      553.646      462.322        0.451        0.070       87.007       17.656        0.041      342.967       18.747      858.346
07/07/2013  04:12:00        1.926        0.221        4.232       28.046       28.915       13.116      786.588      836.084      172.039        0.091        0.090        1.938       10.289       28.178      342.859       18.564      858.362
07/07/2013  04:13:00      -65.463        4.595       -3.717       33.555       25.751       13.423     1125.914      663.122      180.184        0.314        0.098       65.624       10.494        0.026      342.829       18.511      858.350
07/07/2013  04:14:00      -59.558       12.878       -1.256       19.995       20.711       10.047      399.820      428.964      100.944        0.232        0.046       60.934       11.601        0.036      342.719       18.324      858.305
07/07/2013  04:15:00      -16.311       46.674       -4.834        7.086       13.863        8.234       50.218      192.191       67.797        0.139        0.016       49.442        5.586        0.013      342.763       18.399      858.257
07/07/2013  04:16:00       19.599       41.647       -0.276       13.991       12.939        8.449      195.744      167.424       71.384        0.128        0.022       46.028        6.340        0.019      342.927       18.679      858.219
07/07/2013  04:17:00       22.258       27.252        4.063       10.068       11.310        9.820      101.367      127.906       96.429        0.079        0.016       35.186        7.799        0.049      342.724       18.332      858.228
07/07/2013  04:18:00        4.635      -13.136        0.111        8.058       20.078        8.476       64.938      403.139       71.834        0.037        0.027       13.930        4.063        0.085      342.798       18.460      858.273
07/07/2013  04:19:00      -29.842      -28.665       -1.712       36.427       24.180       15.918     1326.895      584.692      253.398        0.194        0.108       41.379       11.914        0.083      342.767       18.407      858.321
07/07/2013  04:20:00     -111.863      -36.706      -11.153       26.460       24.732       15.082      700.148      611.685      227.464        0.776        0.077      117.732       13.832        0.014      342.629       18.172      858.340
07/07/2013  04:21:00     -103.669      -28.711       -3.846       38.086       33.818       18.147     1450.535     1143.677      329.298        0.725        0.146      107.571       15.667        0.021      342.476       17.912      858.334
07/07/2013  04:22:00     -130.583      -44.863       -2.034       50.929       26.705       23.227     2593.756      713.182      539.509        1.146        0.192      138.075       28.483        0.043      342.381       17.751      858.318
07/07/2013  04:23:00     -151.973      -63.553       -1.016       73.449       49.761       33.104     5394.761     2476.169     1095.871        1.805        0.448      164.726       35.499        0.046      342.468       17.897      858.313
07/07/2013  04:24:00     -166.732      -45.798       -1.263       61.160       50.012       25.833     3740.598     2501.195      667.335        1.840        0.345      172.908       29.314        0.029      342.377       17.743      858.313
07/07/2013  04:25:00     -114.811      -25.572       -2.395       36.995       27.411       21.435     1368.659      751.345      459.465        0.821        0.129      117.624       12.636        0.012      342.342       17.684      858.302
07/07/2013  04:26:00      -48.855      -21.708        0.669       24.330       18.344       11.616      591.925      336.518      134.937        0.196        0.053       53.461        9.581        0.032      342.351       17.700      858.293
07/07/2013  04:27:00      -64.834        4.887       -5.659       24.993       15.266       11.491      624.635      233.055      132.052        0.262        0.049       65.018       10.932        0.028      342.305       17.621      858.307
07/07/2013  04:28:00      -89.594       -5.820       -6.830       17.702       18.859       10.222      313.368      355.677      104.490        0.444        0.039       89.783       11.487        0.016      342.350       17.699      858.316
07/07/2013  04:29:00      -59.864      -30.511        0.033       31.465       18.012       14.183      990.040      324.445      201.170        0.301        0.076       67.191       14.018        0.044      342.391       17.767      858.326
07/07/2013  04:30:00      -96.393      -61.747       -4.323       22.968       21.725       16.474      527.511      471.961      271.381        0.720        0.064      114.474        9.464        0.007      342.451       17.870      858.329
07/07/2013  04:31:00     -102.255      -60.163       -3.357       30.279       21.827       15.301      916.835      476.403      234.125        0.786        0.081      118.641       10.300        0.008      342.413       17.804      858.327
07/07/2013  04:32:00      -88.501      -36.894       -8.032       34.653       23.445       14.173     1200.797      549.645      200.865        0.560        0.098       95.883       15.010        0.025      342.300       17.612      858.318
07/07/2013  04:33:00      -54.156      -31.087        0.444       31.832       19.873       14.448     1013.288      394.921      208.743        0.276        0.081       62.445       16.771        0.072      342.260       17.544      858.296
07/07/2013  04:34:00      -32.222      -22.807       -2.384       41.322       19.425       14.854     1707.523      377.341      220.628        0.193        0.115       39.477       17.961        0.207      342.245       17.518      858.290
07/07/2013  04:35:00      -54.091      -51.116        3.237       69.413       48.919       30.384     4818.226     2393.079      923.193        0.684        0.407       74.422       30.092        0.163      342.240       17.511      858.318
07/07/2013  04:36:00     -106.280      -68.978        8.320      109.536       53.052       43.277    11998.086     2814.475     1872.870        1.640        0.834      126.702       50.105        0.156      342.202       17.445      858.371
07/07/2013  04:37:00      -85.855      -25.359       -0.947       78.332       42.842       28.143     6135.886     1835.414      792.022        0.839        0.438       89.522       28.230        0.099      342.015       17.129      858.417
07/07/2013  04:38:00      -95.495      -80.131       -9.422       46.641       47.923       22.592     2175.399     2296.627      510.410        1.030        0.249      124.661       18.583        0.022      342.087       17.252      858.426
07/07/2013  04:39:00      -34.529        5.399        3.605       41.912       41.045       24.835     1756.616     1684.662      616.772        0.265        0.203       34.948       25.218        0.521      342.179       17.408      858.413
07/07/2013  04:40:00      -92.771       15.470      -13.008       28.687       20.615       18.798      822.932      424.978      353.349        0.531        0.080       94.052        9.249        0.010      342.245       17.521      858.391
07/07/2013  04:41:00      -93.370        4.813       -3.217       33.297       33.263       20.246     1108.722     1106.416      409.895        0.569        0.131       93.494       13.907        0.022      342.212       17.464      858.375
07/07/2013  04:42:00      -23.939      -15.068        6.689       27.142       20.169       13.663      736.697      406.782      186.690        0.109        0.067       28.286       12.843        0.206      342.149       17.356      858.374
07/07/2013  04:43:00       -7.612      -21.667        9.535       24.012       27.088       18.120      576.591      733.780      328.332        0.113        0.082       22.965       13.430        0.342      342.246       17.521      858.366
07/07/2013  04:44:00      -48.331      -60.190        6.359       49.185       37.739       21.594     2419.125     1424.200      466.305        0.515        0.215       77.193       23.190        0.090      342.207       17.456      858.370
07/07/2013  04:45:00     -109.826      -59.085       -0.136       35.714       31.847       17.374     1275.504     1014.248      301.857        0.907        0.130      124.710       11.973        0.009      342.265       17.554      858.386
07/07/2013  04:46:00     -113.020     -103.644       -2.810       75.217       78.599       33.938     5657.656     6177.800     1151.786        1.825        0.649      153.348       39.149        0.065      342.261       17.545      858.411
07/07/2013  04:47:00     -159.167      -86.881        5.676       77.309       57.846       42.509     5976.614     3346.162     1807.028        2.202        0.556      181.335       47.984        0.070      342.134       17.328      858.440
07/07/2013  04:48:00     -107.803      -69.830        2.857       47.073       29.175       22.891     2215.881      851.160      523.996        1.005        0.180      128.443       20.507        0.025      342.195       17.435      858.454
07/07/2013  04:49:00     -104.865      -26.420       -3.210       48.271       41.509       21.198     2330.106     1723.018      449.354        0.810        0.225      108.142       23.636        0.048      342.196       17.437      858.444
07/07/2013  04:50:00     -102.693       24.011      -10.073       48.477       29.095       21.706     2350.019      846.519      471.151        0.745        0.183      105.463       22.342        0.045      342.061       17.207      858.403
07/07/2013  04:51:00     -112.400       30.605       -5.153       36.910       24.411       20.857     1362.333      595.908      435.010        0.799        0.120      116.493       18.980        0.027      342.193       17.430      858.386
07/07/2013  04:52:00      -91.423      -11.737        2.289       31.334       36.695       20.549      981.800     1346.538      422.250        0.563        0.138       92.174       19.590        0.045      342.575       18.079      858.377
07/07/2013  04:53:00      -67.198      -41.402        8.974       64.907       23.386       23.496     4212.891      546.882      552.070        0.581        0.266       78.929       27.425        0.121      342.404       17.790      858.400
07/07/2013  04:54:00     -129.154      -31.120       -8.812       28.229       26.378       16.434      796.886      695.778      270.062        0.974        0.088      132.850       16.439        0.015      342.215       17.469      858.444
07/07/2013  04:55:00      -38.888      -27.608        4.199       42.670       17.836       11.679     1820.755      318.120      136.393        0.228        0.114       47.691       14.805        0.096      342.121       17.310      858.474
07/07/2013  04:56:00      -18.216      -21.164        4.427       14.465       13.587        9.401      209.229      184.620       88.378        0.064        0.024       27.924        5.825        0.044      342.207       17.455      858.481
07/07/2013  04:57:00      -62.115       -3.698       -4.235       19.545       14.286       12.059      382.023      204.099      145.413        0.231        0.037       62.225       10.684        0.029      342.189       17.423      858.483
07/07/2013  04:58:00      -47.330      -40.893       -5.244       19.948       25.204        9.587      397.910      635.231       91.916        0.253        0.056       62.549        7.855        0.016      342.227       17.489      858.476
07/07/2013  04:59:00       -0.036      -39.637       -3.977       12.701       14.469       11.579      161.322      209.348      134.063        0.105        0.025       39.637       10.303        0.068      342.381       17.749      858.469
07/07/2013  05:00:00      -14.225      -16.742        4.585       35.477       17.990       14.358     1258.596      323.645      206.159        0.115        0.089       21.969       13.089        0.355      342.188       17.422      858.474
07/07/2013  05:01:00      -41.890      -47.605        2.293       41.781       32.481       19.872     1745.657     1055.037      394.894        0.361        0.160       63.411       18.481        0.085      342.043       17.175      858.497
07/07/2013  05:02:00      -60.902      -61.761       10.193       43.151       41.003       30.143     1862.045     1681.234      908.602        0.604        0.223       86.738       22.139        0.065      341.985       17.078      858.511
07/07/2013  05:03:00     -148.359     -106.181       -0.012       80.041       47.674       28.340     6406.502     2272.825      803.177        2.138        0.474      182.441       29.024        0.025      342.070       17.219      858.522
07/07/2013  05:04:00     -125.663      -65.426       -5.079       50.867       36.277       21.717     2587.455     1315.996      471.632        1.224        0.219      141.674       25.542        0.033      342.044       17.179      858.522
07/07/2013  05:05:00     -135.426        8.745      -10.061       46.285       37.849       21.536     2142.258     1432.517      463.806        1.128        0.202      135.708       22.465        0.027      341.988       17.083      858.494
07/07/2013  05:06:00     -162.651       46.566      -16.015       56.382       38.442       24.601     3178.894     1477.755      605.215        1.707        0.263      169.185       10.198        0.004      341.858       16.861      858.477
07/07/2013  05:07:00     -140.698       13.020      -13.158       37.602       27.474       19.730     1413.943      754.795      389.286        1.135        0.128      141.299       15.259        0.012      341.989       17.084      858.483
07/07/2013  05:08:00     -128.354      -12.235      -13.212       33.067       28.130       16.293     1093.454      791.299      265.470        0.947        0.108      128.936       15.995        0.015      342.020       17.138      858.485
07/07/2013  05:09:00     -127.547      -31.269       -9.524       33.923       35.783       17.749     1150.736     1280.458      315.024        1.004        0.137      131.324       17.595        0.018      342.063       17.210      858.496
07/07/2013  05:10:00     -122.738      -16.919      -10.170       41.854       35.570       24.572     1751.734     1265.199      603.766        0.954        0.181      123.898       24.722        0.040      341.932       16.987      858.512
07/07/2013  05:11:00     -116.925      -11.806      -10.466       37.052       35.414       18.862     1372.863     1254.141      355.762        0.845        0.149      117.520       17.331        0.022      342.019       17.137      858.501
07/07/2013  05:12:00     -107.698      -36.064       -8.692       40.324       23.078       15.133     1626.045      532.615      228.997        0.768        0.119      113.576       10.527        0.009      341.976       17.063      858.486
07/07/2013  05:13:00     -124.957      -43.510       -6.843       39.115       28.931       18.672     1529.994      836.981      348.652        1.013        0.136      132.316       17.700        0.018      341.903       16.940      858.503
07/07/2013  05:14:00     -185.973      -24.510       -9.381       54.291       37.812       26.574     2947.509     1429.749      706.153        2.018        0.254      187.582       28.911        0.024      341.871       16.884      858.536
07/07/2013  05:15:00     -213.776      -77.362      -17.707       36.729       44.346       25.536     1349.018     1966.587      652.108        2.798        0.198      227.343       14.697        0.004      341.883       16.901      858.564
07/07/2013  05:16:00     -253.699      -78.864       -3.455       90.838       75.536       48.939     8251.614     5705.667     2395.057        4.347        0.818      265.674       51.003        0.037      341.745       16.666      858.591
07/07/2013  05:17:00     -172.240      -19.516        5.015       88.543       71.311       44.147     7839.919     5085.249     1948.944        2.247        0.744      173.342       52.500        0.092      341.586       16.400      858.585
07/07/2013  05:18:00     -181.410      -36.759      -10.221       79.775       55.460       35.910     6364.011     3075.827     1289.521        2.255        0.536      185.097       36.170        0.038      341.734       16.651      858.542
07/07/2013  05:19:00     -189.473       -6.758      -22.083       54.309       46.036       26.904     2949.505     2119.308      723.807        2.111        0.290      189.594       28.069        0.022      341.674       16.547      858.517
07/07/2013  05:20:00     -176.585      -62.519      -19.785       43.201       35.857       28.090     1866.334     1285.742      789.032        1.971        0.197      187.325       23.808        0.016      341.707       16.604      858.505
07/07/2013  05:21:00     -280.100      -89.738      -18.113       50.633       40.793       26.876     2563.750     1664.086      722.330        4.589        0.248      294.124       24.052        0.007      341.574       16.376      858.518
07/07/2013  05:22:00     -210.290      -81.773       -2.646       57.673       59.277       37.435     3326.141     3513.721     1401.411        2.958        0.412      225.629       29.672        0.017      341.601       16.424      858.543
07/07/2013  05:23:00     -174.116      -47.399      -12.484       76.289       64.091       35.938     5819.989     4107.621     1291.540        2.197        0.561      180.453       41.708        0.053      341.667       16.536      858.535
07/07/2013  05:24:00     -203.841       39.198      -15.340       40.506       46.797       21.517     1640.773     2189.997      462.974        2.381        0.215      207.576       16.378        0.006      341.831       16.814      858.499
07/07/2013  05:25:00     -137.338       45.880      -13.602       37.999       34.605       21.925     1443.959     1197.490      480.724        1.214        0.156      144.799        7.756        0.003      341.896       16.927      858.464
07/07/2013  05:26:00      -80.690      -44.608        1.111       76.653       56.347       32.476     5875.689     3174.937     1054.664        0.930        0.505       92.199       38.287        0.172      341.796       16.756      858.494
07/07/2013  05:27:00     -197.593      -77.985      -10.726       61.144       38.446       26.261     3738.614     1478.109      689.639        2.557        0.295      212.425       22.583        0.011      341.631       16.476      858.558
07/07/2013  05:28:00     -191.917      -43.371       -8.189       45.718       46.766       29.728     2090.178     2187.068      883.742        2.197        0.258      196.757       16.366        0.007      341.676       16.552      858.608
07/07/2013  05:29:00     -160.752      -68.454       -0.492       78.183       67.299       35.479     6112.508     4529.120     1258.759        2.121        0.595      174.720       41.386        0.056      341.681       16.562      858.611
07/07/2013  05:30:00     -117.868      -28.326        4.538       57.380       54.659       32.729     3292.414     2987.581     1071.204        1.103        0.368      121.224       21.041        0.030      341.672       16.547      858.597
07/07/2013  05:31:00     -166.987      -44.889       -4.639       57.221       53.444       34.054     3274.209     2856.288     1159.674        1.860        0.365      172.915       33.787        0.038      341.732       16.649      858.591
07/07/2013  05:32:00     -150.541      -59.162       -1.382       84.034       43.274       30.390     7061.693     1872.623      923.539        1.801        0.493      161.749       41.569        0.066      341.807       16.775      858.598
07/07/2013  05:33:00     -135.112      -71.823      -10.665       44.124       38.788       27.601     1946.898     1504.502      761.835        1.387        0.211      153.015       25.382        0.028      341.866       16.877      858.629
07/07/2013  05:34:00     -148.299      -52.259      -12.820       29.329       47.161       20.165      860.174     2224.197      406.631        1.419        0.175      157.237       14.655        0.009      341.833       16.819      858.644
07/07/2013  05:35:00     -165.978       -3.359      -10.921       32.792       30.934       25.544     1075.326      956.908      652.515        1.518        0.134      166.012       22.071        0.018      341.852       16.852      858.640
07/07/2013  05:36:00     -146.890        9.610      -16.311       26.334       17.697       12.867      693.457      313.201      165.557        1.155        0.059      147.204       11.665        0.006      341.792       16.750      858.608
07/07/2013  05:37:00     -153.460       -4.094      -13.368       37.782       33.426       24.830     1427.467     1117.283      616.544        1.345        0.158      153.514       17.552        0.013      341.938       16.999      858.598
07/07/2013  05:38:00     -155.531      -80.004       -3.599       41.515       35.504       26.604     1723.471     1260.510      707.762        1.715        0.185      174.901       19.220        0.012      341.810       16.781      858.603
07/07/2013  05:39:00     -131.024      -58.222       -2.210       42.666       50.345       25.640     1820.357     2534.658      657.389        1.279        0.251      143.377       22.384        0.024      341.820       16.799      858.609
07/07/2013  05:40:00     -138.759      -38.567       -4.932       48.097       41.906       29.039     2313.296     1756.089      843.271        1.284        0.246      144.019       19.849        0.019      341.917       16.963      858.598
07/07/2013  05:41:00     -141.195      -15.816       -4.265       54.423       49.631       25.949     2961.847     2463.214      673.367        1.315        0.305      142.078       19.456        0.019      341.889       16.914      858.601
07/07/2013  05:42:00     -154.891      -27.746       -8.061       36.969       57.156       28.132     1366.716     3266.848      791.396        1.512        0.271      157.356       21.961        0.019      341.702       16.598      858.633
07/07/2013  05:43:00     -179.249      -55.401        1.560       51.240       56.472       25.399     2625.548     3189.138      645.089        2.083        0.323      187.616       17.288        0.008      341.643       16.497      858.670
07/07/2013  05:44:00     -170.128      -38.214       -5.858       60.635       43.565       24.279     3676.559     1897.904      589.469        1.830        0.308      174.367       22.076        0.016      341.641       16.494      858.673
07/07/2013  05:45:00     -152.134       12.343      -10.150       47.146       38.201       24.061     2222.780     1459.284      578.937        1.383        0.213      152.633       22.633        0.022      341.638       16.490      858.648
07/07/2013  05:46:00     -115.308       67.788       -9.380       42.560       42.724       29.308     1811.393     1825.308      858.941        1.124        0.225      133.757       24.175        0.033      341.826       16.808      858.621
07/07/2013  05:47:00     -115.288       42.933      -14.875       29.598       54.102       21.548      876.057     2927.019      464.314        0.981        0.213      123.023       21.004        0.029      341.994       17.093      858.619
07/07/2013  05:48:00     -110.524       -2.008       -0.855       68.006       43.798       31.406     4624.782     1918.290      986.359        0.987        0.376      110.542       31.965        0.084      341.736       16.656      858.639
07/07/2013  05:49:00     -103.426      -14.732      -11.896       54.657       50.666       35.841     2987.373     2567.076     1284.577        0.895        0.342      104.470       37.803        0.131      341.678       16.559      858.652
07/07/2013  05:50:00     -107.537       -1.927      -20.710       43.847       56.254       22.342     1922.573     3164.482      499.144        0.879        0.279      107.554       14.330        0.018      341.644       16.500      858.677
07/07/2013  05:51:00     -127.373      -48.128      -16.970       30.255       25.135       15.804      915.387      631.781      249.768        1.031        0.090      136.163        8.600        0.004      341.585       16.398      858.706
07/07/2013  05:52:00     -152.005      -76.116       -7.828       93.239       56.320       36.993     8693.598     3171.972     1368.462        2.109        0.662      169.997       42.947        0.064      341.588       16.403      858.726
07/07/2013  05:53:00     -195.377      -92.037      -18.807       60.525       44.371       23.244     3663.307     1968.769      540.298        2.658        0.309      215.970       19.830        0.008      341.648       16.504      858.724
07/07/2013  05:54:00     -130.233       21.459       -4.929       34.192       44.425       25.589     1169.119     1973.575      654.790        1.062        0.190      131.989       16.620        0.016      341.606       16.435      858.693
07/07/2013  05:55:00     -126.530       35.224      -15.079       43.497       41.633       28.413     1891.952     1733.277      807.276        1.095        0.222      131.341       25.690        0.038      341.684       16.569      858.681
07/07/2013  05:56:00      -93.464      -18.149      -17.729       34.621       37.290       22.129     1198.632     1390.510      489.689        0.623        0.154       95.210       17.102        0.032      341.808       16.778      858.673
07/07/2013  05:57:00     -101.653      -63.064      -10.365       51.202       32.501       25.884     2621.641     1056.347      669.983        0.938        0.217      119.626       14.873        0.015      341.711       16.613      858.693
07/07/2013  05:58:00      -90.983      -57.058       -8.231       34.557       32.708       14.788     1194.193     1069.844      218.680        0.704        0.124      107.394       15.286        0.020      341.642       16.495      858.715
07/07/2013  05:59:00      -71.173      -19.238       -1.916       41.373       38.492       18.647     1711.701     1481.638      347.708        0.449        0.177       73.727       10.755        0.021      341.688       16.575      858.723
07/07/2013  06:00:00     -117.318      -61.523        5.951       52.911       36.567       27.065     2799.576     1337.114      732.514        1.123        0.243      132.471       25.037        0.036      341.600       16.425      858.724
07/07/2013  06:01:00      -88.574       25.328       -7.194       38.784       35.993       21.631     1504.163     1295.517      467.909        0.590        0.163       92.124       19.954        0.047      341.630       16.475      858.710
07/07/2013  06:02:00      -41.850       42.139       -4.766       33.476       26.394       18.197     1120.631      696.653      331.127        0.285        0.107       59.389       17.232        0.084      341.683       16.564      858.703
07/07/2013  06:03:00      -45.724       10.165       -4.270       34.026       30.736       15.618     1157.756      944.692      243.929        0.228        0.117       46.841       12.934        0.076      341.741       16.665      858.707
07/07/2013  06:04:00      -78.297      -43.436       -9.514       35.960       24.963       15.478     1293.143      623.126      239.572        0.513        0.108       89.539        9.263        0.011      341.845       16.840      858.727
07/07/2013  06:05:00      -54.814      -64.730       -0.103       55.993       43.579       27.554     3135.253     1899.112      759.196        0.649        0.290       84.821       32.153        0.144      341.697       16.591      858.754
07/07/2013  06:06:00      -99.516      -42.841        2.448       47.366       36.489       19.219     2243.543     1331.481      369.365        0.784        0.197      108.346       22.562        0.043      341.646       16.504      858.773
07/07/2013  06:07:00      -52.202      -14.803        4.611       38.856       32.134       22.942     1509.787     1032.614      526.331        0.302        0.153       54.261       21.516        0.157      341.737       16.658      858.782
07/07/2013  06:08:00      -32.062        6.336        9.512       34.936       27.872       20.262     1220.554      776.827      410.564        0.178        0.120       32.682       17.409        0.284      341.756       16.691      858.771
07/07/2013  06:09:00      -85.982      -43.754       -6.143       16.730       13.185       11.281      279.909      173.831      127.253        0.496        0.029       96.475        6.320        0.004      341.800       16.763      858.764
07/07/2013  06:10:00      -84.726      -46.529       -2.181       18.209       21.967       12.935      331.573      482.550      167.312        0.516        0.049       96.661       12.389        0.016      341.785       16.739      858.739
07/07/2013  06:11:00      -55.588       -7.814       -2.920       18.681       16.744       13.500      348.985      280.347      182.239        0.199        0.041       56.134       11.311        0.041      341.782       16.733      858.724
07/07/2013  06:12:00      -73.974      -19.034       -7.273       21.008       14.600       10.294      441.325      213.158      105.972        0.332        0.038       76.384       10.476        0.019      341.777       16.726      858.726
07/07/2013  06:13:00     -105.631      -53.996      -13.860       18.301       19.667       12.647      334.923      386.774      159.943        0.757        0.044      118.632        7.547        0.004      341.830       16.814      858.742
07/07/2013  06:14:00     -121.940      -45.555       -2.975       45.027       32.666       18.089     2027.393     1067.071      327.210        1.019        0.171      130.172       19.086        0.021      341.791       16.750      858.767
07/07/2013  06:15:00      -65.797      -53.951       11.899       63.705       48.902       32.277     4058.279     2391.414     1041.830        0.744        0.375       85.088       35.017        0.169      341.854       16.856      858.795
07/07/2013  06:16:00     -104.560      -59.083        2.181       58.287       51.331       33.070     3397.317     2634.831     1093.624        1.078        0.356      120.098       30.533        0.065      341.786       16.740      858.812
07/07/2013  06:17:00      -83.060      -56.334        8.181       45.745       34.060       24.211     2092.589     1160.065      586.170        0.699        0.192      100.362       22.039        0.048      341.707       16.606      858.801
07/07/2013  06:18:00      -75.871      -49.889        3.226       47.906       28.363       18.097     2294.974      804.439      327.488        0.584        0.171       90.803       23.835        0.069      341.658       16.522      858.803
07/07/2013  06:19:00      -47.362      -58.417       10.536       42.536       28.183       22.976     1809.310      794.270      527.915        0.445        0.157       75.204       23.205        0.095      341.694       16.584      858.827
07/07/2013  06:20:00      -55.288      -39.887        4.002       37.716       23.438       15.963     1422.531      549.345      254.804        0.344        0.111       68.174       20.034        0.086      341.727       16.641      858.847
07/07/2013  06:21:00       -4.269      -19.024       17.825       22.664       20.790       14.363      513.649      432.228      206.310        0.092        0.058       19.497       14.563        0.558      341.918       16.964      858.860
07/07/2013  06:22:00      -66.380      -86.278       -0.891       50.170       55.615       30.325     2517.021     3093.026      919.605        0.919        0.326      108.858       20.967        0.037      341.810       16.781      858.886
07/07/2013  06:23:00     -115.723      -85.460       -9.032       61.636       33.440       27.010     3799.004     1118.257      729.516        1.321        0.282      143.859       26.786        0.035      341.747       16.673      858.893
07/07/2013  06:24:00     -120.028      -61.718       -2.573       40.318       26.151       18.265     1625.517      683.887      333.624        1.043        0.132      134.966       17.437        0.017      341.775       16.720      858.876
07/07/2013  06:25:00     -104.954      -36.029       -5.527       39.835       30.966       18.858     1586.800      958.892      355.618        0.762        0.145      110.966       20.222        0.033      341.773       16.719      858.893
07/07/2013  06:26:00     -112.498      -28.561       -5.250       22.503       24.339       15.255      506.381      592.371      232.729        0.742        0.067      116.067       12.534        0.012      341.817       16.794      858.895
07/07/2013  06:27:00      -76.314      -32.591      -16.116       14.062       18.402       12.039      197.751      338.628      144.943        0.391        0.034       82.982        7.316        0.008      341.874       16.889      858.905
07/07/2013  06:28:00      -25.300      -42.384       -2.522       27.619       18.465       14.793      762.814      340.952      218.845        0.188        0.066       49.361       10.973        0.049      341.936       16.994      858.937
07/07/2013  06:29:00      -67.799      -87.956      -12.522       48.935       53.809       24.530     2394.655     2895.396      601.703        0.919        0.295      111.054       23.649        0.045      341.949       17.018      858.962
07/07/2013  06:30:00     -101.142      -81.870       -2.081       51.926       39.217       26.424     2696.331     1537.949      698.204        1.093        0.247      130.124       27.815        0.046      341.984       17.077      858.970
07/07/2013  06:31:00     -125.327      -57.951       -3.794       32.443       33.768       20.877     1052.535     1140.306      435.835        1.085        0.131      138.077       19.539        0.020      342.029       17.152      858.961
07/07/2013  06:32:00     -128.278      -57.757       -6.065       28.132       30.761       16.685      791.395      946.231      278.396        1.092        0.101      140.681       11.042        0.006      341.999       17.102      858.967
07/07/2013  06:33:00     -107.936      -19.597        3.552       44.601       37.353       19.449     1989.219     1395.212      378.272        0.790        0.188      109.701       21.568        0.039      342.010       17.120      858.971
07/07/2013  06:34:00     -123.915      -39.764       -0.771       29.466       27.579       17.227      868.256      760.614      296.778        0.943        0.096      130.139       14.651        0.013      342.005       17.112      859.003
07/07/2013  06:35:00      -98.189      -85.440       -9.642       32.952       40.740       22.958     1085.803     1659.740      527.062        1.015        0.164      130.158       13.333        0.010      342.045       17.180      859.031
07/07/2013  06:36:00      -88.190      -85.166       -4.065       48.069       36.798       29.684     2310.669     1354.129      881.129        0.980        0.227      122.600       23.950        0.038      342.085       17.246      859.062
07/07/2013  06:37:00      -98.746      -57.710       -4.033       35.672       32.371       21.442     1272.509     1047.864      459.760        0.794        0.139      114.373       15.534        0.018      342.049       17.184      859.060
07/07/2013  06:38:00      -32.791      -20.644       -4.408       24.080       16.305       13.308      579.826      265.869      177.104        0.127        0.051       38.748        7.432        0.037      342.149       17.356      859.053
07/07/2013  06:39:00       10.011      -10.616       19.861       14.573       14.717       12.349      212.368      216.595      152.503        0.059        0.029       14.592        9.289        0.405      342.452       17.871      859.042
07/07/2013  06:40:00      -45.357       -8.799       -3.376       25.970       16.985       12.972      674.458      288.499      168.270        0.164        0.057       46.202        9.825        0.045      342.185       17.418      859.062
07/07/2013  06:41:00        4.821       -9.164        1.946       15.571       16.406       19.509      242.462      269.161      380.585        0.050        0.045       10.355       13.427        1.681      342.280       17.580      859.064
07/07/2013  06:42:00       -8.314       -1.832        8.595        6.907        7.855        9.818       47.704       61.700       96.385        0.018        0.010        8.513        6.681        0.616      342.543       18.028      859.069
07/07/2013  06:43:00      -19.200        9.462        9.179       12.620       10.286       10.805      159.263      105.810      116.740        0.046        0.019       21.405        7.604        0.126      342.466       17.896      859.058
07/07/2013  06:44:00      -14.423       -1.330       -2.656       12.360        7.761        8.279      152.777       60.239       68.534        0.025        0.014       14.484        4.856        0.112      342.407       17.795      859.047
07/07/2013  06:45:00       -7.422      -21.684        5.733       21.066       18.161       14.471      443.790      329.814      209.418        0.077        0.049       22.919        7.502        0.107      342.584       18.097      859.057
07/07/2013  06:46:00      -12.982      -21.694        0.590       20.647       15.148       14.607      426.293      229.459      213.377        0.075        0.043       25.281       12.043        0.227      342.417       17.810      859.075
07/07/2013  06:47:00       -9.160      -18.500        2.223       14.243       16.457       11.812      202.868      270.847      139.535        0.052        0.031       20.644       11.412        0.306      342.518       17.985      859.088
07/07/2013  06:48:00      -58.456      -27.587        5.957       33.908       27.934       15.643     1149.751      780.326      244.708        0.319        0.109       64.638       13.040        0.041      342.404       17.790      859.101
07/07/2013  06:49:00      -42.908      -55.935        2.193       34.468       38.744       22.287     1188.050     1501.120      496.707        0.408        0.159       70.497       22.222        0.099      342.331       17.666      859.096
07/07/2013  06:50:00      -82.843      -87.916      -10.192       22.745       25.119       10.204      517.318      630.988      104.117        0.797        0.063      120.798       14.020        0.013      342.157       17.374      859.085
07/07/2013  06:51:00      -39.827      -65.725        8.447       23.956       26.847       17.426      573.909      720.758      303.660        0.379        0.080       76.850       16.883        0.048      342.240       17.512      859.072
07/07/2013  06:52:00       -8.463      -22.424        0.231       19.688       10.363        4.550      387.610      107.383       20.703        0.055        0.026       23.968        2.918        0.015      342.285       17.587      859.055
07/07/2013  06:53:00       21.855        7.841       -6.363       15.194       18.481       11.286      230.857      341.531      127.366        0.064        0.035       23.219        7.622        0.108      342.319       17.645      859.036
07/07/2013  06:54:00       40.949       22.053        5.249       17.220       23.187       21.497      296.525      537.648      462.134        0.174        0.065       46.509       12.711        0.075      342.241       17.513      859.037
07/07/2013  06:55:00       49.690       19.651        3.502       18.408       14.611       14.779      338.860      213.485      218.414        0.182        0.039       53.435        8.340        0.024      342.480       17.919      859.043
07/07/2013  06:56:00       37.222       -0.775       -6.989       14.830       23.637       12.324      219.934      558.723      151.884        0.118        0.047       37.230        7.564        0.041      342.292       17.598      859.053
07/07/2013  06:57:00       -7.780      -16.671        4.870       19.451       17.327       18.228      378.335      300.217      332.250        0.069        0.051       18.397       10.532        0.328      342.423       17.821      859.078
07/07/2013  06:58:00       -4.492      -28.283        7.292       27.166       28.313       22.794      738.003      801.620      519.564        0.147        0.103       28.638       16.482        0.331      342.535       18.013      859.103
07/07/2013  06:59:00      -77.484      -82.215        7.740       41.641       51.441       25.715     1733.986     2646.156      661.239        0.893        0.252      112.974       27.411        0.059      342.470       17.902      859.122
07/07/2013  07:00:00     -103.904      -85.106       -0.113       51.454       51.223       26.856     2647.527     2623.831      721.271        1.201        0.300      134.309       35.959        0.072      342.384       17.755      859.131
07/07/2013  07:01:00      -68.319      -79.848       -5.611       34.003       23.433       15.373     1156.226      549.102      236.338        0.651        0.097      105.087       13.815        0.017      342.355       17.707      859.136
07/07/2013  07:02:00      -24.766      -21.844       -2.639       13.063       17.015        8.701      170.632      289.514       75.708        0.082        0.027       33.023       10.726        0.105      342.482       17.923      859.135
07/07/2013  07:03:00      -10.530       -2.304       17.023        9.400        9.656        9.107       88.367       93.247       82.937        0.034        0.013       10.779        3.881        0.130      342.953       18.723      859.132
07/07/2013  07:04:00       47.522      -30.894       -3.755       32.401       30.851       28.200     1049.825      951.789      795.257        0.301        0.140       56.682       21.634        0.146      342.229       17.493      859.143
07/07/2013  07:05:00       26.525      -13.594        6.544       28.396       22.218       26.746      806.359      493.647      715.331        0.147        0.101       29.806       21.367        0.514      342.496       17.948      859.151
07/07/2013  07:06:00      -19.716      -11.327       11.052       19.211       13.901       10.887      369.064      193.229      118.523        0.066        0.034       22.738       10.606        0.218      342.699       18.290      859.174
07/07/2013  07:07:00      -22.965       -0.140        8.972       19.080        9.134       14.677      364.039       83.433      215.409        0.064        0.033       22.965       12.249        0.284      342.857       18.560      859.184
07/07/2013  07:08:00      -22.260      -51.537        0.139       14.917       18.140       13.707      222.527      329.049      187.874        0.195        0.037       56.139       12.380        0.049      342.602       18.126      859.200
07/07/2013  07:09:00      -14.555      -21.196       17.172       17.426       21.731       24.143      303.681      472.252      582.908        0.116        0.068       25.712       18.734        0.531      343.275       19.273      859.232
07/07/2013  07:10:00      -21.654      -15.651       10.728       23.244       20.426       24.552      540.290      417.237      602.809        0.119        0.078       26.718       19.175        0.515      342.870       18.582      859.253
07/07/2013  07:11:00      -50.242      -38.496       -5.363       41.073       34.024       23.101     1687.030     1157.641      533.649        0.371        0.169       63.295       25.123        0.158      342.741       18.362      859.263
07/07/2013  07:12:00      -54.971      -41.979        1.552       37.677       35.898       26.796     1419.522     1288.691      718.021        0.411        0.171       69.167       31.063        0.202      342.789       18.445      859.264
07/07/2013  07:13:00      -45.261      -26.921        9.875       32.335       27.228       16.233     1045.527      741.342      263.521        0.246        0.103       52.662       19.116        0.132      342.809       18.479      859.263
07/07/2013  07:14:00     -110.186      -78.478       -5.996       43.658       37.874       22.240     1906.057     1434.454      494.627        1.108        0.192      135.276       25.490        0.036      342.604       18.131      859.262
07/07/2013  07:15:00      -78.602      -56.419        1.566       42.605       33.413       23.213     1815.221     1116.409      538.838        0.642        0.174       96.754       24.065        0.062      342.690       18.275      859.257
07/07/2013  07:16:00      -78.696      -27.134        2.991       38.297       27.581       19.905     1466.635      760.712      396.192        0.478        0.131       83.242       18.338        0.049      342.667       18.238      859.255
07/07/2013  07:17:00      -46.002      -14.925        1.350       35.952       22.182       16.692     1292.531      492.049      278.621        0.220        0.103       48.363       17.321        0.128      342.685       18.267      859.255
07/07/2013  07:18:00      -61.698      -73.347       -7.290       23.524       18.613       15.526      553.371      346.441      241.048        0.519        0.057       95.846       14.314        0.022      342.628       18.172      859.257
07/07/2013  07:19:00      -33.811      -52.105       -9.941       22.701       17.329       11.409      515.339      300.292      130.161        0.245        0.047       62.113        9.205        0.022      342.672       18.245      859.256
07/07/2013  07:20:00       -8.869      -11.632        6.480       15.061       10.655       15.075      226.827      113.533      227.253        0.041        0.028       14.627        8.331        0.324      343.046       18.881      859.275
07/07/2013  07:21:00      -32.145      -30.283       12.210       36.992       29.113       22.232     1368.389      847.576      494.254        0.240        0.136       44.163       25.418        0.331      343.226       19.188      859.290
07/07/2013  07:22:00      -77.374      -63.817      -12.755       36.947       29.984       15.872     1365.092      899.020      251.909        0.637        0.126      100.296       11.607        0.013      342.776       18.421      859.307
07/07/2013  07:23:00      -84.757      -79.962       -7.887       25.428       28.440       13.856      646.563      808.809      191.997        0.764        0.082      116.523        8.041        0.005      342.671       18.244      859.308
07/07/2013  07:24:00      -84.142      -41.583        3.528       19.218       38.506       14.232      369.345     1482.702      202.562        0.544        0.103       93.857        5.990        0.004      342.727       18.338      859.295
07/07/2013  07:25:00      -66.147      -42.115       -2.667       27.403       16.928       14.990      750.929      286.572      224.705        0.371        0.063       78.416       12.920        0.027      342.771       18.415      859.298
07/07/2013  07:26:00      -21.004      -42.431        9.551       24.610       37.777       15.995      605.646     1427.127      255.854        0.231        0.114       47.346       18.193        0.148      343.022       18.841      859.296
07/07/2013  07:27:00      -52.510      -44.403       -0.295       38.276       28.899       26.806     1465.050      835.164      718.537        0.387        0.151       68.767       25.888        0.142      343.014       18.826      859.295
07/07/2013  07:28:00      -41.839      -21.838        3.705       26.525       17.456       14.891      703.552      304.725      221.738        0.174        0.062       47.195        9.703        0.042      342.815       18.488      859.301
07/07/2013  07:29:00      -46.832        9.520        2.011       21.106       15.000       15.951      445.468      224.987      254.429        0.161        0.046       47.790       15.626        0.107      343.030       18.855      859.306
07/07/2013  07:30:00      -37.044       22.153        8.328       15.972       10.741       17.192      255.092      115.359      295.563        0.130        0.033       43.163       12.534        0.084      343.141       19.046      859.314
07/07/2013  07:31:00      -36.040        4.701        3.721       10.086        8.203        7.789      101.718       67.288       60.673        0.078        0.011       36.345        3.062        0.007      342.920       18.668      859.323
07/07/2013  07:32:00      -27.279      -27.471       -1.235       12.687       23.761        9.038      160.969      564.561       81.685        0.115        0.040       38.714        9.550        0.061      342.885       18.607      859.328
07/07/2013  07:33:00      -16.574      -28.618       -6.637        6.396        9.082        5.637       40.908       82.474       31.771        0.065        0.008       33.071        3.829        0.013      342.902       18.636      859.331
07/07/2013  07:34:00      -22.769        1.516       -9.713       10.702       28.257       11.628      114.523      798.463      135.203        0.083        0.052       22.819       11.932        0.273      343.010       18.820      859.320
07/07/2013  07:35:00       -8.637       -0.982       16.982       23.090       29.028       20.568      533.152      842.601      423.032        0.108        0.090        8.692        8.101        0.869      343.469       19.602      859.315
07/07/2013  07:36:00       -2.097        2.282       15.675       22.447       15.187       14.440      503.857      230.634      208.513        0.060        0.047        3.099        6.973        5.062      343.525       19.699      859.306
07/07/2013  07:37:00      -14.115       -4.241       22.974       14.195       11.926       11.911      201.512      142.231      141.876        0.062        0.024       14.739        8.115        0.303      343.420       19.520      859.314
07/07/2013  07:38:00        1.543       -5.267       -5.480       28.406       19.293       19.977      806.922      372.237      399.091        0.082        0.079        5.489        8.682        2.502      343.171       19.095      859.319
07/07/2013  07:39:00      -19.517       -1.627      -10.009        7.856        8.101        7.524       61.723       65.633       56.612        0.033        0.009       19.585        5.011        0.065      343.151       19.061      859.334
07/07/2013  07:40:00      -26.257      -31.253        2.376       21.788       21.751       10.546      474.702      473.106      111.221        0.137        0.053       40.819        9.307        0.052      343.145       19.050      859.343
07/07/2013  07:41:00      -61.391      -44.872        5.592       40.158       24.728       19.823     1612.648      611.462      392.946        0.421        0.131       76.042       23.024        0.092      343.262       19.249      859.342
07/07/2013  07:42:00      -46.098      -95.997       -2.640       15.592       21.233        6.999      243.113      450.856       48.985        0.605        0.037      106.491        6.399        0.004      343.016       18.832      859.333
07/07/2013  07:43:00      -29.944      -41.975        1.179        8.463        9.142        9.397       71.615       83.579       88.301        0.145        0.012       51.561        7.317        0.020      343.114       18.996      859.320
07/07/2013  07:44:00      -27.973      -24.156       -0.907        7.469        8.368        7.278       55.781       70.028       52.970        0.077        0.009       36.959        4.721        0.016      343.254       19.235      859.313
07/07/2013  07:45:00      -32.248      -16.717       -5.036       18.361       14.665       12.167      337.115      215.049      148.042        0.102        0.035       36.324       13.960        0.148      343.284       19.286      859.316
07/07/2013  07:46:00      -34.654      -14.922        1.428        8.394        8.742        5.376       70.452       76.424       28.906        0.080        0.009       37.730        3.129        0.007      343.344       19.388      859.318
07/07/2013  07:47:00      -19.764        0.403       -8.518       15.868       10.638       11.871      251.790      113.166      140.910        0.048        0.025       19.768        5.554        0.079      343.509       19.671      859.324
07/07/2013  07:48:00      -22.033      -21.527        0.775       28.587       29.766       21.091      817.245      885.993      444.837        0.155        0.107       30.804       10.897        0.125      343.217       19.172      859.326
07/07/2013  07:49:00      -12.311      -35.341        5.930        9.796       16.140       14.431       95.968      260.514      208.262        0.100        0.028       37.424        5.355        0.020      343.367       19.430      859.339
07/07/2013  07:50:00       11.557       -2.622        8.371       40.879       30.275       28.223     1671.071      916.603      796.549        0.180        0.169       11.851       24.002        4.102      343.509       19.671      859.335
07/07/2013  07:51:00        7.830       18.954       34.761       32.646       27.055       22.764     1065.770      731.958      518.216        0.197        0.116       20.508       15.435        0.566      343.763       20.105      859.344
07/07/2013  07:52:00       20.472       22.056       44.076       44.419       27.947       21.689     1973.018      781.037      470.405        0.304        0.161       30.093       26.283        0.763      343.766       20.110      859.351
07/07/2013  07:53:00       43.657       -4.317       24.081       33.122       27.611       24.790     1097.058      762.356      614.557        0.249        0.124       43.870       18.203        0.172      343.450       19.572      859.355
07/07/2013  07:54:00       54.687      -30.872       11.737       29.775       28.524       24.326      886.570      813.610      591.773        0.319        0.115       62.800       20.262        0.104      343.154       19.067      859.366
07/07/2013  07:55:00       34.474        3.886       35.459       27.904       18.759       17.036      778.648      351.902      290.222        0.194        0.071       34.692       13.213        0.145      343.770       20.114      859.372
07/07/2013  07:56:00        3.371       -0.738       26.269       28.442       27.596       27.929      808.944      761.550      780.047        0.153        0.118        3.451       24.683       51.159      343.977       20.469      859.376
07/07/2013  07:57:00       40.664      -50.109       -2.761       29.401       31.569       28.692      864.446      996.597      823.217        0.343        0.134       64.533       18.316        0.081      343.172       19.097      859.384
07/07/2013  07:58:00       32.387      -25.314       24.148       32.597       41.947       26.685     1062.555     1759.559      712.077        0.290        0.177       41.107       21.861        0.283      343.872       20.289      859.387
07/07/2013  07:59:00       40.113       -4.613       18.597       28.176       22.644       27.466      793.906      512.742      754.364        0.202        0.103       40.377       19.080        0.223      343.601       19.829      859.393
07/07/2013  08:00:00       14.840        8.202       34.756       27.914       27.502       17.121      779.190      756.369      293.126        0.166        0.091       16.956       12.772        0.567      344.180       20.818      859.391
07/07/2013  08:01:00       55.217       -0.530       20.223       45.090       26.464       30.272     2033.098      700.330      916.367        0.355        0.182       55.220       19.416        0.124      343.595       19.817      859.389
07/07/2013  08:02:00       14.489      -11.002       28.847       34.196       42.216       33.445     1169.399     1782.200     1118.569        0.262        0.204       18.193       15.559        0.731      344.021       20.544      859.385
07/07/2013  08:03:00        3.735        3.937       27.192       23.953       20.411       21.235      573.758      416.591      450.928        0.110        0.072        5.427        6.688        1.519      344.489       21.344      859.391
07/07/2013  08:04:00       24.700      -26.631       26.526       28.389       36.506       22.949      805.909     1332.715      526.664        0.234        0.133       36.322       18.245        0.252      344.302       21.025      859.408
07/07/2013  08:05:00       47.032      -35.445        2.412       40.666       42.377       29.344     1653.702     1795.841      861.099        0.389        0.216       58.893       32.378        0.302      343.802       20.171      859.421
07/07/2013  08:06:00       26.304       -5.220        8.645       37.781       37.609       37.729     1427.400     1414.472     1423.512        0.253        0.213       26.817       28.374        1.120      344.022       20.547      859.425
07/07/2013  08:07:00       13.481       24.031       40.199       31.280       33.600       23.499      978.435     1128.973      552.207        0.252        0.133       27.554       20.842        0.572      344.279       20.986      859.434
07/07/2013  08:08:00       26.899        8.351       30.094       36.716       26.096       24.395     1348.082      681.012      595.104        0.216        0.131       28.166       22.321        0.628      344.103       20.686      859.438
07/07/2013  08:09:00       27.364       -9.006       29.300       29.825       27.772       25.109      889.501      771.264      630.458        0.199        0.115       28.808       16.581        0.331      344.311       21.042      859.439
07/07/2013  08:10:00       16.556      -10.266       19.298       24.709       32.441       24.326      610.546     1052.398      591.746        0.150        0.113       19.481       20.391        1.096      344.078       20.642      859.444
07/07/2013  08:11:00       54.256      -77.976       -3.777       44.991       40.576       31.754     2024.221     1646.373     1008.337        0.686        0.234       94.995       20.221        0.045      343.516       19.682      859.440
07/07/2013  08:12:00       11.657      -16.939       11.490       24.613       28.602       28.362      605.811      818.061      804.424        0.139        0.111       20.562       23.851        1.345      344.394       21.183      859.428
07/07/2013  08:13:00       35.034      -36.135        7.695       31.069       23.921       24.080      965.254      572.212      579.840        0.235        0.106       50.330       20.297        0.163      343.689       19.979      859.415
07/07/2013  08:14:00       46.288        5.548       12.681       28.266       24.736       32.411      798.953      611.873     1050.500        0.240        0.123       46.619       16.713        0.129      343.973       20.462      859.413
07/07/2013  08:15:00       44.075        9.437       12.762       29.480       31.631       28.325      869.083     1000.527      802.285        0.243        0.134       45.074       19.214        0.182      344.236       20.913      859.417
07/07/2013  08:16:00       12.868      -14.994       -0.594       26.003       16.888       25.319      676.155      285.218      641.057        0.100        0.080       19.758       17.486        0.783      344.394       21.181      859.428
07/07/2013  08:17:00        0.829       -5.274       28.867       18.662       13.574       13.818      348.285      184.264      190.929        0.079        0.036        5.338       13.410        6.310      344.825       21.918      859.430
07/07/2013  08:18:00        6.041       -5.902       16.540       13.722       24.919       23.842      188.303      620.932      568.455        0.086        0.069        8.446       19.333        5.240      344.968       22.164      859.440
07/07/2013  08:19:00       -5.492       -7.172       23.320       16.193       19.484       28.340      262.226      379.608      803.146        0.103        0.072        9.033       19.226        4.530      345.309       22.749      859.431
07/07/2013  08:20:00       21.216      -37.877       10.036       25.747       57.953       29.788      662.904     3358.514      887.296        0.345        0.245       43.415       26.773        0.380      344.408       21.207      859.427
07/07/2013  08:21:00       28.060      -14.064       23.118       28.782       28.451       26.062      828.383      809.477      679.223        0.192        0.116       31.387       18.091        0.332      344.726       21.750      859.432
07/07/2013  08:22:00       30.536      -40.307        6.408       31.071       32.903       25.009      965.434     1082.626      625.462        0.264        0.134       50.568        8.053        0.025      344.315       21.046      859.435
07/07/2013  08:23:00       34.372      -55.196        6.113       29.025       37.183       27.377      842.433     1382.562      749.503        0.362        0.149       65.024       11.122        0.029      344.199       20.849      859.444
07/07/2013  08:24:00       49.757      -55.365        0.721       34.984       28.954       23.300     1223.879      838.350      542.869        0.407        0.130       74.438       13.376        0.032      343.832       20.221      859.453
07/07/2013  08:25:00       39.842      -16.792       15.476       30.798       19.116       26.501      948.499      365.435      702.288        0.206        0.101       43.236       13.569        0.098      344.461       21.296      859.459
07/07/2013  08:26:00       -8.429       -6.467       12.606       29.666       18.214       16.922      880.064      331.742      286.350        0.088        0.075       10.624        5.483        0.266      344.562       21.469      859.463
07/07/2013  08:27:00       28.236       24.550      -20.415       21.905       22.576       19.714      479.819      509.675      388.652        0.160        0.069       37.416       13.701        0.134      344.094       20.669      859.462
07/07/2013  08:28:00        4.560       23.132      -15.337       22.148       27.594       24.571      490.550      761.446      603.718        0.132        0.093       23.577       17.373        0.543      344.403       21.199      859.470
07/07/2013  08:29:00       -8.877        1.162       17.177       14.381        9.959       11.866      206.819       99.185      140.793        0.041        0.022        8.953        3.773        0.178      345.269       22.680      859.467
07/07/2013  08:30:00      -26.352       22.461       15.868       15.064       19.697       17.047      226.933      387.961      290.589        0.118        0.045       34.626        6.181        0.032      344.986       22.194      859.469
07/07/2013  08:31:00      -41.248       22.374       -4.077        9.840        9.852        8.377       96.827       97.069       70.172        0.124        0.013       46.925        2.392        0.003      344.508       21.376      859.473
07/07/2013  08:32:00      -15.156        4.483       14.499       15.415       10.754       17.106      237.610      115.649      292.605        0.055        0.032       15.805        9.848        0.388      345.227       22.608      859.464
07/07/2013  08:33:00      -13.658      -22.908        5.711       18.444       16.055       13.792      340.184      257.766      190.225        0.077        0.039       26.670        9.974        0.140      344.820       21.911      859.462
07/07/2013  08:34:00      -39.026      -28.205       -9.878       25.080       20.650       11.849      628.984      426.442      140.391        0.181        0.060       48.151        9.015        0.035      344.531       21.416      859.460
07/07/2013  08:35:00      -22.079      -21.993      -13.278       25.568       33.616       14.487      653.701     1130.053      209.879        0.157        0.100       31.164        4.412        0.020      344.664       21.643      859.468
07/07/2013  08:36:00      -30.434        8.747       -1.779       11.736        7.280        8.343      137.725       52.991       69.612        0.063        0.013       31.666        3.707        0.014      344.678       21.669      859.482
07/07/2013  08:37:00      -25.551       12.469        5.774       15.017       14.920       19.451      225.507      222.596      378.349        0.083        0.041       28.431       11.388        0.160      344.979       22.183      859.491
07/07/2013  08:38:00        8.810        6.855       39.053       17.312       14.319       13.289      299.710      205.041      176.608        0.117        0.034       11.162        5.765        0.267      346.011       23.952      859.490
07/07/2013  08:39:00       47.762        4.428       29.581       39.730       19.455       32.592     1578.476      378.489     1062.210        0.310        0.151       47.967        9.502        0.039      344.846       21.953      859.485
07/07/2013  08:40:00       36.394       -1.318       14.830       29.204       19.506       29.492      852.856      380.487      869.801        0.182        0.105       36.418       14.056        0.149      344.995       22.212      859.476
07/07/2013  08:41:00       12.595       -3.888       22.684       25.944       22.677       25.839      673.111      514.234      667.673        0.127        0.093       13.182       20.096        2.324      345.521       23.114      859.469
07/07/2013  08:42:00       28.677        9.205       17.073       24.316       40.982       29.868      591.262     1679.519      892.068        0.218        0.158       30.118       18.085        0.361      344.988       22.199      859.473
07/07/2013  08:43:00       29.119       -0.119       30.160       28.601       21.321       23.116      818.012      454.565      534.350        0.178        0.090       29.119       15.016        0.266      345.174       22.518      859.470
07/07/2013  08:44:00       18.301       13.297        1.953       24.872       23.323       23.680      618.607      543.963      560.733        0.112        0.086       22.622        8.409        0.138      345.057       22.314      859.461
07/07/2013  08:45:00       61.846      -18.631       20.580       27.012       20.249       20.757      729.639      410.036      430.848        0.308        0.079       64.591       12.678        0.039      344.721       21.742      859.452
07/07/2013  08:46:00       24.633       -4.796       19.376       20.746       17.390       22.105      430.402      302.397      488.612        0.111        0.061       25.096       14.907        0.353      345.349       22.817      859.440
07/07/2013  08:47:00       16.586       -3.584       26.263       27.627       28.747       23.956      763.262      826.375      573.884        0.157        0.108       16.969       16.988        1.002      345.581       23.215      859.438
07/07/2013  08:48:00      -17.187      -16.839       13.929       16.971       29.285       16.310      288.028      857.639      266.001        0.109        0.071       24.061       11.685        0.236      345.317       22.762      859.434
07/07/2013  08:49:00       -3.834      -10.967       28.941       16.940       20.912       15.960      286.979      437.294      254.727        0.098        0.049       11.618       13.738        1.398      346.140       24.176      859.432
07/07/2013  08:50:00       -2.717        0.446       24.211        9.526        9.495       13.074       90.737       90.154      170.937        0.047        0.018        2.753        7.664        7.748      346.352       24.538      859.426
07/07/2013  08:51:00        2.567        8.353       38.290       22.211       27.906       27.713      493.343      778.753      768.009        0.179        0.102        8.738       21.274        5.928      346.106       24.116      859.429
07/07/2013  08:52:00        6.097       -7.407       27.254       21.830       41.691       31.322      476.531     1738.118      981.082        0.201        0.160        9.594       29.449        9.422      345.892       23.748      859.433
07/07/2013  08:53:00       32.219       -7.619       24.341       36.162       40.867       37.305     1307.712     1670.077     1391.673        0.303        0.218       33.108       34.550        1.089      345.636       23.310      859.441
07/07/2013  08:54:00       34.627        5.678       27.326       35.608       33.138       25.316     1267.920     1098.127      640.917        0.249        0.150       35.090       14.171        0.163      345.404       22.910      859.451
07/07/2013  08:55:00       61.386       -5.947       12.406       29.341       18.407       25.203      860.896      338.808      635.198        0.290        0.092       61.674       14.677        0.057      344.909       22.062      859.470
07/07/2013  08:56:00       36.655       19.371        2.326       26.954       22.219       25.478      726.502      493.666      649.111        0.180        0.093       41.459       13.868        0.112      345.128       22.438      859.476
07/07/2013  08:57:00       34.652      -16.308       14.619       28.196       29.984       26.622      795.028      899.041      708.719        0.204        0.120       38.298       20.383        0.283      345.536       23.138      859.479
07/07/2013  08:58:00       16.253       -2.805       33.408       32.227       21.323       29.653     1038.568      454.653      879.315        0.188        0.119       16.493       14.461        0.769      345.847       23.671      859.483
07/07/2013  08:59:00       61.082      -54.042       -3.321       53.001       44.103       31.398     2809.089     1945.081      985.806        0.620        0.287       81.557       26.388        0.105      344.840       21.944      859.480
07/07/2013  09:00:00       48.730      -41.329       -3.235       39.871       29.985       21.755     1589.732      899.090      473.259        0.353        0.148       63.895       21.816        0.117      345.063       22.327      859.481
07/07/2013  09:01:00        4.342       12.998       20.809       16.683       27.665       24.243      278.334      765.364      587.743        0.113        0.082       13.704       13.313        0.944      345.929       23.812      859.468
07/07/2013  09:02:00       33.684       -2.707       14.793       26.168       34.180       26.170      684.765     1168.245      684.893        0.195        0.127       33.793       11.754        0.121      345.405       22.912      859.460
07/07/2013  09:03:00       19.825       -6.983       26.394       40.470       37.340       46.930     1637.834     1394.261     2202.457        0.319        0.262       21.019       30.095        2.050      345.798       23.588      859.454
07/07/2013  09:04:00       27.438      -36.595       31.273       51.210       73.722       41.134     2622.492     5434.956     1691.987        0.641        0.487       45.739       49.927        1.191      346.384       24.593      859.447
07/07/2013  09:05:00       54.521       68.845       79.553       42.747       32.605       25.150     1827.316     1063.116      632.498        0.878        0.176       87.819       16.024        0.033      345.783       23.560      859.436
07/07/2013  09:06:00       25.027       44.805       70.592       37.413       43.788       23.984     1399.744     1917.377      575.249        0.575        0.195       51.321       23.703        0.213      346.140       24.173      859.426
07/07/2013  09:07:00       24.250       22.141       53.350       41.597       56.804       33.551     1730.333     3226.692     1125.680        0.500        0.304       32.837       26.143        0.634      346.367       24.563      859.412
07/07/2013  09:08:00       10.631       33.451       63.219       34.515       46.545       25.759     1191.298     2166.441      663.512        0.462        0.201       35.100       25.677        0.535      346.242       24.350      859.394
07/07/2013  09:09:00       13.061       45.368       48.870       26.662       33.369       27.311      710.882     1113.465      745.902        0.359        0.129       47.210       20.024        0.180      346.329       24.499      859.384
07/07/2013  09:10:00       12.260       47.018       65.716       28.735       40.005       17.883      825.710     1600.387      319.798        0.471        0.137       48.590       16.347        0.113      346.188       24.257      859.370
07/07/2013  09:11:00        9.728       22.820       51.763       29.807       46.953       29.662      888.433     2204.589      879.830        0.363        0.199       24.807       28.473        1.317      346.620       24.999      859.370
07/07/2013  09:12:00       78.223       84.866       51.267       30.692       19.766       25.229      942.023      390.710      636.489        0.896        0.098      115.417        9.454        0.007      345.591       23.229      859.370
07/07/2013  09:13:00       24.971       -0.863       42.711       32.148       39.164       27.494     1033.472     1533.789      755.905        0.289        0.166       24.986       22.972        0.845      346.296       24.442      859.370
07/07/2013  09:14:00       40.420       -0.406       34.809       38.426       82.675       42.978     1476.548     6835.218     1847.108        0.650        0.508       40.422       35.237        0.760      346.132       24.160      859.376
07/07/2013  09:15:00       84.413       73.848       39.892       35.516       29.120       27.068     1261.409      847.988      732.692        0.851        0.142      112.156       13.923        0.015      346.221       24.312      859.378
07/07/2013  09:16:00       95.162       39.974       25.251       44.304       31.956       32.052     1962.816     1021.188     1027.304        0.765        0.201      103.217       24.813        0.058      345.927       23.809      859.386
07/07/2013  09:17:00       98.072       47.579       23.466       68.642       47.194       36.096     4711.717     2227.293     1302.933        1.034        0.412      109.004       30.273        0.077      346.179       24.241      859.381
07/07/2013  09:18:00       17.354       50.040       51.862       51.403       59.429       39.842     2642.253     3531.796     1587.410        0.663        0.388       52.964       30.061        0.322      346.585       24.939      859.373
07/07/2013  09:19:00       60.442       96.038       80.728       42.406       41.282       46.210     1798.253     1704.227     2135.344        1.251        0.282      113.474       31.173        0.075      345.959       23.863      859.369
07/07/2013  09:20:00       76.900       70.517       29.104       48.001       35.879       35.701     2304.059     1287.295     1274.569        0.830        0.243      104.337        6.517        0.004      346.001       23.935      859.368
07/07/2013  09:21:00       10.684      -71.085        6.713       38.989       66.351       35.395     1520.126     4402.435     1252.834        0.619        0.359       71.884       32.284        0.202      346.168       24.222      859.357
07/07/2013  09:22:00       52.352      -77.127        6.682       33.844       44.823       36.986     1145.397     2009.097     1367.965        0.663        0.226       93.216       28.731        0.095      345.705       23.426      859.357
07/07/2013  09:23:00       48.554       59.937       51.552       56.147       36.330       32.256     3152.526     1319.901     1040.433        0.706        0.276       77.136       25.104        0.106      346.497       24.787      859.359
07/07/2013  09:24:00       47.116       67.395       85.247       53.454       40.188       30.315     2857.288     1615.061      919.005        0.971        0.270       82.231       13.217        0.026      346.304       24.455      859.348
07/07/2013  09:25:00      112.622       83.896       20.031       44.985       26.258       39.228     2023.615      689.464     1538.852        1.219        0.213      140.437       28.096        0.040      345.802       23.593      859.349
07/07/2013  09:26:00       73.391       66.792       20.594       25.311       26.000       28.082      640.645      675.981      788.625        0.619        0.105       99.234       18.452        0.035      346.035       23.993      859.326
07/07/2013  09:27:00       85.834       68.878       24.830       45.705       42.957       38.637     2088.968     1845.329     1492.819        0.908        0.271      110.053       26.346        0.057      346.306       24.458      859.314
07/07/2013  09:28:00       23.224       35.060       26.197       32.473       30.845       24.174     1054.502      951.440      584.366        0.252        0.130       42.055       17.965        0.182      346.742       25.210      859.307
07/07/2013  09:29:00        7.287        8.380       48.738       32.949       36.549       27.595     1085.622     1335.794      761.503        0.284        0.159       11.105       23.204        4.366      346.921       25.517      859.290
07/07/2013  09:30:00       18.777       11.969       65.129       38.218       64.489       42.161     1460.644     4158.838     1777.540        0.607        0.370       22.268       48.942        4.831      346.673       25.090      859.282
07/07/2013  09:31:00       21.171       57.168       66.475       41.063       33.372       24.999     1686.167     1113.721      624.936        0.578        0.171       60.962       24.480        0.161      346.337       24.512      859.280
07/07/2013  09:32:00       32.912       11.102       30.565       31.071       17.497       25.403      965.427      306.146      645.291        0.203        0.096       34.734       16.987        0.239      346.481       24.760      859.266
07/07/2013  09:33:00       20.407        3.614       31.725       31.986       31.201       20.578     1023.093      973.477      423.452        0.193        0.121       20.724       15.825        0.583      346.599       24.961      859.244
07/07/2013  09:34:00       27.193       11.853       48.549       30.371       30.035       22.655      922.417      902.129      513.268        0.279        0.117       29.664        8.830        0.089      346.822       25.345      859.235
07/07/2013  09:35:00       39.043        3.876       28.221       29.887       24.893       24.833      893.248      619.658      616.674        0.223        0.106       39.235       15.998        0.166      346.529       24.842      859.219
07/07/2013  09:36:00       -4.337       23.552       51.404       22.479       40.946       27.549      505.300     1676.588      758.948        0.308        0.147       23.947       21.604        0.814      347.395       26.335      859.198
07/07/2013  09:37:00       10.607       49.715       49.693       34.980       37.338       31.249     1223.626     1394.133      976.471        0.432        0.180       50.834       24.934        0.241      346.909       25.497      859.185
07/07/2013  09:38:00       37.988       53.321       56.536       37.179       52.856       29.943     1382.250     2793.743      896.606        0.628        0.254       65.469       15.658        0.057      346.793       25.296      859.179
07/07/2013  09:39:00       18.525       57.983       60.722       42.756       55.954       39.827     1828.089     3130.795     1586.164        0.697        0.327       60.871       24.258        0.159      346.830       25.363      859.174
07/07/2013  09:40:00       18.392       25.513        2.961       48.079       41.391       22.982     2311.588     1713.178      528.185        0.277        0.228       31.451       17.331        0.304      346.367       24.563      859.167
07/07/2013  09:41:00        5.297      -91.422        0.743       47.227       41.053       36.268     2230.408     1685.387     1315.377        0.681        0.262       91.575       28.217        0.095      346.734       25.194      859.154
07/07/2013  09:42:00        8.423      -30.596       24.862       18.907       43.531       28.792      357.456     1894.974      828.963        0.235        0.154       31.734       29.331        0.854      347.004       25.661      859.160
07/07/2013  09:43:00       17.304       21.539       40.822       39.123       34.510       20.559     1530.646     1190.945      422.666        0.279        0.157       27.629       15.110        0.299      346.741       25.206      859.155
07/07/2013  09:44:00       63.612       52.741       39.648       46.726       35.611       37.804     2183.287     1268.118     1429.125        0.664        0.244       82.632       30.650        0.138      346.716       25.165      859.142
07/07/2013  09:45:00       78.182       46.065       31.957       46.145       44.668       39.282     2129.339     1995.268     1543.060        0.746        0.283       90.744       28.982        0.102      346.961       25.586      859.122
07/07/2013  09:46:00       44.557       37.436       73.782       62.627       47.512       46.786     3922.144     2257.394     2188.975        0.860        0.418       58.196       36.381        0.391      346.970       25.603      859.104
07/07/2013  09:47:00       76.472       83.137       80.835       90.953       52.167       61.158     8272.430     2721.377     3740.292        1.701        0.737      112.959       55.588        0.242      346.813       25.330      859.109
07/07/2013  09:48:00      127.772       73.583       19.400       49.820       41.232       33.463     2482.033     1700.045     1119.752        1.371        0.265      147.445       19.542        0.018      346.383       24.590      859.105
07/07/2013  09:49:00       47.477       40.676       21.797       44.813       42.913       42.914     2008.210     1841.488     1841.637        0.504        0.285       62.519       24.685        0.156      346.848       25.390      859.097
07/07/2013  09:50:00       58.409       -2.399       17.946       49.439       66.884       45.131     2444.182     4473.422     2036.821        0.635        0.448       58.459       47.607        0.663      346.707       25.149      859.093
07/07/2013  09:51:00       12.466      -47.599       17.139       23.582       62.597       38.465      556.098     3918.446     1479.529        0.433        0.298       49.205       40.192        0.667      346.774       25.262      859.086
07/07/2013  09:52:00        7.310      -13.968       40.040       25.000       42.726       28.685      624.979     1825.512      822.831        0.256        0.164       15.765       23.131        2.153      347.423       26.383      859.079
07/07/2013  09:53:00       24.209       14.403       47.000       38.857       33.664       27.929     1509.829     1133.272      780.057        0.321        0.171       28.169       22.538        0.640      347.039       25.720      859.085
07/07/2013  09:54:00       13.133       16.082       34.815       35.409       22.300       36.745     1253.790      497.279     1350.167        0.237        0.155       20.763       21.984        1.121      347.102       25.829      859.076
07/07/2013  09:55:00       10.325       29.869       38.881       24.241       36.981       28.298      587.619     1367.563      800.798        0.263        0.138       31.603       19.837        0.394      347.171       25.947      859.058
07/07/2013  09:56:00       30.635       32.622       23.853       60.762       30.805       40.448     3692.012      948.973     1636.037        0.442        0.314       44.752       26.462        0.350      347.327       26.217      859.056
07/07/2013  09:57:00       83.203       49.933       15.946       40.522       34.266       33.892     1642.066     1174.129     1148.644        0.682        0.198       97.036       21.722        0.050      346.969       25.598      859.057
07/07/2013  09:58:00       37.953       65.518       14.043       60.134       36.840       33.681     3616.044     1357.189     1134.421        0.602        0.305       75.716       29.679        0.154      347.210       26.014      859.050
07/07/2013  09:59:00       35.138       42.265       23.317       31.858       30.461       36.749     1014.931      927.847     1350.471        0.343        0.165       54.964       26.636        0.235      347.362       26.277      859.048
07/07/2013  10:00:00       14.022       69.246       14.090       30.446       56.673       34.076      926.978     3211.776     1161.205        0.524        0.265       70.652       37.281        0.278      347.661       26.793      859.044
07/07/2013  10:01:00       63.569       44.997       17.766       56.903       28.979       34.126     3237.974      839.792     1164.584        0.581        0.262       77.883       21.139        0.074      347.080       25.789      859.047
07/07/2013  10:02:00        0.197       39.487       19.857       22.023       39.326       23.130      485.012     1546.507      535.005        0.226        0.128       39.487       21.692        0.302      347.624       26.729      859.051
07/07/2013  10:03:00       26.236       51.475        6.776       29.304       45.230       26.558      858.715     2045.772      705.314        0.350        0.180       57.776       19.893        0.119      347.232       26.052      859.056
07/07/2013  10:04:00       33.822       -2.610       20.174       31.227       34.980       27.489      975.139     1223.580      755.651        0.226        0.148       33.923       17.797        0.275      347.629       26.737      859.051
07/07/2013  10:05:00       42.691       63.781       90.720       56.150       51.404       36.351     3152.814     2642.335     1321.379        1.062        0.356       76.750       33.085        0.186      347.303       26.175      859.055
07/07/2013  10:06:00       61.636       47.463       65.998       52.101       47.139       34.662     2714.486     2222.114     1201.454        0.827        0.307       77.793       33.277        0.183      346.885       25.455      859.052
07/07/2013  10:07:00       15.830       63.782       82.217       44.975       53.995       36.579     2022.739     2915.511     1337.989        0.868        0.314       65.717       35.353        0.289      347.041       25.722      859.052
07/07/2013  10:08:00       49.757       35.703       63.734       54.561       49.103       37.097     2976.918     2411.113     1376.217        0.729        0.338       61.240       33.998        0.308      347.087       25.805      859.051
07/07/2013  10:09:00       10.130      -33.352        2.403       19.112       25.765       21.941      365.285      663.842      481.407        0.137        0.076       34.857       15.314        0.193      346.945       25.557      859.055
07/07/2013  10:10:00       13.856      -14.117       -3.303       31.016       40.904       26.343      961.969     1673.121      693.950        0.186        0.166       19.780       23.431        1.403      347.306       26.182      859.046
07/07/2013  10:11:00       34.257       16.624       37.352       45.134       29.745       22.720     2037.071      884.778      516.221        0.314        0.172       38.077       18.726        0.242      348.011       27.398      859.030
07/07/2013  10:12:00       34.036       45.489       12.547       60.918       46.112       39.720     3711.036     2126.344     1577.655        0.540        0.371       56.813       18.875        0.110      347.438       26.408      859.024
07/07/2013  10:13:00       44.025       42.736       21.140       60.050       41.733       39.260     3606.032     1741.667     1541.332        0.555        0.344       61.356       22.355        0.133      347.825       27.075      859.018
07/07/2013  10:14:00        1.469       66.795       13.319       47.826       65.047       33.928     2287.349     4231.060     1151.125        0.615        0.383       66.812       27.333        0.167      347.582       26.655      859.022
07/07/2013  10:15:00      -35.952      -11.097      -16.096       29.519       37.910       25.178      871.392     1437.187      633.910        0.231        0.147       37.625       29.503        0.615      346.931       25.533      859.029
07/07/2013  10:16:00      -15.258      -51.957       -0.742       23.352       32.506       25.617      545.326     1056.640      656.225        0.260        0.113       54.151       20.293        0.140      347.062       25.760      859.035
07/07/2013  10:17:00       -1.139       27.108       55.569       28.967       47.379       22.686      839.106     2244.770      514.635        0.371        0.180       27.132       22.047        0.660      347.684       26.831      859.038
07/07/2013  10:18:00       44.593       35.129       58.086       53.316       42.343       38.825     2842.565     1792.925     1507.416        0.637        0.307       56.768       31.257        0.303      347.420       26.377      859.051
07/07/2013  10:19:00       45.230      -12.293       24.849       46.518       42.283       33.435     2163.888     1787.832     1117.876        0.394        0.253       46.871       31.720        0.458      347.233       26.056      859.059
07/07/2013  10:20:00       77.249       53.345       44.055       57.003       44.141       38.173     3249.338     1948.471     1457.204        0.870        0.333       93.878       28.282        0.091      347.254       26.090      859.052
07/07/2013  10:21:00      123.756      107.844       89.559       74.496       71.007       56.668     5549.584     5041.963     3211.228        2.438        0.690      164.152       42.757        0.068      347.149       25.908      859.044
07/07/2013  10:22:00       63.882       60.367       70.065       72.568       61.833       48.655     5266.055     3823.333     2367.278        1.204        0.573       87.893       47.168        0.288      347.320       26.204      859.044
07/07/2013  10:23:00       56.958       43.187       48.182       58.558       39.594       46.547     3429.071     1567.708     2166.602        0.730        0.358       71.480       31.323        0.192      347.192       25.984      859.048
07/07/2013  10:24:00      141.974       87.787       41.294       60.972       46.968       51.246     3717.583     2205.964     2626.103        1.906        0.427      166.923       46.177        0.077      347.177       25.955      859.046
07/07/2013  10:25:00       60.853       32.230       -0.617       83.406       35.155       35.294     6956.569     1235.887     1245.686        0.709        0.472       68.861       19.065        0.077      347.103       25.830      859.048
07/07/2013  10:26:00        2.652      -41.536       24.998       20.613       38.898       17.902      424.911     1513.037      320.480        0.231        0.113       41.620       12.721        0.093      347.337       26.233      859.044
07/07/2013  10:27:00        5.911       19.312       38.395       26.735       44.656       24.978      714.786     1994.125      623.878        0.261        0.167       20.196       18.987        0.884      347.373       26.297      859.046
07/07/2013  10:28:00       44.137       47.775       42.928       39.792       30.363       28.513     1583.404      921.890      812.974        0.470        0.166       65.043       20.222        0.097      347.370       26.291      859.041
07/07/2013  10:29:00       40.367       40.250       52.725       40.559       44.878       33.595     1645.035     2014.061     1128.616        0.541        0.239       57.005       19.495        0.117      347.503       26.519      859.038
07/07/2013  10:30:00       52.520       47.497       59.365       61.520       48.237       49.316     3784.668     2326.802     2432.116        0.854        0.427       70.811       40.622        0.329      347.618       26.718      859.032
07/07/2013  10:31:00      100.471       69.779       59.885       58.572       44.363       47.881     3430.708     1968.043     2292.557        1.312        0.385      122.326       41.626        0.116      347.113       25.846      859.037
07/07/2013  10:32:00       43.421       22.773       49.798       37.364       53.340       31.529     1396.079     2845.187      994.071        0.506        0.262       49.030       33.845        0.476      347.474       26.469      859.039
07/07/2013  10:33:00       38.328       25.828       46.719       28.375       35.931       22.751      805.142     1291.060      517.625        0.347        0.131       46.218       13.077        0.080      347.645       26.765      859.040
07/07/2013  10:34:00        5.739       39.205       42.017       25.057       42.270       29.640      627.878     1786.728      878.501        0.331        0.165       39.623       11.242        0.081      347.602       26.692      859.031
07/07/2013  10:35:00       77.228       66.492       23.053       27.475       21.909       32.227      754.875      479.995     1038.560        0.659        0.114      101.909       12.309        0.015      347.130       25.875      859.036
07/07/2013  10:36:00        8.801       47.087        4.868       42.444       33.440       23.868     1801.512     1118.266      569.694        0.290        0.174       47.903       15.679        0.107      347.614       26.710      859.044
07/07/2013  10:37:00        3.198       13.987       39.944       18.032       25.531       17.957      325.161      651.819      322.441        0.155        0.065       14.348       11.943        0.693      348.519       28.276      859.040
07/07/2013  10:38:00        1.462      -64.925       13.996       27.659       37.142       26.173      765.015     1379.497      685.020        0.362        0.141       64.941       16.380        0.064      347.365       26.282      859.046
07/07/2013  10:39:00      -14.901       72.093       -5.550       31.669       52.241       27.916     1002.942     2729.082      779.283        0.498        0.226       73.617       18.569        0.064      347.675       26.817      859.053
07/07/2013  10:40:00        9.975       20.062       30.078       25.534       26.399       21.718      651.984      696.930      471.670        0.161        0.091       22.406       10.507        0.220      348.019       27.411      859.061
07/07/2013  10:41:00      -21.863       37.604       15.643       29.187       47.212       24.153      851.857     2229.005      583.364        0.290        0.183       43.497       25.311        0.339      348.508       28.256      859.064
07/07/2013  10:42:00      -66.158       57.942        6.826       32.276       25.384       29.436     1041.757      644.351      866.457        0.517        0.128       87.944       19.549        0.049      347.910       27.222      859.064
07/07/2013  10:43:00       -8.115       16.735       31.244       32.276       36.272       25.528     1041.759     1315.686      651.672        0.216        0.150       18.598       25.668        1.905      348.346       27.974      859.061
07/07/2013  10:44:00       15.477       11.206       11.153       51.150       37.743       28.586     2616.313     1424.559      817.168        0.267        0.243       19.108       26.374        1.905      347.781       26.999      859.055
07/07/2013  10:45:00      -36.239       -8.233        3.711       33.571       16.617       16.633     1127.017      276.134      276.667        0.154        0.084       37.163       16.547        0.198      347.779       26.995      859.045
07/07/2013  10:46:00      -10.537       18.794        1.965       34.283       18.823       20.868     1175.346      354.307      435.473        0.122        0.098       21.547       17.642        0.670      348.152       27.640      859.035
07/07/2013  10:47:00      -22.725       -5.476        7.131       44.631       31.914       21.701     1991.960     1018.491      470.943        0.204        0.174       23.375       18.620        0.635      348.130       27.601      859.027
07/07/2013  10:48:00      -32.129      -47.099        5.748       42.864       32.056       21.367     1837.295     1027.582      456.564        0.330        0.166       57.014       21.956        0.148      347.952       27.295      859.024
07/07/2013  10:49:00      -48.129      -28.502        7.854       44.648       37.744       25.333     1993.440     1424.589      641.783        0.362        0.203       55.936       26.638        0.227      348.081       27.517      859.012
07/07/2013  10:50:00      -71.767     -126.074        1.421       59.316       60.476       39.948     3518.392     3657.364     1595.822        1.491        0.439      145.070       39.078        0.073      347.653       26.778      859.000
07/07/2013  10:51:00      -73.840     -131.684      -16.071       34.062       33.509       22.635     1160.223     1122.885      512.346        1.292        0.140      150.973       15.099        0.010      347.345       26.248      859.003
07/07/2013  10:52:00      -79.138      -17.524      -15.571       35.336       40.614       28.112     1248.665     1649.517      790.269        0.525        0.184       81.055       19.356        0.057      347.511       26.534      858.992
07/07/2013  10:53:00      -19.792      -51.984        9.131       46.964       36.926       26.528     2205.663     1363.534      703.709        0.372        0.214       55.625       19.417        0.122      347.950       27.292      858.993
07/07/2013  10:54:00      -28.611       -2.990       30.011       35.292       37.958       22.653     1245.535     1440.818      513.160        0.246        0.160       28.767       22.692        0.622      348.262       27.830      858.998
07/07/2013  10:55:00       10.662      -37.759      -14.320       45.796       53.521       29.843     2097.257     2864.496      890.618        0.380        0.293       39.235       25.337        0.417      348.068       27.494      858.997
07/07/2013  10:56:00       -6.418      -44.980       -0.812       35.574       47.871       28.521     1265.537     2291.608      813.470        0.322        0.219       45.436        9.567        0.044      347.993       27.365      858.994
07/07/2013  10:57:00        3.004       10.925        6.704       45.176       25.391       39.626     2040.865      644.721     1570.183        0.221        0.213       11.331       17.429        2.366      348.433       28.126      858.984
07/07/2013  10:58:00      -50.666       23.291       10.014       39.901       28.761       30.875     1592.076      827.183      953.245        0.329        0.169       55.763       27.437        0.242      348.148       27.633      858.985
07/07/2013  10:59:00      -41.757       -4.423       22.845       37.356       34.272       35.584     1395.493     1174.540     1266.203        0.306        0.192       41.991       29.459        0.492      348.539       28.309      858.979
07/07/2013  11:00:00       19.542       39.618       65.406       41.367       49.483       24.168     1711.217     2448.579      584.073        0.549        0.237       44.175       22.257        0.254      348.247       27.805      858.976
07/07/2013  11:01:00       19.563       -7.746       39.411       35.766       46.960       42.078     1279.188     2205.207     1770.588        0.362        0.263       21.041       36.383        2.990      348.388       28.048      858.970
07/07/2013  11:02:00      -36.375      -36.034        2.155       50.762       39.426       29.651     2576.760     1554.419      879.179        0.382        0.251       51.202       22.548        0.194      348.305       27.906      858.972
07/07/2013  11:03:00     -123.464     -108.071        5.705       90.910       74.595       43.150     8264.584     5564.429     1861.934        2.132        0.785      164.082       47.883        0.085      347.952       27.292      858.959
07/07/2013  11:04:00     -155.553      -66.446      -13.756       58.962       45.634       23.133     3476.568     2082.427      535.130        1.745        0.305      169.150       24.810        0.022      347.729       26.908      858.970
07/07/2013  11:05:00      -93.017       -6.156      -11.929       47.065       40.908       25.517     2215.098     1673.431      651.115        0.669        0.227       93.221       16.095        0.030      347.727       26.907      858.978
07/07/2013  11:06:00      -59.569       -1.884       -1.027       39.575       21.264       27.003     1566.146      452.165      729.173        0.315        0.137       59.599       20.007        0.113      347.841       27.101      858.984
07/07/2013  11:07:00     -121.654      -50.111      -13.962       24.556       20.034       17.731      603.006      401.348      314.380        0.941        0.066      131.571       14.357        0.012      347.618       26.717      858.982
07/07/2013  11:08:00      -99.231      -49.810       -1.874       40.581       23.301       16.853     1646.790      542.959      284.012        0.740        0.124      111.031       20.255        0.033      347.828       27.081      858.988
07/07/2013  11:09:00      -28.595      -36.473        4.635       57.882       24.368       31.735     3350.302      593.782     1007.108        0.356        0.248       46.346       36.495        0.620      347.936       27.268      858.987
07/07/2013  11:10:00        5.090       -0.973       37.823       18.923       29.668       21.653      358.091      880.210      468.855        0.158        0.085        5.182        7.022        1.836      348.873       28.886      858.977
07/07/2013  11:11:00       -3.099       51.666       36.152       21.988       50.743       27.349      483.493     2574.817      747.942        0.390        0.190       51.759       14.000        0.073      348.826       28.807      858.967
07/07/2013  11:12:00        9.986      -15.127        6.302       36.648       44.183       37.555     1343.040     1952.171     1410.406        0.254        0.235       18.125       31.358        2.993      348.036       27.441      858.963
07/07/2013  11:13:00       52.389      107.388       19.539       29.985       43.708       38.817      899.126     1910.352     1506.741        0.949        0.216      119.486       28.997        0.059      348.130       27.600      858.944
07/07/2013  11:14:00       99.833       73.741        7.808       47.190       33.584       36.741     2226.910     1127.914     1349.936        1.008        0.235      124.114       23.479        0.036      348.357       27.993      858.925
07/07/2013  11:15:00       93.793       75.492       18.302       61.313       36.846       46.612     3759.292     1357.622     2172.703        1.106        0.364      120.399       38.291        0.101      348.451       28.157      858.920
07/07/2013  11:16:00       62.234       60.420       13.317       39.592       38.542       50.232     1567.491     1485.499     2523.228        0.664        0.279       86.739       20.308        0.055      348.532       28.297      858.916
07/07/2013  11:17:00       88.568       49.711       14.509       36.576       29.049       33.593     1337.799      843.855     1128.519        0.692        0.166      101.565       15.623        0.024      348.266       27.836      858.901
07/07/2013  11:18:00       39.502       60.936        1.474       38.175       25.380       30.351     1457.322      644.155      921.208        0.415        0.151       72.619       20.515        0.080      348.328       27.944      858.892
07/07/2013  11:19:00      -28.865       14.429       13.169       42.324       38.891       24.417     1791.325     1512.479      596.171        0.256        0.195       32.271       26.061        0.652      349.046       29.187      858.891
07/07/2013  11:20:00     -176.908      -41.686       -5.858       43.775       67.674       26.035     1916.235     4579.800      677.841        2.012        0.359      181.754       20.911        0.013      348.016       27.402      858.870
07/07/2013  11:21:00     -134.775       45.752        0.117       49.478       40.963       25.011     2448.074     1677.994      625.557        1.250        0.238      142.329       24.489        0.030      348.088       27.528      858.856
07/07/2013  11:22:00     -104.238       29.000        8.354       90.155       43.367       37.057     8127.868     1880.714     1373.232        1.158        0.569      108.196       43.730        0.163      348.554       28.333      858.833
07/07/2013  11:23:00      -66.738       11.022       -0.873       80.545       57.235       30.758     6487.521     3275.841      946.073        0.764        0.535       67.642       34.175        0.255      348.311       27.914      858.834
07/07/2013  11:24:00      -75.999       -9.132       -4.178       52.568       37.595       28.250     2763.389     1413.381      798.082        0.542        0.249       76.546       28.501        0.139      348.235       27.784      858.823
07/07/2013  11:25:00       -6.512       32.770       35.653       27.181       30.095       31.204      738.824      905.724      973.691        0.250        0.131       33.411       12.862        0.148      349.260       29.558      858.807
07/07/2013  11:26:00       50.329       27.567       26.034       60.357       30.749       33.940     3642.913      945.528     1151.921        0.485        0.287       57.384       33.673        0.344      348.877       28.894      858.807
07/07/2013  11:27:00       21.034       -2.773       23.495       24.147       26.372       24.957      583.082      695.460      622.838        0.145        0.095       21.216       20.060        0.894      348.661       28.521      858.802
07/07/2013  11:28:00       24.787       19.531       39.268       28.475       39.398       30.495      810.851     1552.219      929.932        0.291        0.165       31.557       21.790        0.477      348.579       28.378      858.795
07/07/2013  11:29:00       78.717      -20.427       35.044       82.255       66.091       38.927     6765.822     4368.084     1515.307        1.024        0.632       81.324       42.691        0.276      348.372       28.020      858.794
07/07/2013  11:30:00       41.049      -50.076       32.169       65.378       79.950       40.118     4274.305     6392.041     1609.488        0.875        0.614       64.750       49.445        0.583      348.997       29.102      858.777
07/07/2013  11:31:00      108.326      -29.645       37.195       78.731      103.072       47.044     6198.605    10623.739     2213.162        1.651        0.952      112.309       57.057        0.258      348.460       28.172      858.766
07/07/2013  11:32:00       69.761       -7.641       13.453       55.055       42.788       35.662     3031.045     1830.801     1271.761        0.562        0.307       70.178       22.171        0.100      348.342       27.968      858.758
07/07/2013  11:33:00       49.702       -7.016       30.785       57.353       72.379       43.902     3289.330     5238.752     1927.352        0.696        0.523       50.195       37.694        0.564      348.634       28.474      858.731
07/07/2013  11:34:00       83.837       55.602       28.432       55.693       28.379       44.248     3101.734      805.359     1957.871        0.840        0.293      100.600       35.258        0.123      348.708       28.600      858.732
07/07/2013  11:35:00       11.435       17.884       58.997       37.637       43.707       35.409     1416.534     1910.274     1253.809        0.426        0.229       21.227       31.170        2.156      349.200       29.455      858.714
07/07/2013  11:36:00       18.146        4.078       47.223       29.024       45.677       30.610      842.396     2086.416      936.971        0.322        0.193       18.599       27.292        2.153      349.092       29.266      858.703
07/07/2013  11:37:00       37.038      -69.670       11.690       35.331       55.918       32.421     1248.295     3126.812     1051.107        0.589        0.271       78.903       23.924        0.092      348.593       28.403      858.688
07/07/2013  11:38:00       -6.132       39.157       75.126       35.474       61.076       59.582     1258.377     3730.244     3550.048        0.788        0.427       39.635       50.132        1.600      349.062       29.215      858.679
07/07/2013  11:39:00      119.686      130.851      110.042       88.791       55.910       50.353     7883.792     3125.900     2535.394        2.855        0.677      177.332       48.516        0.075      348.254       27.814      858.687
07/07/2013  11:40:00      165.496      104.119       32.657       83.129       65.966       50.081     6910.376     4351.455     2508.127        2.653        0.688      195.524       33.583        0.030      348.182       27.686      858.697
07/07/2013  11:41:00       15.058       25.669       42.122       49.176       48.527       54.417     2418.289     2354.862     2961.190        0.520        0.387       29.760       40.847        1.884      348.940       29.002      858.704
07/07/2013  11:42:00        9.429       10.129       -0.870       40.759       51.435       34.561     1661.328     2645.525     1194.470        0.285        0.275       13.838       18.117        1.714      348.888       28.913      858.699
07/07/2013  11:43:00        1.567      -33.036       -4.379       59.968       65.041       44.574     3596.166     4230.274     1986.831        0.546        0.491       33.073       34.638        1.097      348.599       28.413      858.691
07/07/2013  11:44:00      -96.016      -13.792       -9.377       58.500       44.334       40.717     3422.245     1965.539     1657.875        0.827        0.352       97.001       18.532        0.036      348.648       28.498      858.698
07/07/2013  11:45:00       -9.713       -6.259        2.572       42.977       68.721       38.529     1846.983     4722.514     1484.455        0.410        0.403       11.555       13.071        1.280      348.888       28.914      858.686
07/07/2013  11:46:00       20.773        8.367       61.796       42.695       94.545       87.610     1822.876     8938.794     7675.459        1.138        0.922       22.395       82.713       13.641      349.088       29.259      858.658
07/07/2013  11:47:00       14.963        5.656       50.510       44.772       60.676       39.432     2004.492     3681.543     1554.918        0.502        0.362       15.996       19.091        1.424      348.817       28.791      858.649
07/07/2013  11:48:00      -20.893       68.337       34.555       33.451       34.946       45.076     1118.970     1221.239     2031.884        0.534        0.219       71.459       20.697        0.084      348.819       28.792      858.657
07/07/2013  11:49:00        9.791       78.886       -4.542       34.673       42.876       40.847     1202.209     1838.340     1668.487        0.552        0.235       79.491       32.115        0.163      348.917       28.963      858.644
07/07/2013  11:50:00        8.301        9.398       40.997       36.883       32.280       23.161     1360.339     1042.007      536.414        0.239        0.147       12.540       18.437        2.162      349.738       30.388      858.647
07/07/2013  11:51:00       44.518       35.367       22.107       29.285       18.981       22.181      857.609      360.282      491.989        0.272        0.085       56.856        7.805        0.019      349.297       29.621      858.645
07/07/2013  11:52:00       15.051       21.109       17.276       26.274       16.723       21.778      690.304      279.655      474.266        0.121        0.072       25.925       16.353        0.398      349.649       30.234      858.647
07/07/2013  11:53:00        2.215       29.167       23.260       30.371       25.484       22.782      922.403      649.447      519.008        0.174        0.105       29.250       21.114        0.521      349.979       30.806      858.637
07/07/2013  11:54:00       11.882       41.563       35.905       22.301       34.821       25.420      497.319     1212.480      646.186        0.276        0.118       43.228       19.086        0.195      349.918       30.699      858.633
07/07/2013  11:55:00       25.259      -32.666       21.005       51.609       60.738       41.960     2663.472     3689.129     1760.661        0.513        0.406       41.292       25.652        0.386      349.522       30.013      858.621
07/07/2013  11:56:00       68.375      -86.716        4.829       74.248       75.627       57.261     5512.726     5719.411     3278.872        1.336        0.726      110.430       48.968        0.197      349.437       29.864      858.598
07/07/2013  11:57:00       27.404       -4.172       56.137       53.725       54.108       43.953     2886.371     2927.713     1931.887        0.583        0.387       27.719       12.292        0.197      349.433       29.857      858.593
07/07/2013  11:58:00        1.014       31.556       55.715       20.782       31.845       24.145      431.879     1014.124      582.983        0.306        0.101       31.572       21.834        0.478      349.419       29.833      858.588
07/07/2013  11:59:00       31.151       11.986       21.340       42.150       31.200       29.353     1776.631      973.452      861.593        0.259        0.181       33.377       21.322        0.408      349.092       29.267      858.582
07/07/2013  12:00:00        6.035      -30.346       -2.797       24.386       27.464       20.886      594.673      754.271      436.223        0.137        0.089       30.940       13.205        0.182      349.144       29.356      858.564
07/07/2013  12:01:00       14.837      -18.061       32.682       27.152       41.637       29.608      737.248     1733.634      876.614        0.248        0.167       23.374       26.825        1.317      349.499       29.972      858.570
07/07/2013  12:02:00      -11.350       -0.329       35.007       23.628       34.490       33.117      558.268     1189.547     1096.704        0.210        0.142       11.355       28.013        6.086      349.992       30.829      858.575
07/07/2013  12:03:00       11.692       42.498       31.429       43.693       41.819       28.108     1909.092     1748.825      790.077        0.369        0.222       44.077       19.861        0.203      349.562       30.082      858.577
07/07/2013  12:04:00       19.373       31.838       20.338       38.654       41.105       33.417     1494.164     1689.655     1116.702        0.305        0.215       37.268       28.241        0.574      349.913       30.690      858.572
07/07/2013  12:05:00        4.983       57.904        7.924       33.309       72.103       37.391     1109.479     5198.825     1398.056        0.557        0.385       58.118       41.992        0.522      349.714       30.346      858.578
07/07/2013  12:06:00        0.163      111.435        1.843       30.523       53.726       31.764      931.662     2886.517     1008.983        0.862        0.241      111.435       27.466        0.061      349.244       29.531      858.580
07/07/2013  12:07:00        0.138       96.971       -1.632       36.599       60.144       30.640     1339.466     3617.304      938.825        0.765        0.295       96.971       29.221        0.091      349.188       29.433      858.579
07/07/2013  12:08:00       82.651       72.339       38.603       41.954       32.104       42.165     1760.166     1030.669     1777.919        0.906        0.228      109.837       21.343        0.038      349.017       29.138      858.565
07/07/2013  12:09:00      117.964       91.940       39.421       37.133       33.973       44.770     1378.874     1154.142     2004.330        1.423        0.227      149.561       15.586        0.011      348.698       28.586      858.552
07/07/2013  12:10:00       11.649       27.976       48.133       34.970       41.400       28.362     1222.903     1713.990      804.399        0.349        0.187       30.305       27.209        0.806      349.423       29.842      858.538
07/07/2013  12:11:00       28.156      -70.770       -3.545       73.572       86.046       47.700     5412.895     7403.971     2275.277        1.045        0.755       76.165       49.427        0.421      349.377       29.761      858.536
07/07/2013  12:12:00       52.810     -100.808      -14.037       44.735       49.457       27.451     2001.250     2445.987      753.541        0.917        0.260      113.803       12.431        0.012      348.972       29.058      858.552
07/07/2013  12:13:00       55.784      -76.627       -4.751       93.290      103.764       62.583     8702.987    10766.867     3916.594        1.619        1.169       94.782       78.725        0.690      349.249       29.538      858.551
07/07/2013  12:14:00       71.067      -69.039      -18.078       63.311       87.554       65.120     4008.307     7665.698     4240.561        1.303        0.796       99.080       51.844        0.274      349.253       29.545      858.545
07/07/2013  12:15:00       44.199       13.204       52.932       61.776       87.016       69.405     3816.255     7571.869     4816.998        1.056        0.810       46.129       63.313        1.884      349.431       29.854      858.535
07/07/2013  12:16:00       88.124     -141.833      -23.922       57.183       60.521       44.381     3269.937     3662.777     1969.671        1.868        0.445      166.981       31.755        0.036      349.007       29.118      858.532
07/07/2013  12:17:00       51.864      -95.814       -0.723       86.855       89.135       61.591     7543.865     7945.036     3793.447        1.557        0.964      108.950       53.691        0.243      349.436       29.862      858.521
07/07/2013  12:18:00       35.405      -48.860       52.894       84.077       61.556       62.107     7068.893     3789.109     3857.266        1.057        0.736       60.339       49.344        0.669      349.569       30.094      858.505
07/07/2013  12:19:00       12.743       43.270       71.153       44.010       53.956       46.154     1936.841     2911.245     2130.225        0.704        0.349       45.108       30.166        0.447      349.840       30.564      858.502
07/07/2013  12:20:00       30.893      -37.337        1.803       60.650       83.247       54.064     3678.483     6929.999     2922.908        0.794        0.677       48.461       54.776        1.278      349.446       29.879      858.492
07/07/2013  12:21:00       62.058        6.824       72.447       67.900       68.522       63.555     4610.385     4695.235     4039.223        1.124        0.667       62.432       46.672        0.559      349.717       30.349      858.475
07/07/2013  12:22:00       -7.793       13.385       95.337       56.887      107.323       52.797     3236.126    11518.322     2787.526        1.343        0.877       15.488       58.864       14.444      349.701       30.323      858.469
07/07/2013  12:23:00       42.675       27.123       56.904       62.079       65.417       48.371     3853.798     4279.437     2339.729        0.813        0.524       50.564       31.704        0.393      349.353       29.720      858.489
07/07/2013  12:24:00      100.028       81.077       40.278       53.503       39.097       33.947     2862.599     1528.537     1152.390        1.187        0.277      128.760       11.353        0.008      349.163       29.391      858.500
07/07/2013  12:25:00       68.770       27.117       -9.737       66.063       35.237       23.439     4364.316     1241.676      549.385        0.586        0.308       73.923       27.896        0.142      348.951       29.020      858.483
07/07/2013  12:26:00        9.286       17.693       22.288       38.523       61.658       31.429     1484.030     3801.716      987.774        0.358        0.314       19.982       22.379        1.254      349.261       29.560      858.466
07/07/2013  12:27:00      -16.055       61.478       13.750       33.543       59.579       33.831     1125.102     3549.673     1144.510        0.502        0.291       63.540       32.539        0.262      349.808       30.510      858.454
07/07/2013  12:28:00       11.348       13.458       35.123       29.439       21.644       25.887      866.627      468.477      670.127        0.177        0.100       17.604       20.238        1.322      350.321       31.399      858.444
07/07/2013  12:29:00       34.120       21.127       41.039       50.094       28.218       21.963     2509.380      796.250      482.373        0.354        0.189       40.131       15.709        0.153      349.940       30.738      858.441
07/07/2013  12:30:00      103.612       53.931       14.853       42.188       41.532       33.840     1779.869     1724.922     1145.135        0.926        0.232      116.808       20.392        0.030      349.209       29.469      858.427
07/07/2013  12:31:00       95.574       82.829       12.894       61.478       50.016       45.356     3779.547     2501.625     2057.145        1.225        0.417      126.471       31.754        0.063      349.290       29.609      858.401
07/07/2013  12:32:00      137.265      101.497        8.348       70.615       51.539       41.896     4986.424     2656.264     1755.262        1.930        0.470      170.714       34.391        0.041      349.373       29.752      858.393
07/07/2013  12:33:00       47.177       64.987       15.640       68.534       49.160       36.649     4696.976     2416.719     1343.140        0.757        0.423       80.306       34.331        0.183      349.650       30.233      858.376
07/07/2013  12:34:00      131.391       90.182       45.475       72.007       53.080       55.310     5185.028     2817.465     3059.144        1.926        0.553      159.363       34.398        0.047      349.378       29.762      858.363
07/07/2013  12:35:00      135.946      112.032       23.925       82.049       51.205       56.207     6732.078     2621.903     3159.187        2.206        0.626      176.160       41.134        0.055      349.061       29.209      858.371
07/07/2013  12:36:00       75.948       62.774        5.793       67.573       45.143       38.496     4566.100     2037.861     1481.965        0.891        0.404       98.533       23.794        0.058      349.426       29.845      858.353
07/07/2013  12:37:00      106.532       84.197       24.044       46.092       35.726       36.009     2124.428     1276.312     1296.629        1.186        0.235      135.787       26.094        0.037      349.587       30.125      858.355
07/07/2013  12:38:00       60.562       33.614       53.248       38.268       53.670       33.449     1464.441     2880.521     1118.813        0.655        0.273       69.266       14.911        0.046      349.455       29.896      858.350
07/07/2013  12:39:00        4.860      -25.074        9.532       17.696       22.226       27.915      313.157      494.015      779.236        0.116        0.079       25.541       20.000        0.613      349.493       29.963      858.334
07/07/2013  12:40:00       33.124       -9.152       15.474       35.588       32.768       28.674     1266.525     1073.711      822.215        0.229        0.158       34.365       25.640        0.557      349.309       29.644      858.313
07/07/2013  12:41:00       22.391        6.462       30.521       24.465       31.651       30.800      598.514     1001.785      948.619        0.201        0.127       23.305       27.561        1.399      349.359       29.728      858.291
07/07/2013  12:42:00       21.818      -68.430       -0.768       41.586       55.109       29.778     1729.419     3037.007      886.753        0.541        0.283       71.824       18.661        0.068      348.769       28.709      858.263
07/07/2013  12:43:00        5.389      -54.821        7.325       28.391       29.515       24.899      806.059      871.127      619.972        0.269        0.115       55.086       13.977        0.064      349.323       29.667      858.246
07/07/2013  12:44:00       23.308       33.840       44.724       48.229       37.955       30.897     2326.028     1440.609      954.635        0.420        0.236       41.090       23.167        0.318      349.755       30.416      858.222
07/07/2013  12:45:00      113.617       55.550       36.149      108.102       62.283       53.232    11686.045     3879.206     2833.632        1.785        0.920      126.470       51.929        0.169      349.478       29.935      858.212
07/07/2013  12:46:00       59.812       65.443       81.173       68.719       50.085       32.552     4722.268     2508.528     1059.618        1.137        0.415       88.658       23.630        0.071      349.455       29.895      858.201
07/07/2013  12:47:00       46.554       78.720       98.690       50.840       52.602       31.571     2584.719     2766.988      996.710        1.222        0.317       91.456       16.138        0.031      349.385       29.773      858.202
07/07/2013  12:48:00       93.954       62.751       43.392       64.548       54.682       45.111     4166.401     2990.082     2035.037        1.192        0.460      112.983       38.220        0.114      349.209       29.470      858.195
07/07/2013  12:49:00       41.163       79.183       59.666       43.861       45.649       52.137     1923.767     2083.853     2718.317        0.912        0.336       89.243       34.418        0.149      349.505       29.983      858.179
07/07/2013  12:50:00       87.006       79.698       45.295       46.129       38.928       35.393     2127.918     1515.365     1252.667        1.043        0.245      117.990       17.239        0.021      349.596       30.140      858.173
07/07/2013  12:51:00       58.264       56.815       30.891       37.258       38.171       27.258     1388.150     1457.025      743.006        0.558        0.179       81.379        9.951        0.015      349.838       30.559      858.151
07/07/2013  12:52:00       -6.158        7.798       30.844       25.753       27.497       19.693      663.214      756.059      387.821        0.143        0.090        9.936       21.407        4.642      350.367       31.480      858.135
07/07/2013  12:53:00        6.430      -53.440       19.148       28.492       76.744       42.633      811.795     5889.642     1817.533        0.589        0.426       53.825       50.844        0.892      349.549       30.059      858.109
07/07/2013  12:54:00       37.158      -95.398        9.302       52.479       62.043       40.921     2754.008     3849.365     1674.536        0.942        0.414      102.379       23.821        0.054      349.376       29.758      858.087
07/07/2013  12:55:00       66.761        1.635       91.676       80.768       89.816       59.780     6523.509     8066.881     3573.653        1.551        0.908       66.781       59.286        0.788      349.765       30.432      858.053
07/07/2013  12:56:00      142.410      103.323       55.186       78.289       59.455       51.517     6129.095     3534.900     2653.953        2.316        0.616      175.944       32.694        0.035      349.599       30.143      858.046
07/07/2013  12:57:00       57.425      -11.900       16.579       57.554       71.581       46.011     3312.520     5123.862     2117.021        0.713        0.528       58.645       30.768        0.275      349.871       30.618      858.037
07/07/2013  12:58:00      109.701      -92.688        9.772       68.711       70.464       48.858     4721.194     4965.180     2387.122        1.639        0.604      143.616       51.769        0.130      349.608       30.161      858.045
07/07/2013  12:59:00       51.912       28.998       31.644       46.165       65.134       44.088     2131.210     4242.414     1943.733        0.643        0.416       59.462       41.442        0.486      349.355       29.722      858.035
07/07/2013  13:00:00       70.543     -153.466      -11.322       46.968       53.183       33.752     2205.977     2828.425     1139.202        1.741        0.309      168.903       30.893        0.033      349.536       30.036      858.013
07/07/2013  13:01:00       31.313      -74.344        0.760       70.158       71.572       39.867     4922.153     5122.582     1589.395        0.907        0.582       80.669       44.641        0.306      349.890       30.650      858.008
07/07/2013  13:02:00      -69.954      -79.087       -3.036       44.719       42.111       24.451     1999.784     1773.374      597.847        0.776        0.219      105.586       10.908        0.011      349.573       30.100      857.999
07/07/2013  13:03:00     -100.549      -86.858       -1.299       44.361       43.710       31.659     1967.935     1910.532     1002.313        1.127        0.244      132.870       28.237        0.045      349.749       30.406      857.973
07/07/2013  13:04:00      -50.984      -32.000       23.082       46.731       51.308       33.876     2183.749     2632.550     1147.603        0.506        0.298       60.195       30.705        0.260      350.146       31.095      857.958
07/07/2013  13:05:00      -75.124      -36.387       -2.164       38.886       31.511       23.023     1512.087      992.927      530.066        0.500        0.152       83.473       23.749        0.081      349.802       30.498      857.956
07/07/2013  13:06:00      -20.630       -3.563       18.810       26.492       24.162       18.390      701.822      583.781      338.210        0.121        0.081       20.935       18.592        0.789      350.435       31.599      857.943
07/07/2013  13:07:00       27.051       28.095        9.459       40.515       36.219       37.088     1641.467     1311.850     1375.503        0.297        0.216       39.001       26.842        0.474      349.908       30.682      857.942
07/07/2013  13:08:00       87.493       74.524       -5.262       40.347       45.396       30.973     1627.856     2060.840      959.338        0.894        0.232      114.929       22.962        0.040      349.587       30.128      857.933
07/07/2013  13:09:00       49.686       61.300       24.230       47.227       50.879       48.524     2230.393     2588.721     2354.591        0.699        0.359       78.907       33.924        0.185      349.778       30.457      857.909
07/07/2013  13:10:00       21.640       33.146       14.355       45.604       47.780       33.505     2079.747     2282.956     1122.586        0.363        0.274       39.585       25.267        0.407      350.266       31.305      857.903
07/07/2013  13:11:00       36.471       92.009      -14.265       29.314       64.686       34.991      859.302     4184.272     1224.378        0.813        0.313       98.974       24.898        0.063      349.964       30.778      857.897
07/07/2013  13:12:00       14.262       40.172        6.555       32.457       36.427       24.311     1053.441     1326.910      591.006        0.242        0.149       42.629       14.799        0.121      350.010       30.859      857.885
07/07/2013  13:13:00       25.747       96.460        8.655       63.109       72.226       56.304     3982.765     5216.620     3170.161        1.120        0.618       99.837       51.360        0.265      350.223       31.229      857.875
07/07/2013  13:14:00      186.500       90.113       32.143       87.753       65.744       59.929     7700.594     4322.210     3591.476        2.977        0.781      207.130       24.026        0.013      349.862       30.600      857.867
07/07/2013  13:15:00      169.044      100.224       58.114      102.609       75.981       81.977    10528.689     5773.072     6720.302        3.251        1.151      196.521       62.299        0.100      349.666       30.258      857.855
07/07/2013  13:16:00      210.457      131.654       20.654       75.975       51.716       61.595     5772.229     2674.589     3793.977        3.714        0.612      248.244       43.269        0.030      349.742       30.390      857.849
07/07/2013  13:17:00      179.065      104.754       28.536       40.723       40.817       40.102     1658.336     1666.003     1608.132        2.439        0.247      207.455       21.938        0.011      349.653       30.238      857.843
07/07/2013  13:18:00      116.474       90.065       22.458       44.741       28.643       38.549     2001.756      820.407     1486.041        1.324        0.215      147.234       13.652        0.009      349.283       29.596      857.844
07/07/2013  13:19:00       13.695       11.375       13.364       25.891       22.704       27.309      670.355      515.494      745.774        0.121        0.097       17.803       19.645        1.218      349.632       30.203      857.835
07/07/2013  13:20:00       57.962       43.627       30.482       50.518       33.214       38.182     2552.070     1103.152     1457.898        0.565        0.256       72.546       18.264        0.063      349.310       29.644      857.816
07/07/2013  13:21:00       78.688       56.084       33.195       59.217       49.432       45.047     3506.700     2443.474     2029.212        0.921        0.399       96.629        7.875        0.007      349.868       30.613      857.776
07/07/2013  13:22:00       59.729       51.658       55.975       64.240       70.133       34.292     4126.730     4918.632     1175.921        0.979        0.511       78.969       31.782        0.162      350.479       31.674      857.762
07/07/2013  13:23:00      122.913       52.864       38.860       56.722       52.705       46.806     3217.360     2777.798     2190.812        1.380        0.409      133.799       34.172        0.065      349.464       29.911      857.751
07/07/2013  13:24:00       27.137       43.642       30.900       38.747       62.568       36.676     1501.299     3914.739     1345.155        0.518        0.338       51.391       20.284        0.156      349.879       30.633      857.732
07/07/2013  13:25:00       23.886       -0.608       17.043       35.770       42.713       24.219     1279.475     1824.388      586.538        0.228        0.185       23.894       20.069        0.705      349.688       30.299      857.734
07/07/2013  13:26:00       11.200      -93.400       13.542       72.150       90.330       28.560     5205.605     8159.553      815.679        1.160        0.709       94.069       31.213        0.110      350.045       30.919      857.744
07/07/2013  13:27:00      -94.260      -64.084       15.475      115.931       67.611       46.735    13439.883     4571.300     2184.115        1.671        1.010      113.981       29.751        0.068      350.447       31.616      857.754
07/07/2013  13:28:00     -134.189     -115.326      -10.127      128.832       74.705       46.321    16597.767     5580.907     2145.661        2.786        1.216      176.937       46.646        0.070      350.091       30.998      857.764
07/07/2013  13:29:00       -3.236       49.664       18.153       55.082       37.483       38.119     3033.975     1404.965     1453.025        0.435        0.295       49.769       17.349        0.122      350.594       31.874      857.792
07/07/2013  13:30:00       23.380       16.250       27.674       37.759       57.010       37.960     1425.766     3250.120     1440.990        0.385        0.306       28.473       26.134        0.842      350.134       31.076      857.763
07/07/2013  13:31:00       81.634       60.927       35.786       35.750       40.907       40.184     1278.036     1673.368     1614.763        0.811        0.228      101.864       22.774        0.050      349.220       29.487      857.712
07/07/2013  13:32:00      -32.186        5.875       24.414       40.558       48.276       38.644     1644.976     2330.591     1493.342        0.357        0.273       32.718       37.483        1.312      350.212       31.210      857.687
07/07/2013  13:33:00       68.763      -27.579       -0.880       41.515       44.272       37.783     1723.522     1960.014     1427.551        0.530        0.256       74.087       28.934        0.153      349.657       30.247      857.610
07/07/2013  13:34:00       55.206      -89.224       44.827       64.396      178.401       79.929     4146.812    31827.013     6388.681        2.768        2.118      104.922      112.760        1.155      349.987       30.817      857.558
07/07/2013  13:35:00      -17.003      -93.117       -1.947       65.949       66.557       50.513     4349.212     4429.846     2551.599        1.014        0.567       94.656       17.347        0.034      350.406       31.547      857.718
07/07/2013  13:36:00       37.204       40.397       34.336       75.242       51.143       38.232     5661.342     2615.632     1461.653        0.696        0.487       54.919       27.405        0.249      350.553       31.803      857.683
07/07/2013  13:37:00      -47.525      -14.778       11.162      119.559       68.427       43.774    14294.384     4682.316     1916.163        1.174        1.045       49.769       39.266        0.622      350.733       32.115      857.634
07/07/2013  13:38:00     -262.567     -201.150       -5.707      135.855      185.321       73.257    18456.689    34343.890     5366.615        8.379        2.908      330.761       81.727        0.061      350.353       31.451      857.587
07/07/2013  13:39:00     -368.199     -316.970       -4.773      252.932      197.380      107.948    63974.814    38958.793    11652.810       17.530        5.729      485.840      129.573        0.071      350.487       31.686      857.545
07/07/2013  13:40:00     -617.525     -419.209      -17.376      289.962      257.031      137.195    84078.038    66064.762    18822.582       36.314        8.448      746.373      157.276        0.044      350.343       31.434      857.512
07/07/2013  13:41:00     -379.843      -63.916       -1.824      235.907      163.396      106.297    55652.020    26698.385    11298.998       12.099        4.682      385.183      100.791        0.068      350.380       31.497      857.520
07/07/2013  13:42:00     -386.881     -249.061       14.161      240.452      175.247       96.626    57817.105    30711.490     9336.648       15.487        4.893      460.118       94.622        0.042      350.563       31.817      857.487
07/07/2013  13:43:00     -358.546     -209.789      -16.652      212.089      191.457      111.353    44981.770    36655.685    12399.408       13.342        4.702      415.412      115.146        0.077      350.713       32.078      857.472
07/07/2013  13:44:00     -348.265     -218.524        1.553      243.413      196.603      106.228    59249.989    38652.740    11284.467       13.909        5.459      411.146      112.124        0.074      350.725       32.098      857.486
07/07/2013  13:45:00     -335.697     -146.468       -7.653      211.905      216.620       99.581    44903.620    46924.396     9916.386       11.795        5.087      366.258       93.453        0.065      350.688       32.034      857.467
07/07/2013  13:46:00     -556.681     -229.652      -12.155      257.427      221.511       97.800    66268.440    49067.145     9564.830       24.382        6.245      602.191      104.192        0.030      350.409       31.549      857.445
07/07/2013  13:47:00     -641.483     -264.997      -32.994      239.088      197.737       99.104    57162.873    39099.999     9821.581       29.443        5.304      694.063       97.684        0.020      350.464       31.643      857.411
07/07/2013  13:48:00     -422.158     -301.909       -4.292      305.291      258.798      138.427    93202.394    66976.380    19162.025       22.433        8.967      519.005      171.873        0.110      350.719       32.089      857.375
07/07/2013  13:49:00     -465.939     -334.514      -15.771      263.057      226.274      130.307    69199.024    51199.839    16979.992       23.329        6.869      573.584      138.614        0.058      350.454       31.626      857.420
07/07/2013  13:50:00     -502.777     -223.562       -5.911      297.490      221.464      140.386    88500.265    49046.255    19708.241       23.000        7.863      550.241      155.798        0.080      350.397       31.529      857.406
07/07/2013  13:51:00     -378.581     -288.113        2.099      218.905      229.711      103.870    47919.350    52767.357    10789.053       16.888        5.574      475.744      109.051        0.053      350.424       31.574      857.442
07/07/2013  13:52:00     -440.449     -245.178      -26.578      187.788      156.531       89.579    35264.327    24501.922     8024.386       16.129        3.390      504.091       89.442        0.031      350.503       31.712      857.475
07/07/2013  13:53:00     -437.537     -156.199      -19.438      209.971      184.347       78.201    44087.698    33983.757     6115.411       15.018        4.209      464.582       83.272        0.032      350.318       31.391      857.414
07/07/2013  13:54:00     -503.715     -185.479      -42.930      309.865      159.923       98.347    96016.624    25575.296     9672.064       21.059        6.563      536.779      127.719        0.057      350.477       31.667      857.388
07/07/2013  13:55:00     -466.896     -187.442      -34.128      223.972      214.520      106.711    50163.499    46018.960    11387.297       18.091        5.378      503.117       98.499        0.038      350.496       31.701      857.326
07/07/2013  13:56:00     -379.907     -136.189      -13.038      250.945      159.321       90.289    62973.319    25383.201     8152.056       12.976        4.825      403.580       94.787        0.055      350.808       32.243      857.292
07/07/2013  13:57:00     -415.470     -279.815       13.249      268.223      182.027      108.045    71943.591    33133.931    11673.816       18.390        5.838      500.911      137.900        0.076      350.732       32.110      857.349
07/07/2013  13:58:00     -373.502     -247.740       -9.480      197.590      220.073       90.507    39041.966    48432.232     8191.580       14.830        4.783      448.195       95.184        0.045      350.538       31.772      857.335
07/07/2013  13:59:00     -271.506     -202.147      -13.153      153.812      193.900       73.686    23658.126    37597.070     5429.685        9.071        3.334      338.495       74.946        0.049      350.709       32.071      857.360
07/07/2013  14:00:00     -390.515     -287.540      -16.415      233.648      201.813      108.858    54591.375    40728.462    11850.043       17.129        5.358      484.955      118.793        0.060      350.577       31.842      857.329
07/07/2013  14:01:00     -304.197     -184.935       -6.135      222.278      180.000       91.576    49407.647    32400.117     8386.131       10.847        4.510      356.001      100.927        0.080      350.689       32.037      857.307
07/07/2013  14:02:00     -522.254     -303.966      -22.335      280.442      228.653      112.333    78647.583    52282.192    12618.807       25.457        7.177      604.272      130.759        0.047      350.513       31.731      857.288
07/07/2013  14:03:00     -373.064     -462.901       -8.459      271.929      295.231       91.033    73945.427    87161.357     8287.065       26.143        8.470      594.520      108.362        0.033      350.514       31.731      857.302
07/07/2013  14:04:00     -426.146     -228.654       -2.392      243.582      194.266      106.237    59332.217    37739.271    11286.382       17.110        5.418      483.614      115.747        0.057      350.613       31.904      857.303
07/07/2013  14:05:00     -456.161     -331.592      -22.413      192.488      124.409       92.046    37051.470    15477.694     8472.431       18.976        3.050      563.947       91.180        0.026      350.531       31.759      857.295
07/07/2013  14:06:00     -452.586     -189.725      -12.415      234.880      187.589       97.785    55168.459    35189.633     9561.993       17.043        4.996      490.744      113.753        0.054      350.524       31.749      857.284
07/07/2013  14:07:00     -261.790      -92.263       12.037      187.192      196.808       80.748    35040.842    38733.310     6520.171        7.873        4.015      277.573       95.579        0.119      350.745       32.134      857.254
07/07/2013  14:08:00     -193.773      -83.683       20.421      123.085      102.157       65.033    15150.031    10436.087     4229.251        3.739        1.491      211.070       63.361        0.090      350.950       32.491      857.235
07/07/2013  14:09:00     -309.082     -219.806       13.011      238.001      205.750       91.170    56644.323    42333.152     8312.043       12.563        5.364      379.271       99.938        0.069      350.817       32.259      857.225
07/07/2013  14:10:00     -420.675     -230.557        0.215      291.601      231.511      126.850    85031.116    53597.338    16090.938       19.239        7.736      479.712      151.310        0.099      350.786       32.207      857.186
07/07/2013  14:11:00     -633.761     -412.028      -18.478      286.455      217.392      118.814    82056.234    47259.379    14116.882       35.757        7.172      755.924      136.736        0.033      350.529       31.757      857.189
07/07/2013  14:12:00     -367.095     -315.240       -6.161      221.487      249.429      100.435    49056.534    62214.947    10087.243       17.774        6.068      483.875      114.240        0.056      350.622       31.920      857.233
07/07/2013  14:13:00     -579.047     -278.875      -26.429      280.118      234.578      111.877    78466.252    55026.831    12516.494       27.986        7.300      642.703      124.025        0.037      350.404       31.540      857.230
07/07/2013  14:14:00     -425.489     -183.084      -10.775      245.225      201.791      103.061    60135.390    40719.768    10621.636       16.305        5.574      463.207      115.326        0.062      350.583       31.851      857.187
07/07/2013  14:15:00     -495.134     -189.078      -22.222      198.626      173.134       93.952    39452.360    29975.211     8826.945       17.981        3.913      530.008       90.944        0.029      350.596       31.874      857.188
07/07/2013  14:16:00     -440.910     -330.280       -6.272      268.171      204.975      128.581    71915.530    42014.935    16532.967       21.697        6.523      550.896      143.445        0.068      350.655       31.976      857.178
07/07/2013  14:17:00     -582.555     -385.559      -22.873      264.133      212.244      109.492    69766.208    45047.584    11988.439       30.765        6.340      698.589      121.491        0.030      350.516       31.733      857.156
07/07/2013  14:18:00     -467.039     -334.767        2.751      277.546      203.551      100.413    77031.719    41433.115    10082.765       22.935        6.427      574.626      112.623        0.038      350.622       31.918      857.171
07/07/2013  14:19:00     -457.560     -269.724      -24.286      206.740      185.588       99.986    42741.587    34442.807     9997.255       18.492        4.359      531.142      101.776        0.037      350.722       32.093      857.192
07/07/2013  14:20:00     -406.349     -246.207      -33.250      212.977      168.429       83.317    45359.091    28368.181     6941.796       15.374        4.033      475.118       82.194        0.030      350.548       31.789      857.173
07/07/2013  14:21:00     -386.033     -272.074       -3.726      233.445      199.640      100.139    54496.455    39856.072    10027.832       16.370        5.219      472.277      103.731        0.048      350.633       31.938      857.141
07/07/2013  14:22:00     -453.773     -313.586      -14.379      297.529      214.832      102.671    88523.423    46152.920    10541.248       22.481        7.261      551.586      129.385        0.055      350.687       32.031      857.190
07/07/2013  14:23:00     -366.955     -234.031      -12.547      189.761      172.309       88.798    36009.069    29690.242     7885.069       13.157        3.679      435.232      105.437        0.059      350.448       31.616      857.172
07/07/2013  14:24:00     -401.848     -329.406       -7.376      281.672      230.191      106.794    79339.139    52987.713    11404.871       20.686        7.187      519.606      122.678        0.056      350.634       31.941      857.195
07/07/2013  14:25:00     -258.422     -228.377      -11.538      181.962      131.466       75.946    33110.020    17283.343     5767.797        8.760        2.808      344.874       69.616        0.041      350.614       31.905      857.238
07/07/2013  14:26:00     -192.850     -395.705       -0.888      138.425      196.088       88.287    19161.474    38450.372     7794.562       12.958        3.270      440.198       80.782        0.034      350.592       31.867      857.222
07/07/2013  14:27:00     -158.701     -157.753       11.633      172.862      176.871       85.306    29881.335    31283.524     7277.090        5.931        3.422      223.768       84.995        0.144      350.935       32.465      857.193
07/07/2013  14:28:00     -311.972      -55.984       -4.003      170.875      130.613       84.297    29198.189    17059.664     7106.014        7.691        2.668      316.955       76.313        0.058      350.576       31.839      857.189
07/07/2013  14:29:00     -313.938      -69.815        0.270      161.391      135.594       75.919    26047.143    18385.759     5763.654        7.680        2.510      321.607       84.574        0.069      350.788       32.210      857.196
07/07/2013  14:30:00     -102.488      -60.064       33.818      110.048      101.540       51.235    12110.480    10310.313     2625.052        2.015        1.252      118.791       31.072        0.068      351.026       32.624      857.178
07/07/2013  14:31:00     -183.634     -194.988        5.621      166.784      131.342       76.596    27816.877    17250.798     5866.888        6.134        2.547      267.847       77.137        0.083      350.967       32.520      857.139
07/07/2013  14:32:00     -277.409     -330.269       -2.023      190.189      220.054       89.489    36171.930    48423.730     8008.271       13.930        4.630      431.316       93.661        0.047      350.972       32.529      857.139
07/07/2013  14:33:00     -249.562     -244.911       -7.780      193.666      143.569       69.498    37506.685    20612.193     4830.015        9.262        3.147      349.661       82.181        0.055      351.044       32.654      857.097
07/07/2013  14:34:00     -494.084     -410.414      -36.754      334.857      290.243      128.767   112129.089    84241.241    16580.970       31.339       10.648      642.308      158.922        0.061      350.856       32.327      857.080
07/07/2013  14:35:00     -536.638     -343.377       -6.233      241.218      244.811      104.392    58186.109    59932.466    10897.640       26.745        6.451      637.094       94.102        0.022      350.517       31.738      857.132
07/07/2013  14:36:00     -481.269     -191.161       -8.175      319.293      214.391      114.065   101948.040    45963.439    13010.823       21.454        8.046      517.844      132.773        0.066      350.751       32.145      857.107
07/07/2013  14:37:00     -259.720     -199.607        0.101      224.603      220.751       99.977    50446.512    48730.809     9995.441       10.821        5.459      327.563      117.948        0.130      350.924       32.445      857.174
07/07/2013  14:38:00     -380.968     -290.109      -19.872      207.649      198.587       98.739    43117.952    39436.924     9749.420       16.098        4.615      478.853      115.142        0.058      350.878       32.364      857.177
07/07/2013  14:39:00     -259.816     -217.134       -6.960      214.915      151.702       94.764    46188.367    23013.431     8980.177        9.643        3.909      338.602       92.765        0.075      350.861       32.334      857.182
07/07/2013  14:40:00     -380.949     -237.001        9.162      275.459      235.944      126.200    75877.596    55669.360    15926.421       17.439        7.374      448.655      124.041        0.076      350.834       32.290      857.169
07/07/2013  14:41:00     -650.091     -498.273      -17.800      281.610      245.846      138.752    79304.169    60440.207    19252.164       41.507        7.950      819.081      149.887        0.033      350.440       31.602      857.139
07/07/2013  14:42:00     -530.005     -379.284       13.102      304.173      236.184      133.026    92521.020    55782.671    17695.927       29.543        8.300      651.738      157.317        0.058      350.563       31.816      857.120
07/07/2013  14:43:00     -632.464     -388.776      -15.847      277.752      283.727      142.404    77146.182    80501.082    20278.790       36.463        8.896      742.400      147.814        0.040      350.524       31.748      857.160
07/07/2013  14:44:00     -582.986     -304.554      -22.534      315.208      295.206      113.239    99356.185    87146.447    12823.042       31.619        9.966      657.743      143.290        0.047      350.569       31.827      857.175
07/07/2013  14:45:00     -582.251     -360.488        0.379      305.162      236.910      126.606    93124.053    56126.140    16029.097       31.709        8.264      684.812      140.028        0.042      350.457       31.633      857.174
07/07/2013  14:46:00     -628.547     -492.919      -21.658      257.976      188.865      133.824    66551.507    35669.824    17908.797       37.930        6.007      798.774      148.917        0.035      350.412       31.554      857.193
07/07/2013  14:47:00     -411.703     -281.847       -3.830      210.287      165.082      103.558    44220.496    27252.149    10724.334       16.556        4.110      498.936      102.166        0.042      350.612       31.902      857.193
07/07/2013  14:48:00     -421.605     -378.810      -26.893      227.595      212.291      104.488    51799.691    45067.454    10917.700       21.486        5.389      566.787      107.908        0.036      350.578       31.842      857.180
07/07/2013  14:49:00     -467.415     -246.764        4.881      273.095      244.884      107.074    74580.968    59968.350    11464.775       21.267        7.301      528.554      139.669        0.070      350.645       31.958      857.188
07/07/2013  14:50:00     -418.570     -276.284       -6.720      250.563      222.153      122.984    62781.996    49351.934    15124.983       18.939        6.363      501.531      122.317        0.059      350.545       31.784      857.157
07/07/2013  14:51:00     -475.111     -288.612      -34.706      277.448      198.783      124.886    76977.196    39514.543    15596.576       22.113        6.604      555.902      145.309        0.068      350.728       32.105      857.129
07/07/2013  14:52:00     -509.400     -212.651      -17.051      290.539      236.638      118.464    84413.118    55997.732    14033.607       22.969        7.722      552.005      113.340        0.042      350.615       31.907      857.148
07/07/2013  14:53:00     -502.422     -253.393        2.965      260.144      263.619      119.630    67674.651    69495.052    14311.391       23.403        7.574      562.704      143.210        0.065      350.609       31.897      857.146
07/07/2013  14:54:00     -449.866     -193.580       -3.071      297.847      216.108      124.995    88712.555    46702.823    15623.657       19.542        7.552      489.747      152.320        0.097      350.665       31.994      857.151
07/07/2013  14:55:00     -508.361     -259.778       14.234      392.361      250.236      137.798   153947.518    62617.933    18988.162       28.079       11.778      570.891      173.064        0.092      350.639       31.947      857.112
07/07/2013  14:56:00     -670.225     -438.673       -5.999      315.777      233.130      141.008    99715.373    54349.393    19883.228       40.777        8.697      801.021      149.154        0.035      350.526       31.752      857.143
07/07/2013  14:57:00     -682.663     -479.142       -3.829      305.697      214.108      142.148    93450.451    45842.098    20206.064       42.753        7.975      834.030      152.636        0.033      350.532       31.764      857.154
07/07/2013  14:58:00     -481.878     -275.457       -2.178      231.853      216.744       97.552    53755.838    46977.824     9516.417       20.915        5.513      555.052      104.616        0.036      350.676       32.013      857.211
07/07/2013  14:59:00     -409.502     -344.920       -3.386      261.164      205.033      110.007    68206.862    42038.384    12101.621       20.449        6.117      535.408      114.716        0.046      350.676       32.013      857.173
07/07/2013  15:00:00     -600.656     -274.666      -26.738      267.336      256.247      125.038    71468.580    65662.281    15634.525       29.482        7.638      660.476      125.499        0.036      350.539       31.776      857.175
07/07/2013  15:01:00     -414.391     -239.004       -2.119      235.961      182.412      104.666    55677.688    33274.193    10954.919       16.436        4.995      478.375      124.343        0.068      350.560       31.811      857.176
07/07/2013  15:02:00     -269.217     -100.110        8.893      236.465      142.876       91.266    55915.720    20413.566     8329.393        8.360        4.233      287.227       96.257        0.112      350.914       32.426      857.170
07/07/2013  15:03:00     -463.083     -280.293        5.686      246.179      199.862      114.556    60604.269    39944.899    13123.005       20.333        5.684      541.304      125.899        0.054      350.783       32.201      857.204
07/07/2013  15:04:00     -441.138     -302.821       -9.560      279.451      271.142      122.102    78092.984    73517.888    14908.937       22.642        8.326      535.074      148.984        0.078      350.657       31.980      857.203
07/07/2013  15:05:00     -366.482     -235.986       12.170      205.722      152.954      102.349    42321.731    23394.869    10475.309       13.315        3.810      435.888      111.055        0.065      350.720       32.090      857.255
07/07/2013  15:06:00     -431.957     -311.207      -12.954      286.363      244.356      110.089    82003.540    59709.956    12119.697       21.869        7.692      532.388      144.600        0.074      350.720       32.091      857.237
07/07/2013  15:07:00     -369.536     -286.306       11.921      264.156      194.385      113.758    69778.228    37785.355    12940.980       16.956        6.025      467.470      132.851        0.081      350.544       31.784      857.228
07/07/2013  15:08:00     -352.288     -153.267       22.459      234.229      204.952      100.184    54863.040    42005.134    10036.751       12.748        5.345      384.184      120.488        0.098      350.669       32.000      857.277
07/07/2013  15:09:00     -462.168     -194.293       13.371      268.551      246.965      128.580    72119.784    60991.513    16532.841       20.056        7.482      501.347      138.628        0.076      350.567       31.823      857.231
07/07/2013  15:10:00     -477.202     -158.967      -27.892      248.146      169.207      103.644    61576.663    28631.130    10742.114       17.734        5.047      502.983      119.841        0.057      350.642       31.953      857.284
07/07/2013  15:11:00     -463.398     -284.139      -20.296      322.633      249.096      128.937   104091.903    62048.638    16624.662       23.929        9.138      543.575      143.671        0.070      350.543       31.782      857.247
07/07/2013  15:12:00     -534.219     -243.160      -13.151      308.413      266.253      118.165    95118.529    70890.490    13962.899       26.230        8.999      586.956      130.311        0.049      350.655       31.977      857.211
07/07/2013  15:13:00     -380.093     -255.576        4.243      288.123      219.101      114.459    83015.110    48005.103    13100.958       17.694        7.206      458.028      145.142        0.100      350.690       32.037      857.258
07/07/2013  15:14:00     -365.834     -300.433       -0.367      208.169      245.273      100.492    43334.300    60158.777    10098.578       16.882        5.680      473.386      115.796        0.060      350.709       32.070      857.299
07/07/2013  15:15:00     -510.826     -334.672      -11.693      290.898      234.065      124.722    84621.576    54786.226    15555.628       26.399        7.748      610.696      149.472        0.060      350.513       31.729      857.264
07/07/2013  15:16:00     -520.828     -324.828      -11.899      220.139      222.956      108.825    48461.325    49709.530    11842.899       24.344        5.501      613.820      115.571        0.035      350.349       31.445      857.269
07/07/2013  15:17:00     -267.759     -219.086       -6.506      168.133      164.221      101.477    28268.838    26968.443    10297.519        9.262        3.277      345.967       81.938        0.056      350.560       31.811      857.258
07/07/2013  15:18:00     -495.890     -262.125      -23.730      251.124      170.844      103.975    63063.489    29187.661    10810.714       20.910        5.153      560.907      117.562        0.044      350.628       31.930      857.245
07/07/2013  15:19:00     -301.912     -376.966      -25.703      209.820      187.356       89.736    44024.312    35102.421     8052.618       16.053        4.359      482.964       67.122        0.019      350.691       32.040      857.239
07/07/2013  15:20:00     -259.024     -133.004       37.875      231.530      184.564      109.206    53606.004    34064.045    11926.055        9.289        4.980      291.176      103.247        0.126      350.867       32.345      857.244
07/07/2013  15:21:00     -345.705     -260.253        9.688      213.661      185.220       99.614    45650.934    34306.543     9923.020       13.859        4.494      432.716      110.787        0.066      350.793       32.219      857.250
07/07/2013  15:22:00     -540.530     -404.634      -11.794      244.960      221.054      104.217    60005.518    48864.823    10861.209       28.786        5.987      675.205       95.334        0.020      350.648       31.965      857.254
07/07/2013  15:23:00     -363.858     -219.147       43.851      351.311      233.392      122.096   123419.082    54471.892    14907.396       18.753        9.640      424.756      158.062        0.138      350.646       31.961      857.248
07/07/2013  15:24:00     -313.784     -239.067       -0.607      194.452      163.974       96.164    37811.603    26887.564     9247.576       11.477        3.697      394.479       89.648        0.052      350.688       32.034      857.313
07/07/2013  15:25:00     -215.051     -417.598        6.194      174.670      215.526       98.318    30509.559    46451.401     9666.472       15.363        4.331      469.718      101.976        0.047      350.484       31.678      857.331
07/07/2013  15:26:00     -176.231     -211.581        0.164      174.533      163.591       90.303    30461.791    26761.951     8154.554        7.059        3.269      275.361       90.291        0.108      350.746       32.136      857.292
07/07/2013  15:27:00     -454.421     -320.467       -4.306      273.553      196.394      104.860    74831.044    38570.622    10995.604       21.678        6.220      556.055      129.938        0.055      350.739       32.123      857.282
07/07/2013  15:28:00     -304.716     -299.466      -10.269      212.200      254.746      107.037    45028.904    64895.301    11457.015       15.198        6.069      427.237      110.744        0.067      350.714       32.080      857.302
07/07/2013  15:29:00     -415.242     -400.696       21.438      249.906      241.745      124.556    62452.799    58440.705    15514.240       23.490        6.820      577.047      128.365        0.049      350.488       31.686      857.308
07/07/2013  15:30:00     -311.202     -336.574      -11.104      204.557      233.441       99.711    41843.382    54494.667     9942.263       15.825        5.314      458.398       98.681        0.046      350.504       31.714      857.325
07/07/2013  15:31:00     -152.531     -300.576        0.097      172.716      206.936      102.060    29830.892    42822.604    10416.270        9.832        4.153      337.063       95.829        0.081      350.490       31.690      857.331
07/07/2013  15:32:00     -379.730     -206.287        1.788      405.102      266.822      126.425   164107.269    71194.198    15983.324       21.897       12.564      432.144      134.991        0.098      350.527       31.753      857.236
07/07/2013  15:33:00     -310.784     -212.703       -8.990      236.483      176.910      116.551    55924.361    31297.151    13584.125       12.134        5.040      376.602      129.079        0.117      350.643       31.955      857.272
07/07/2013  15:34:00     -351.582     -334.327       -3.397      254.130      259.260       99.454    64581.854    67215.735     9891.020       18.851        7.084      485.164      100.985        0.043      350.587       31.859      857.311
07/07/2013  15:35:00     -287.628     -240.063       -9.178      171.332      144.574       93.814    29354.641    20901.522     8801.105        9.974        2.953      374.647       92.791        0.061      350.679       32.018      857.306
07/07/2013  15:36:00     -182.807     -195.627       16.357      192.466      146.390       77.897    37043.282    21430.169     6068.002        6.824        3.227      267.747       81.064        0.092      350.842       32.303      857.288
07/07/2013  15:37:00     -370.311     -295.051       -9.638      264.349      231.789      105.606    69880.202    53726.293    11152.535       17.949        6.738      473.482      116.358        0.060      350.541       31.779      857.356
07/07/2013  15:38:00     -296.331     -293.093       40.635      231.304      205.819      120.572    53501.750    42361.336    14537.550       14.286        5.520      416.792      104.358        0.063      350.497       31.701      857.310
07/07/2013  15:39:00     -377.012     -352.809       -0.426      290.006      214.996      115.595    84103.633    46223.257    13362.270       20.512        7.184      516.345      134.520        0.068      350.507       31.718      857.261
07/07/2013  15:40:00     -391.984     -296.185       10.724      271.288      243.948      114.244    73597.140    59510.797    13051.715       19.380        7.308      491.301      126.950        0.067      350.450       31.621      857.304
07/07/2013  15:41:00     -483.096     -324.031       -4.385      288.481      223.888      109.502    83221.229    50126.056    11990.664       24.184        7.267      581.702      126.972        0.048      350.397       31.527      857.280
07/07/2013  15:42:00     -414.545     -400.407      -21.786      205.971      234.515       95.297    42424.182    54997.098     9081.611       21.955        5.325      576.345       95.742        0.028      350.420       31.569      857.271
07/07/2013  15:43:00     -382.525     -351.828        6.492      241.659      229.645      114.738    58399.305    52736.928    13164.837       19.720        6.215      519.720      103.806        0.040      350.471       31.656      857.290
07/07/2013  15:44:00     -381.013     -344.175      -10.385      258.756      216.170      116.425    66954.481    46729.674    13554.847       19.546        6.362      513.447      113.941        0.049      350.435       31.594      857.272
07/07/2013  15:45:00     -522.431     -253.535       -6.304      215.929      162.797       88.901    46625.375    26502.928     7903.387       20.913        4.052      580.701       79.893        0.019      350.446       31.612      857.248
07/07/2013  15:46:00     -427.923     -148.883      -27.313      187.174      141.740       88.154    35034.006    20090.342     7771.099       13.445        3.145      453.083       86.103        0.036      350.492       31.693      857.229
07/07/2013  15:47:00     -360.473     -230.612      -13.220      176.036      145.720       88.835    30988.744    21234.227     7891.742       12.169        3.006      427.928       76.323        0.032      350.712       32.075      857.229
07/07/2013  15:48:00     -218.846     -313.047       24.844      231.621      261.137      115.833    53648.252    68192.398    13417.359       14.086        6.763      381.958      132.236        0.120      350.756       32.153      857.221
07/07/2013  15:49:00      -86.326     -116.733       16.111      145.376      137.992       64.889    21134.175    19041.765     4210.585        3.285        2.219      145.185       56.531        0.152      350.829       32.280      857.201
07/07/2013  15:50:00     -220.411     -305.069        6.988      180.743      202.327       89.437    32668.056    40936.089     7999.049       11.163        4.080      376.362       81.666        0.047      350.727       32.101      857.224
07/07/2013  15:51:00     -213.615     -208.240       -1.393      166.664      267.017       96.945    27777.002    71297.875     9398.360        9.871        5.424      298.321      109.385        0.134      350.735       32.116      857.233
07/07/2013  15:52:00     -155.356      -56.992       13.382      164.022      144.037       68.697    26903.178    20746.777     4719.308        3.996        2.618      165.480       62.559        0.143      350.893       32.392      857.230
07/07/2013  15:53:00      -67.236      -96.077       19.532      201.176      191.089       85.412    40471.624    36514.961     7295.189        4.919        4.214      117.267       93.092        0.630      350.597       31.876      857.224
07/07/2013  15:54:00      -93.740      -39.574       27.016      131.563      114.727       66.802    17308.923    13162.253     4462.570        2.300        1.747      101.751       54.018        0.282      350.747       32.139      857.163
07/07/2013  15:55:00     -269.206     -231.620       -0.798      156.220      182.980       79.467    24404.840    33481.782     6314.994        9.515        3.210      355.133       66.865        0.035      350.790       32.212      857.174
07/07/2013  15:56:00     -202.364     -186.762       -6.392      236.145      157.281       72.297    55764.592    24737.404     5226.816        8.078        4.286      275.375       91.238        0.110      350.876       32.362      857.117
07/07/2013  15:57:00     -186.357     -109.568       -0.992      147.360      128.539       64.870    21715.075    16522.243     4208.082        4.458        2.122      216.181       62.215        0.083      350.933       32.462      857.219
07/07/2013  15:58:00     -424.690     -216.816      -22.130      227.396      181.911       99.774    51709.142    33091.668     9954.876       16.129        4.738      476.834      102.628        0.046      350.461       31.637      857.205
07/07/2013  15:59:00     -399.679      -71.968      -13.840      181.012      142.241       65.767    32765.513    20232.432     4325.261       11.121        2.866      406.107       72.461        0.032      350.600       31.879      857.217
07/07/2013  16:00:00     -278.185     -225.386       -5.390      215.489      213.429       97.745    46435.544    45551.797     9554.146       11.486        5.077      358.031       95.888        0.072      350.760       32.161      857.229
07/07/2013  16:01:00     -143.398     -152.088       27.122      169.673      130.419       78.743    28789.003    17009.231     6200.403        4.820        2.600      209.030       85.869        0.169      350.726       32.101      857.195
07/07/2013  16:02:00     -245.996     -298.312        1.824      219.631      210.418       90.407    48237.861    44275.684     8173.513       12.508        5.034      386.657      111.943        0.084      350.743       32.132      857.221
07/07/2013  16:03:00     -405.331     -230.726       12.966      273.134      170.947      110.856    74601.970    29222.917    12289.125       16.688        5.806      466.399      113.053        0.059      350.481       31.675      857.156
07/07/2013  16:04:00     -134.466     -217.000      -17.730      196.506      148.491      110.591    38614.532    22049.558    12230.274        6.917        3.645      255.284       80.442        0.099      350.475       31.664      857.187
07/07/2013  16:05:00     -218.516     -263.340      -18.584      199.126      186.387       78.946    39651.122    34740.041     6232.517        9.902        4.031      342.194       67.346        0.039      350.715       32.080      857.255
07/07/2013  16:06:00     -188.212     -231.864        0.928      124.250      143.666       75.130    15438.166    20639.921     5644.582        6.545        2.086      298.638       77.072        0.067      350.632       31.936      857.245
07/07/2013  16:07:00      -96.788     -128.598        8.864      160.141      106.195       60.460    25645.141    11277.358     3655.463        3.327        2.029      160.951       58.131        0.130      350.619       31.915      857.211
07/07/2013  16:08:00     -131.123      -53.306       14.270      106.539       84.107       47.025    11350.538     7074.070     2211.337        2.043        1.032      141.544       41.235        0.085      350.838       32.297      857.211
07/07/2013  16:09:00     -115.337      -58.327        9.160       77.427       95.466       44.032     5994.923     9113.688     1938.844        1.691        0.852      129.246       44.928        0.121      350.779       32.195      857.217
07/07/2013  16:10:00     -248.765      -60.384       -9.792      135.941       99.876       69.361    18479.836     9975.252     4810.942        4.944        1.663      255.988       61.918        0.059      350.520       31.741      857.200
07/07/2013  16:11:00     -346.698     -242.760       -9.599      256.275      171.246       86.049    65676.708    29325.230     7404.505       14.079        5.120      423.240      113.231        0.072      350.501       31.708      857.222
07/07/2013  16:12:00     -321.297     -242.718       12.511      269.221      179.873       97.198    72479.949    32354.476     9447.466       13.827        5.714      402.671      114.817        0.081      350.447       31.615      857.206
07/07/2013  16:13:00     -252.924     -298.328      -12.566      187.698      223.327       91.137    35230.374    49874.940     8305.975       12.325        4.671      391.114       95.372        0.059      350.557       31.806      857.268
07/07/2013  16:14:00     -203.126     -252.180       11.239      166.289      190.072       79.619    27651.915    36127.504     6339.223        8.754        3.506      323.813       76.872        0.056      350.623       31.920      857.282
07/07/2013  16:15:00     -182.867     -132.474        5.451      134.535      115.841       67.720    18099.623    13419.095     4586.058        4.355        1.805      225.808       64.707        0.082      350.632       31.937      857.242
07/07/2013  16:16:00      -63.281     -115.548       15.097      120.210      108.986       65.981    14450.335    11877.993     4353.432        2.413        1.534      131.741       59.069        0.201      350.564       31.819      857.180
07/07/2013  16:17:00     -340.462     -284.227       -3.877      176.847      191.452       93.537    31274.950    36653.722     8749.136       13.668        3.834      443.508       87.832        0.039      350.505       31.717      857.174
07/07/2013  16:18:00     -317.373     -245.636        1.960      188.740      142.649       95.091    35622.734    20348.684     9042.231       11.303        3.251      401.326       91.838        0.052      350.413       31.555      857.185
07/07/2013  16:19:00     -350.212     -228.764       -4.731      146.870      117.046       69.908    21570.939    13699.849     4887.111       10.757        2.008      418.308       65.059        0.024      350.330       31.413      857.195
07/07/2013  16:20:00     -221.173     -175.647       -2.360      153.403      119.896       67.763    23532.576    14375.134     4591.765        6.113        2.125      282.434       50.724        0.032      350.439       31.602      857.233
07/07/2013  16:21:00     -207.844     -124.838        1.275      174.028      137.638       59.942    30285.834    18944.294     3593.030        5.579        2.641      242.454       71.620        0.087      350.602       31.886      857.237
07/07/2013  16:22:00     -298.772     -126.901        1.816      150.962      133.559       67.070    22789.658    17837.891     4498.383        7.524        2.256      324.605       73.312        0.051      350.595       31.871      857.223
07/07/2013  16:23:00     -406.440     -199.051      -10.459      193.911      180.785       85.563    37601.652    32683.366     7321.082       14.125        3.880      452.564       94.808        0.044      350.390       31.516      857.226
07/07/2013  16:24:00     -329.144     -162.950        4.858      169.696      137.752       63.220    28796.602    18975.510     3996.792        9.333        2.588      367.272       71.015        0.037      350.209       31.200      857.210
07/07/2013  16:25:00     -259.934     -103.442       -4.639      128.198       83.619       56.909    16434.809     6992.160     3238.665        5.247        1.333      279.761       53.424        0.036      350.271       31.309      857.175
07/07/2013  16:26:00     -393.600      -88.402       -8.861      203.539      136.257       70.076    41428.318    18566.051     4910.602       11.385        3.245      403.405       77.301        0.037      350.488       31.688      857.144
07/07/2013  16:27:00     -210.316     -205.679        4.866      174.260      128.743       74.009    30366.686    16574.857     5477.264        6.948        2.621      294.171       60.376        0.042      350.454       31.627      857.142
07/07/2013  16:28:00     -181.147     -158.289       -5.526      100.774       90.337       56.011    10155.364     8160.816     3137.220        3.967        1.073      240.561       43.301        0.032      350.565       31.819      857.127
07/07/2013  16:29:00     -262.957     -154.936      -20.221       97.012       91.338       43.287     9411.290     8342.578     1873.801        5.659        0.981      305.207       45.648        0.022      350.374       31.487      857.123
07/07/2013  16:30:00     -244.397     -236.846      -15.168      170.198      132.787       89.476    28967.431    17632.491     8005.869        8.532        2.730      340.333       83.554        0.060      350.531       31.760      857.134
07/07/2013  16:31:00     -387.739     -213.368       23.438      272.305      169.014       94.442    74150.076    28565.639     8919.204       15.400        5.582      442.569      125.890        0.081      350.419       31.567      857.080
07/07/2013  16:32:00     -233.037     -260.718       21.174      218.404      195.765      114.718    47700.154    38324.123    13160.244       11.094        4.959      349.686      116.563        0.111      350.504       31.714      857.101
07/07/2013  16:33:00     -388.068     -262.718      -13.570      204.588      152.577       92.832    41856.125    23279.874     8617.853       14.676        3.688      468.634       98.188        0.044      350.437       31.598      857.115
07/07/2013  16:34:00     -379.457     -278.302       -4.754      209.184      200.389      110.305    43758.134    40155.566    12167.265       15.875        4.804      470.573      119.108        0.064      350.451       31.621      857.108
07/07/2013  16:35:00     -295.855     -120.349        5.965      199.753      170.989       91.516    39901.307    29237.190     8375.269        8.977        3.876      319.396       95.432        0.089      350.618       31.912      857.118
07/07/2013  16:36:00     -366.388     -120.476        8.962      239.564      161.985       90.437    57391.025    26239.196     8178.889       12.030        4.590      385.688       98.950        0.066      350.595       31.873      857.109
07/07/2013  16:37:00     -353.017      -70.756      -22.304      212.674      119.779       75.734    45230.061    14346.926     5735.676        9.771        3.266      360.038       94.807        0.069      350.483       31.677      857.133
07/07/2013  16:38:00     -208.076     -130.386       11.567      145.828      134.106       82.385    21265.887    17984.286     6787.210        5.322        2.302      245.552       83.710        0.116      350.593       31.869      857.122
07/07/2013  16:39:00     -300.034     -120.409        2.030      168.924      168.787       79.182    28535.240    28489.031     6269.722        8.390        3.165      323.294       89.759        0.077      350.483       31.677      857.081
07/07/2013  16:40:00     -353.182     -165.220       -9.871      222.541      211.801       91.425    49524.336    44859.634     8358.519       12.742        5.137      389.917      104.780        0.072      350.564       31.818      857.084
07/07/2013  16:41:00     -679.768     -430.602       -1.003      291.731      203.278      139.365    85106.975    41322.091    19422.526       39.665        7.293      804.676      153.379        0.036      350.164       31.122      857.053
07/07/2013  16:42:00     -561.973     -349.124      -14.429      319.978      187.268      108.309   102385.703    35069.429    11730.828       29.352        7.459      661.590      130.941        0.039      350.149       31.097      857.095
07/07/2013  16:43:00     -413.147     -258.582        5.811      237.189      154.276       89.227    56258.761    23801.212     7961.502       16.279        4.401      487.396       97.060        0.040      350.236       31.247      857.071
07/07/2013  16:44:00     -440.960     -208.480      -13.597      203.453      169.164       89.169    41392.997    28616.392     7951.193       15.801        3.898      487.760       85.826        0.031      350.309       31.375      857.053
07/07/2013  16:45:00     -269.561     -168.070      -33.768      130.030      115.518       59.979    16907.773    13344.378     3597.463        6.794        1.692      317.664       57.534        0.033      350.416       31.563      857.077
07/07/2013  16:46:00     -212.315     -113.756        9.431      148.835      102.699       59.273    22151.741    10547.145     3513.233        4.715        1.811      240.869       65.084        0.073      350.603       31.886      857.054
07/07/2013  16:47:00     -334.940     -214.625        9.393      247.889      234.161      108.302    61448.887    54831.520    11729.310       14.315        6.400      397.805      119.982        0.091      350.420       31.569      857.052
07/07/2013  16:48:00     -512.061     -215.483      -17.778      212.974      217.429      111.139    45357.789    47275.582    12351.957       20.695        5.249      555.553      110.081        0.039      350.242       31.258      857.035
07/07/2013  16:49:00     -258.652     -216.927       37.560      215.789      241.142      122.391    46564.735    58149.698    14979.464       11.751        5.985      337.577      142.914        0.179      350.312       31.381      857.054
07/07/2013  16:50:00     -311.634     -270.867       11.636      246.237      205.877       89.809    60632.686    42385.513     8065.675       14.083        5.554      412.898      109.744        0.071      350.187       31.163      857.053
07/07/2013  16:51:00     -303.409     -119.160        7.025      215.672      158.157       72.562    46514.522    25013.662     5265.303        9.153        3.840      325.970       85.592        0.069      350.225       31.231      857.058
07/07/2013  16:52:00     -569.609     -120.928      -20.316      209.006      167.910       89.089    43683.508    28193.897     7936.888       20.964        3.991      582.304      100.361        0.030      350.258       31.287      857.032
07/07/2013  16:53:00     -504.724     -224.887      -20.216      273.035      181.507       98.548    74548.214    32944.839     9711.727       21.144        5.860      552.558      114.180        0.043      350.346       31.438      856.955
07/07/2013  16:54:00     -709.263     -198.596      -26.035      232.478      164.003      104.033    54046.090    26896.968    10822.927       31.745        4.588      736.543      119.964        0.027      350.343       31.435      856.974
07/07/2013  16:55:00     -330.043     -234.688       -8.718      206.686      178.153      102.965    42719.111    31738.394    10601.693       12.455        4.253      404.978      108.832        0.072      350.433       31.592      857.007
07/07/2013  16:56:00     -491.183     -200.627      -33.403      282.800      200.472       99.144    79975.721    40188.993     9829.613       20.629        6.500      530.577      107.361        0.041      350.336       31.422      857.012
07/07/2013  16:57:00     -340.948      -73.524       -6.480      204.823      128.467       75.538    41952.568    16503.799     5705.917        9.292        3.208      348.786       86.067        0.061      350.440       31.602      856.995
07/07/2013  16:58:00     -369.038     -164.330      -14.551      152.895      212.104       87.751    23376.917    44988.197     7700.288       11.972        3.803      403.972       80.003        0.039      350.268       31.303      857.003
07/07/2013  16:59:00     -326.896     -208.432      -18.667      156.836      105.327       74.328    24597.674    11093.737     5524.659        9.593        2.061      387.691       74.568        0.037      350.213       31.206      856.944
07/07/2013  17:00:00     -323.183     -300.582        7.787      251.122      217.707      108.043    63062.130    47396.542    11673.315       15.847        6.107      441.358      114.142        0.067      350.257       31.286      856.896
07/07/2013  17:01:00     -475.039     -383.587       -9.426      242.404      202.213      121.421    58759.926    40890.290    14743.133       24.362        5.720      610.575      129.334        0.045      350.301       31.361      856.860
07/07/2013  17:02:00     -268.736     -147.256        5.504      216.407      206.352       99.952    46831.830    42581.123     9990.336        9.665        4.970      306.436      102.247        0.111      350.501       31.708      856.910
07/07/2013  17:03:00     -284.500       30.350      -10.697      175.551      123.270       78.611    30818.222    15195.602     6179.741        6.707        2.610      286.114       89.594        0.098      350.587       31.858      856.932
07/07/2013  17:04:00      -83.028      -40.939       19.666      128.387       95.153       56.793    16483.116     9054.047     3225.445        1.885        1.438       92.573       58.296        0.397      350.776       32.189      856.905
07/07/2013  17:05:00     -266.451     -115.351      -20.126      144.468      137.055       74.246    20871.086    18783.944     5512.455        6.493        2.258      290.348       75.964        0.068      350.486       31.682      856.911
07/07/2013  17:06:00     -257.175     -152.465       14.510      192.093      174.973       91.732    36899.832    30615.420     8414.781        8.275        3.797      298.972       98.485        0.109      350.525       31.751      856.925
07/07/2013  17:07:00     -340.407      -98.270      -10.080      178.420      175.326       88.491    31833.716    30739.154     7830.712        9.801        3.520      354.308       96.945        0.075      350.513       31.729      856.942
07/07/2013  17:08:00     -323.256     -221.792       -5.935      184.179      186.712       82.843    33921.730    34861.463     6862.937       11.467        3.782      392.028      105.015        0.072      350.442       31.607      856.932
07/07/2013  17:09:00     -494.847     -253.102       -7.232      190.911      172.808       94.281    36447.197    29862.449     8888.906       19.208        3.760      555.818      106.039        0.036      350.224       31.225      856.915
07/07/2013  17:10:00     -420.808     -103.710      -18.838      201.844      164.478       87.976    40740.885    27052.909     7739.774       13.185        3.777      433.400       80.916        0.035      350.380       31.499      856.939
07/07/2013  17:11:00     -523.614     -244.218      -30.043      222.072      212.880      104.753    49316.188    45317.888    10973.278       22.014        5.280      577.767      108.279        0.035      350.096       31.004      856.918
07/07/2013  17:12:00     -282.976     -194.442       -2.006      233.629      183.622       97.048    54582.700    33717.041     9418.331       10.778        4.886      343.341      116.083        0.114      350.281       31.325      856.898
07/07/2013  17:13:00     -110.707      -39.882       16.927      121.750      104.899       74.391    14823.086    11003.765     5534.014        2.274        1.568      117.672       62.256        0.280      350.505       31.719      856.898
07/07/2013  17:14:00     -462.998      -11.242       -8.239      277.184      167.542      104.893    76831.215    28070.204    11002.554       16.521        5.795      463.135      125.802        0.074      350.432       31.589      856.862
07/07/2013  17:15:00     -445.646     -148.996      -15.952      202.250      128.914       76.288    40905.173    16618.836     5819.808       14.219        3.167      469.894       77.046        0.027      350.418       31.563      856.902
07/07/2013  17:16:00     -319.608     -153.889        9.940      231.715      167.902       91.652    53691.940    28191.219     8400.044       10.809        4.514      354.727      115.711        0.106      350.504       31.714      856.947
07/07/2013  17:17:00     -445.457     -204.764      -31.801      229.713      249.990       96.292    52767.946    62494.882     9272.120       18.293        6.227      490.266      108.143        0.049      350.203       31.189      856.894
07/07/2013  17:18:00     -515.649     -206.114      -28.826      265.509      179.050       97.035    70494.886    32058.979     9415.709       21.057        5.598      555.317      112.143        0.041      350.200       31.185      856.864
07/07/2013  17:19:00     -354.127     -133.680      -10.629      158.830      144.560       61.872    25227.051    20897.594     3828.153        9.666        2.498      378.518       58.235        0.024      350.351       31.447      856.911
07/07/2013  17:20:00     -224.242      -56.896       -0.131      192.850      128.288       78.007    37190.933    16457.828     6085.021        5.662        2.987      231.347       86.612        0.140      350.493       31.695      856.899
07/07/2013  17:21:00     -220.707       -9.554        7.583      156.823      117.231       71.795    24593.524    13743.084     5154.524        4.617        2.175      220.913       77.016        0.122      350.525       31.749      856.893
07/07/2013  17:22:00     -438.414     -264.051       -9.823      257.059      211.911      112.928    66079.415    44906.210    12752.678       19.286        6.187      511.791      130.141        0.065      350.190       31.167      856.896
07/07/2013  17:23:00     -253.102     -206.970       12.078      225.192      174.578      108.607    50711.441    30477.598    11795.490       10.000        4.649      326.952      129.722        0.157      350.176       31.144      856.839
07/07/2013  17:24:00     -305.465     -116.467      -15.952      196.571      127.695       88.090    38640.018    16305.909     7759.848        8.490        3.135      326.915       95.329        0.085      350.299       31.357      856.846
07/07/2013  17:25:00     -566.195      -57.073      -29.464      217.554      198.209      104.577    47329.947    39286.840    10936.440       21.111        4.878      569.064      111.164        0.038      350.155       31.107      856.820
07/07/2013  17:26:00     -418.592     -164.162      -18.341      228.249      150.577       89.884    52097.527    22673.306     8079.193       14.266        4.143      449.631       96.048        0.046      350.198       31.181      856.805
07/07/2013  17:27:00     -307.952     -200.797       -0.125      173.733      167.765       77.510    30183.245    28145.213     6007.766        9.973        3.217      367.632       81.784        0.049      350.303       31.365      856.828
07/07/2013  17:28:00     -443.583     -101.618      -23.751      231.440      173.101       84.369    53564.566    29963.924     7118.091       14.913        4.532      455.074       91.621        0.041      350.313       31.382      856.819
07/07/2013  17:29:00     -271.806     -193.104       19.348      244.348      122.734       96.973    59706.132    15063.662     9403.817        9.784        4.209      333.418      117.618        0.124      350.331       31.414      856.810
07/07/2013  17:30:00     -369.892     -179.123        1.326      231.717      185.433       98.512    53692.961    34385.232     9704.633       13.333        4.889      410.981      108.221        0.069      350.238       31.251      856.797
07/07/2013  17:31:00     -522.180     -136.606      -17.583      219.114      175.777       99.012    48010.957    30897.724     9803.302       19.016        4.436      539.753       97.402        0.033      350.227       31.232      856.799
07/07/2013  17:32:00     -383.037      -14.523      -20.579      245.919      154.973       82.421    60476.297    24016.513     6793.182       11.930        4.564      383.312       95.298        0.062      350.434       31.593      856.825
07/07/2013  17:33:00     -326.703      -58.561       -1.622      231.628      209.923       97.208    53651.385    44067.543     9449.390       10.865        5.358      331.910      106.026        0.102      350.283       31.330      856.815
07/07/2013  17:34:00     -503.304     -181.873       -4.108      296.769      186.853      106.083    88071.568    34913.927    11253.672       21.030        6.712      535.157      133.972        0.063      350.064       30.950      856.786
07/07/2013  17:35:00     -590.014     -108.174      -27.768      283.595      247.642      120.393    80425.968    61326.380    14494.464       25.839        7.812      599.848      130.456        0.047      350.058       30.938      856.779
07/07/2013  17:36:00     -345.484     -103.957       -0.822      241.954      176.060      104.348    58541.868    30997.218    10888.407       11.528        5.021      360.786      124.564        0.119      350.224       31.228      856.788
07/07/2013  17:37:00     -483.207     -138.747      -23.241      234.353      191.603       87.948    54921.201    36711.674     7734.822       17.630        4.968      502.732      106.155        0.045      350.054       30.934      856.807
07/07/2013  17:38:00     -535.928     -124.471      -19.013      244.168      220.722      112.190    59618.174    48718.018    12586.666       21.197        6.046      550.192      116.516        0.045      350.046       30.916      856.793
07/07/2013  17:39:00     -376.606      -55.727      -15.645      165.315      135.752       76.770    27329.197    18428.703     5893.665        9.841        2.583      380.706       62.970        0.027      350.145       31.089      856.836
07/07/2013  17:40:00     -597.218     -235.419      -14.012      324.080      187.530      109.035   105027.545    35167.608    11888.740       28.216        7.604      641.943      143.062        0.050      350.037       30.901      856.827
07/07/2013  17:41:00     -483.386     -135.001      -11.536      239.420      181.037      104.399    57321.803    32774.331    10899.113       17.649        5.050      501.883      115.965        0.053      349.995       30.829      856.812
07/07/2013  17:42:00     -436.711       -0.301       -9.812      255.576      211.789       98.490    65319.307    44854.763     9700.250       15.532        5.994      436.711      111.984        0.066      350.179       31.149      856.804
07/07/2013  17:43:00     -696.874     -136.315      -21.305      237.034      240.296      117.692    56185.257    57742.050    13851.480       31.620        6.389      710.081      128.994        0.033      349.926       30.709      856.837
07/07/2013  17:44:00     -631.687     -220.606      -20.722      264.008      220.349      106.891    69700.025    48553.749    11425.764       28.888        6.484      669.101      123.925        0.034      349.850       30.577      856.846
07/07/2013  17:45:00     -531.703      -99.099      -15.697      210.357      154.837       95.583    44250.086    23974.367     9136.049       18.505        3.868      540.859       90.116        0.028      349.974       30.793      856.875
07/07/2013  17:46:00     -212.573     -103.363       29.656      232.903      152.568       98.147    54243.723    23276.922     9632.885        7.193        4.358      236.371      113.768        0.232      350.162       31.120      856.839
07/07/2013  17:47:00     -646.839     -198.724      -38.637      250.157      219.689      104.409    62578.760    48263.263    10901.331       29.054        6.087      676.677      114.582        0.029      349.913       30.687      856.871
07/07/2013  17:48:00     -429.882     -127.833        0.408      234.081      211.913      110.337    54793.764    44907.189    12174.303       15.649        5.594      448.486      112.986        0.063      350.132       31.067      856.857
07/07/2013  17:49:00     -242.492       19.545        3.961      285.857      131.618       93.557    81714.305    17323.224     8752.837        8.347        5.390      243.278      111.954        0.212      350.271       31.310      856.868
07/07/2013  17:50:00     -644.605     -115.952      -22.341      321.788      211.018      101.211   103547.546    44528.639    10243.756       29.386        7.916      654.951      110.986        0.029      350.033       30.895      856.851
07/07/2013  17:51:00     -375.373     -146.642      -24.299      285.617      149.489       90.154    81577.270    22346.901     8127.793       13.750        5.603      403.000      124.689        0.096      349.979       30.802      856.885
07/07/2013  17:52:00     -458.252     -263.593       -7.919      233.147      172.854      107.955    54357.314    29878.448    11654.292       18.770        4.795      528.655      121.313        0.053      349.939       30.733      856.871
07/07/2013  17:53:00     -321.872      -71.420       -6.652      192.320      130.213       70.199    36986.956    16955.312     4927.888        8.380        2.944      329.700       94.881        0.083      350.144       31.089      856.892
07/07/2013  17:54:00     -512.202     -150.319      -15.987      233.805      162.612       99.808    54664.993    26442.594     9961.710       18.812        4.553      533.804      103.439        0.038      350.042       30.911      856.892
07/07/2013  17:55:00     -558.018     -124.164      -50.479      365.715      173.992      112.858   133747.805    30273.176    12736.981       25.302        8.838      571.665      161.090        0.079      349.838       30.557      856.830
07/07/2013  17:56:00     -271.266     -141.147        9.625      230.089      182.377      107.062    52940.910    33261.484    11462.208        9.561        4.883      305.790      117.200        0.147      349.972       30.790      856.862
07/07/2013  17:57:00     -267.578     -174.627      -13.600      232.914      177.764      106.116    54248.944    31600.105    11260.585        9.967        4.855      319.519      110.909        0.120      349.970       30.788      856.920
07/07/2013  17:58:00     -424.397     -199.542      -17.196      234.546      204.928       95.009    55011.830    41995.517     9026.788       16.311        5.302      468.966       97.250        0.043      349.881       30.631      856.902
07/07/2013  17:59:00     -479.096      -11.101      -23.988      256.845      197.111       92.544    65969.333    38852.852     8564.412       17.179        5.669      479.224      104.284        0.047      349.997       30.832      856.903
07/07/2013  18:00:00     -627.878     -117.205      -45.779      187.663      177.559       91.266    35217.513    31527.176     8329.492       24.255        3.754      638.724       90.254        0.020      349.835       30.551      856.918
07/07/2013  18:01:00     -460.486      -60.757      -50.968      220.205      173.731       77.277    48490.128    30182.564     5971.760       15.147        4.232      464.477       63.304        0.019      349.906       30.674      856.909
07/07/2013  18:02:00     -529.764     -117.200      -39.635      147.947      145.437       71.009    21888.283    21151.936     5042.244       17.201        2.404      542.574       58.750        0.012      349.885       30.638      856.917
07/07/2013  18:03:00     -399.905      -69.875      -18.808      179.134      160.470       70.655    32088.960    25750.632     4992.062       11.398        3.142      405.964       56.192        0.019      349.905       30.672      856.939
07/07/2013  18:04:00     -324.692      -30.870       -7.364      205.218      130.488       95.263    42114.533    17027.139     9075.115        8.731        3.411      326.156      101.757        0.097      350.075       30.968      856.948
07/07/2013  18:05:00     -352.436      -24.290       -3.209      209.690      169.409       84.965    43970.053    28699.539     7219.053       10.233        3.994      353.272       99.727        0.080      350.052       30.927      856.937
07/07/2013  18:06:00     -424.955      -84.661        3.605      302.147      234.928      123.720    91292.644    55191.259    15306.689       17.475        8.090      433.306      143.270        0.109      349.916       30.694      856.882
07/07/2013  18:07:00     -411.772     -134.437       -7.259      162.394      190.523       86.418    26371.653    36299.096     7468.095       12.890        3.507      433.162       89.561        0.043      349.898       30.660      856.891
07/07/2013  18:08:00     -314.395     -145.892      -11.526      201.266      155.239       97.192    40507.965    24099.171     9446.237        9.714        3.703      346.596      118.301        0.117      349.965       30.778      856.896
07/07/2013  18:09:00     -449.227     -178.746      -29.228      176.271      166.449       81.187    31071.326    27705.403     6591.253       14.998        3.268      483.482       79.353        0.027      349.921       30.701      856.866
07/07/2013  18:10:00     -365.195      -47.983      -27.758      213.817      190.271       97.436    45717.707    36203.171     9493.865       11.391        4.571      368.334       89.904        0.060      349.980       30.803      856.844
07/07/2013  18:11:00     -402.809     -192.121       -2.273      300.267      186.104       98.377    90160.322    34634.638     9678.079       16.680        6.724      446.279      123.472        0.077      349.939       30.733      856.832
07/07/2013  18:12:00     -483.048     -180.914        4.014      318.015      201.982      132.219   101133.265    40796.754    17481.914       21.271        7.971      515.815      167.674        0.106      349.808       30.504      856.851
07/07/2013  18:13:00     -641.211     -182.593      -22.362      342.257      272.707      116.468   117139.905    74369.134    13564.845       32.499       10.254      666.702      138.015        0.043      349.819       30.524      856.811
07/07/2013  18:14:00     -648.582     -148.899      -35.320      301.848      201.836      124.787    91111.982    40737.674    15571.838       29.572        7.371      665.454      132.152        0.039      349.733       30.374      856.848
07/07/2013  18:15:00     -343.307     -109.729       -9.334      202.582      202.675      102.457    41039.274    41077.120    10497.536       11.128        4.631      360.416      108.075        0.090      349.916       30.693      856.928
07/07/2013  18:16:00     -256.022     -206.123       21.505      257.390      204.509      126.526    66249.429    41824.030    16008.759       11.626        6.204      328.685      145.710        0.197      349.785       30.466      856.988
07/07/2013  18:17:00     -454.589     -223.644       -2.342      263.492      206.514      112.701    69427.924    42647.963    12701.420       19.070        6.239      506.624      128.507        0.064      349.661       30.249      857.021
07/07/2013  18:18:00     -484.935     -186.545       -6.187      278.805      205.177       90.530    77732.438    42097.521     8195.630       19.899        6.401      519.577      108.088        0.043      349.634       30.202      857.018
07/07/2013  18:19:00     -469.130     -235.495       -8.194      227.407      229.225      105.499    51714.092    52543.983    11129.986       19.547        5.769      524.920      110.935        0.045      349.615       30.171      857.011
07/07/2013  18:20:00     -367.394     -270.508       -0.664      247.570      255.777      120.266    61290.738    65421.804    14463.819       17.464        7.059      456.238      113.670        0.062      349.690       30.298      856.978
07/07/2013  18:21:00     -275.224     -265.552       -3.227      226.619      190.841      124.835    51356.334    36420.383    15583.877       12.480        5.168      382.448      125.849        0.108      349.655       30.240      856.976
07/07/2013  18:22:00     -495.459     -181.950      -14.571      302.376      176.045       91.257    91431.024    30991.844     8327.838       20.475        6.538      527.812      123.207        0.054      349.644       30.220      857.003
07/07/2013  18:23:00     -301.721     -167.025       -5.434      214.755      165.628       82.768    46119.660    27432.743     6850.610        9.967        4.020      344.867       92.735        0.072      349.716       30.344      857.010
07/07/2013  18:24:00     -517.288     -304.157      -24.280      293.910      217.120      121.382    86383.037    47141.256    14733.664       25.444        7.413      600.082      135.746        0.051      349.603       30.149      856.973
07/07/2013  18:25:00     -399.735     -303.595       -3.563      294.923      211.513      127.278    86979.397    44737.657    16199.622       19.991        7.396      501.955      130.696        0.068      349.586       30.120      856.996
07/07/2013  18:26:00     -577.484     -156.929      -47.343      249.486      195.920       92.781    62243.216    38384.710     8608.296       23.477        5.462      598.427      107.508        0.032      349.617       30.174      856.985
07/07/2013  18:27:00     -631.096      -97.427      -39.692      229.012      183.056       82.700    52446.489    33509.652     6839.270       25.105        4.640      638.572       90.254        0.020      349.567       30.086      857.011
07/07/2013  18:28:00     -470.470      -98.838        1.667      270.149      167.410      106.389    72980.701    28026.252    11318.529       17.170        5.616      480.740      130.128        0.073      349.669       30.264      856.990
07/07/2013  18:29:00     -444.700      -86.123       -8.172      234.940      204.376       91.441    55197.036    41769.636     8361.525       15.526        5.266      452.963       96.410        0.045      349.678       30.278      857.009
07/07/2013  18:30:00     -600.320     -254.194      -21.041      187.186      222.792      111.327    35038.522    49636.308    12393.665       26.124        4.853      651.919      112.038        0.030      349.555       30.066      856.997
07/07/2013  18:31:00     -319.297      -51.015       -3.148      167.652      115.911       74.722    28107.159    13435.370     5583.446        7.584        2.356      323.347       79.006        0.060      349.729       30.366      857.019
07/07/2013  18:32:00     -347.008     -123.530       -5.047      228.726      176.738       89.101    52315.600    31236.252     7938.985       11.358        4.575      368.340      108.984        0.088      349.599       30.143      857.009
07/07/2013  18:33:00     -262.960      -33.432       -7.407      159.701       97.689       69.767    25504.299     9543.095     4867.464        5.511        1.996      265.077       67.063        0.064      349.717       30.347      857.034
07/07/2013  18:34:00     -304.818      -24.432      -19.259      269.265      187.486       94.896    72503.683    35151.107     9005.209       10.525        5.833      305.796      108.966        0.127      349.667       30.260      857.046
07/07/2013  18:35:00     -450.135     -113.356        4.923      266.136      179.876       97.706    70828.617    32355.244     9546.454       16.409        5.637      464.188      123.551        0.071      349.609       30.159      857.004
07/07/2013  18:36:00     -266.766      -56.206       11.918      170.853      129.989       85.918    29190.714    16897.021     7381.925        6.396        2.673      272.623       84.518        0.096      349.649       30.229      857.014
07/07/2013  18:37:00     -352.468     -103.761       -0.398      176.678      129.062       80.978    31215.120    16656.929     6557.507        9.470        2.721      367.424       74.378        0.041      349.690       30.298      857.004
07/07/2013  18:38:00     -450.291     -109.629      -10.184      240.986      160.649       82.559    58074.165    25808.086     6816.049       15.277        4.535      463.445       99.718        0.046      349.657       30.242      857.023
07/07/2013  18:39:00     -417.454     -187.927      -16.044      183.026      149.436       82.472    33498.530    22331.022     6801.635       13.622        3.132      457.804       83.442        0.033      349.686       30.292      857.062
07/07/2013  18:40:00     -499.516     -230.464      -13.100      344.878      206.990      105.031   118940.498    42845.026    11031.424       23.777        8.641      550.118      129.402        0.055      349.504       29.976      857.069
07/07/2013  18:41:00     -637.550     -223.319      -53.276      254.257      257.057      111.027    64646.736    66078.105    12327.080       30.109        7.153      675.531      116.183        0.030      349.496       29.963      857.077
07/07/2013  18:42:00     -382.807     -105.813        2.945      241.047      170.779       94.639    58103.507    29165.350     8956.457       12.697        4.811      397.162       95.312        0.058      349.537       30.035      857.107
07/07/2013  18:43:00     -393.170     -289.161       -7.065      209.406      208.746       91.253    43850.745    43574.818     8327.080       16.698        4.788      488.054       94.430        0.037      349.465       29.909      857.074
07/07/2013  18:44:00     -293.155      -61.697       -5.668      175.552      119.730       83.266    30818.560    14335.237     6933.160        7.092        2.604      299.577       94.378        0.099      349.608       30.157      857.075
07/07/2013  18:45:00     -330.198      -70.312       21.487      232.894      168.068       93.596    54239.384    28246.717     8760.187       10.282        4.562      337.601      120.344        0.127      349.532       30.027      857.068
07/07/2013  18:46:00     -273.320      -85.994        9.225      182.755      166.344       93.167    33399.309    27670.264     8680.053        7.595        3.487      286.529      101.465        0.125      349.553       30.063      857.064
07/07/2013  18:47:00     -214.713     -128.857       -2.272      244.552      162.130       90.954    59805.889    26286.156     8272.673        7.852        4.718      250.411       94.534        0.143      349.491       29.955      857.065
07/07/2013  18:48:00     -273.351     -114.560        0.449      169.844      116.579       72.581    28847.087    13590.678     5267.965        6.777        2.385      296.386       82.352        0.077      349.532       30.025      857.094
07/07/2013  18:49:00     -294.462      -42.339      -13.908      244.380      119.673       71.789    59721.481    14321.561     5153.646        8.393        3.960      297.490       88.006        0.088      349.587       30.121      857.116
07/07/2013  18:50:00     -309.116      -48.095      -23.019      166.954      130.167       68.061    27873.740    16943.552     4632.355        7.391        2.472      312.835       83.300        0.071      349.572       30.095      857.114
07/07/2013  18:51:00     -437.062     -107.149      -12.486      252.878      191.576       90.470    63947.158    36701.311     8184.773       15.572        5.442      450.004      100.310        0.050      349.473       29.924      857.155
07/07/2013  18:52:00     -513.090     -123.545      -21.757      237.450      183.598       97.099    56382.470    33708.087     9428.224       18.924        4.976      527.754      112.201        0.045      349.441       29.868      857.177
07/07/2013  18:53:00     -591.146     -252.075      -17.877      290.053      263.141      125.068    84130.562    69243.393    15641.921       29.113        8.451      642.647      137.277        0.046      349.325       29.666      857.165
07/07/2013  18:54:00     -587.230     -132.070      -32.380      278.965      195.443      124.935    77821.241    38198.068    15608.764       24.745        6.581      601.898      146.536        0.059      349.344       29.700      857.199
07/07/2013  18:55:00     -695.716     -238.967      -41.532      192.611      165.806       98.646    37099.058    27491.470     9731.052       30.857        3.716      735.612       93.551        0.016      349.286       29.599      857.201
07/07/2013  18:56:00     -376.157     -116.623       -1.506      278.541      204.999      102.585    77585.355    42024.536    10523.750       14.259        6.507      393.821      123.244        0.098      349.383       29.768      857.236
07/07/2013  18:57:00     -496.885      -52.366      -30.664      269.563      180.581       94.550    72664.444    32609.657     8939.769       18.237        5.711      499.637      108.925        0.048      349.336       29.685      857.203
07/07/2013  18:58:00     -528.899     -215.622      -12.525      321.933      191.094      122.371   103640.543    36516.951    14974.665       24.073        7.757      571.162      151.778        0.071      349.324       29.664      857.232
07/07/2013  18:59:00     -309.639      -64.811      -22.562      355.942      170.680      119.762   126694.386    29131.503    14343.055       13.534        8.508      316.350      145.064        0.210      349.336       29.688      857.217
07/07/2013  19:00:00     -307.679      -75.876       -2.192      206.152      166.663       80.332    42498.805    27776.433     6453.169        8.856        3.836      316.897       87.270        0.076      349.383       29.767      857.223
07/07/2013  19:01:00     -423.767      -93.923      -17.779      220.045      150.006       74.486    48419.829    22501.828     5548.179       13.258        3.823      434.050       85.957        0.039      349.344       29.702      857.234
07/07/2013  19:02:00     -529.976      -24.374      -28.162      254.204      158.409       89.314    64619.659    25093.443     7976.993       18.996        4.885      530.536      109.977        0.043      349.325       29.667      857.198
07/07/2013  19:03:00     -503.383     -136.035       -9.662      306.192      242.262      107.825    93753.296    58690.968    11626.183       21.800        8.204      521.440      123.568        0.056      349.290       29.606      857.191
07/07/2013  19:04:00     -514.584     -210.102      -27.233      257.553      197.718       98.083    66333.799    39092.432     9620.238       21.234        5.752      555.824      107.716        0.038      349.300       29.623      857.192
07/07/2013  19:05:00     -639.757     -148.133      -38.020      223.205      172.100      104.480    49820.502    29618.438    10916.147       26.150        4.518      656.683      100.468        0.023      349.257       29.550      857.228
07/07/2013  19:06:00     -589.914     -161.357      -21.141      251.231      208.035       99.805    63116.783    43278.752     9961.003       24.540        5.818      611.584      110.386        0.033      349.240       29.518      857.250
07/07/2013  19:07:00     -551.981     -112.355       -7.045      278.007      194.126      100.170    77287.615    37684.736    10034.091       22.116        6.250      563.300      117.470        0.043      349.236       29.512      857.293
07/07/2013  19:08:00     -554.611      -58.963      -21.098      278.247      186.804      106.081    77421.439    34895.893    11253.272       21.752        6.179      557.736      135.364        0.059      349.225       29.494      857.330
07/07/2013  19:09:00     -547.010      -64.817      -30.909      229.790      185.001       90.707    52803.356    34225.495     8227.703       19.980        4.763      550.837      102.253        0.034      349.208       29.464      857.352
07/07/2013  19:10:00     -436.529      -56.948       -2.621      201.306      158.794       70.223    40524.198    25215.623     4931.305       13.223        3.534      440.228       72.125        0.027      349.233       29.509      857.391
07/07/2013  19:11:00     -462.133     -109.394      -12.275      186.350      138.915       75.418    34726.381    19297.364     5687.838       14.269        2.986      474.905       82.911        0.030      349.195       29.441      857.390
07/07/2013  19:12:00     -322.021     -138.826       -9.091      185.281      121.058       90.482    34328.998    14655.088     8187.009        9.010        2.859      350.671       97.980        0.078      349.238       29.517      857.389
07/07/2013  19:13:00     -212.621      -64.412       -2.398      144.431      107.719       75.467    20860.372    11603.403     5695.196        4.375        1.908      222.164       80.308        0.131      349.295       29.616      857.390
07/07/2013  19:14:00     -203.140        2.535       -0.746      173.577      116.435       68.917    30128.843    13557.157     4749.585        4.484        2.422      203.156       81.321        0.160      349.297       29.621      857.410
07/07/2013  19:15:00     -527.736     -113.706      -14.987      184.435      170.655       86.060    34016.193    29123.064     7406.292       18.109        3.527      539.846       78.883        0.021      349.193       29.439      857.366
07/07/2013  19:16:00     -504.667     -157.736       -7.948      266.494      182.207      102.879    71019.226    33199.359    10584.186       19.719        5.740      528.744      129.538        0.060      349.134       29.335      857.372
07/07/2013  19:17:00     -424.483     -126.092      -14.193      296.208      185.354       88.878    87739.419    34356.058     7899.367       16.311        6.500      442.815      100.943        0.052      349.168       29.396      857.373
07/07/2013  19:18:00     -236.180      -58.070        7.010      187.425      152.012       78.338    35128.314    23107.576     6136.898        6.177        3.219      243.214       97.446        0.161      349.248       29.535      857.381
07/07/2013  19:19:00     -380.284     -156.485      -11.249      241.706      169.846       95.426    58421.661    28847.548     9106.210       13.278        4.819      411.222      109.560        0.071      349.109       29.292      857.373
07/07/2013  19:20:00     -306.346      -81.736       14.202      257.349      173.320      103.878    66228.695    30039.834    10790.637       10.387        5.353      317.062      121.846        0.148      349.118       29.306      857.383
07/07/2013  19:21:00     -524.805     -156.090      -28.986      189.687      147.081       87.609    35981.048    21632.931     7675.294       18.294        3.264      547.526       90.597        0.027      349.085       29.250      857.419
07/07/2013  19:22:00     -349.017      -13.046      -22.154      210.604      138.078       69.760    44354.106    19065.577     4866.415        9.537        3.414      349.261       84.413        0.058      349.119       29.309      857.433
07/07/2013  19:23:00     -428.626     -104.459      -24.261      168.792      131.128       76.035    28490.739    17194.443     5781.347       12.333        2.573      441.171       84.486        0.037      349.088       29.255      857.443
07/07/2013  19:24:00     -212.090      -81.768        0.781      118.449      103.725       57.228    14030.154    10758.960     3275.000        3.986        1.403      227.306       43.477        0.037      349.109       29.292      857.425
07/07/2013  19:25:00     -455.836      -82.551      -26.641      181.280      179.771      100.977    32862.310    32317.612    10196.279       14.533        3.769      463.251       93.017        0.040      349.058       29.205      857.424
07/07/2013  19:26:00     -443.062     -148.750      -15.891      226.437      176.674       95.343    51273.821    31213.686     9090.220       15.511        4.579      467.365      101.484        0.047      349.040       29.173      857.437
07/07/2013  19:27:00     -566.548      -80.538      -16.980      227.948      160.743       89.416    51960.392    25838.293     7995.292       20.676        4.290      572.244       93.081        0.026      348.998       29.100      857.453
07/07/2013  19:28:00     -381.455     -134.601      -17.075      235.936      219.722       90.432    55665.675    48277.561     8177.886       13.800        5.606      404.506      113.497        0.079      349.010       29.120      857.481
07/07/2013  19:29:00     -664.267      -40.258      -47.752      226.425      185.650      100.989    51268.255    34465.902    10198.694       27.052        4.797      665.485      106.841        0.026      348.966       29.045      857.482
07/07/2013  19:30:00     -494.232       -3.476      -32.791      212.037      166.331       87.119    44959.573    27665.857     7589.672       16.277        4.011      494.244       96.943        0.038      348.987       29.081      857.504
07/07/2013  19:31:00     -611.218      -20.734      -54.635      266.766      171.898       88.651    71164.244    29548.774     7859.008       24.277        5.429      611.569      110.030        0.032      348.946       29.010      857.504
07/07/2013  19:32:00     -509.488     -127.695      -21.122      179.023      155.672       81.574    32049.082    24233.782     6654.240       16.962        3.147      525.247       87.019        0.027      348.927       28.977      857.517
07/07/2013  19:33:00     -372.084      -20.453      -19.744      192.347      121.914       61.852    36997.262    14863.068     3825.635        9.746        2.784      372.646       74.013        0.039      348.939       28.999      857.553
07/07/2013  19:34:00     -469.930       -8.095      -31.555      158.025      148.291       68.392    24971.834    21990.145     4677.510       13.676        2.582      470.000       67.751        0.021      348.912       28.952      857.574
07/07/2013  19:35:00     -392.497      -93.650      -16.755      155.970      115.740       65.195    24326.582    13395.653     4250.453       10.253        2.099      403.515       70.759        0.031      348.913       28.952      857.613
07/07/2013  19:36:00     -264.222     -111.132      -11.674      116.320      151.364       62.005    13530.324    22911.090     3844.628        6.128        2.014      286.642       68.721        0.057      348.946       29.010      857.625
07/07/2013  19:37:00     -288.648     -115.819      -12.583      216.519      142.285       81.664    46880.417    20245.070     6669.039        8.533        3.690      311.017       75.240        0.059      348.934       28.990      857.612
07/07/2013  19:38:00     -457.032      -98.631      -22.326      179.143      184.994       84.272    32092.038    34222.922     7101.763       14.625        3.671      467.553       80.169        0.029      348.918       28.962      857.568
07/07/2013  19:39:00     -456.239      -33.019      -20.892      168.565      148.377       79.050    28414.259    22015.671     6248.898       13.317        2.834      457.432       84.403        0.034      348.889       28.911      857.610
07/07/2013  19:40:00     -255.754      -61.323      -11.373      146.801      113.489       57.114    21550.424    12879.678     3262.025        5.349        1.885      263.003       59.938        0.052      348.917       28.961      857.623
07/07/2013  19:41:00     -358.023     -173.634      -13.929      218.250      149.752       83.909    47632.967    22425.726     7040.735       11.780        3.855      397.906       91.193        0.053      348.903       28.937      857.627
07/07/2013  19:42:00     -289.326      -75.742       -5.716      228.067      157.799       92.084    52014.361    24900.418     8479.554        8.742        4.270      299.076      104.284        0.122      348.892       28.915      857.639
07/07/2013  19:43:00     -194.850      -73.067        5.677      251.735      156.979      110.241    63370.467    24642.295    12153.028        7.173        5.008      208.100      133.678        0.413      348.892       28.917      857.627
07/07/2013  19:44:00     -404.000      -48.658      -18.718      245.029      145.642       97.461    60039.255    21211.635     9498.695       12.832        4.537      406.920      118.829        0.085      348.855       28.851      857.662
07/07/2013  19:45:00     -467.132      -67.580      -17.848      241.071      161.596       87.724    58115.026    26113.286     7695.467       15.749        4.596      471.995      107.411        0.052      348.825       28.799      857.678
07/07/2013  19:46:00     -483.968     -111.406      -37.137      186.127      122.090       68.787    34643.082    14905.985     4731.635       15.114        2.714      496.625       74.469        0.022      348.800       28.757      857.712
07/07/2013  19:47:00     -395.912        5.245      -19.028      169.313      114.941       65.891    28666.939    13211.436     4341.665       10.167        2.311      395.947       75.086        0.036      348.808       28.770      857.733
07/07/2013  19:48:00     -409.795     -121.341        0.311      171.674      132.213       72.353    29471.901    17480.261     5234.916       11.741        2.609      427.382       78.427        0.034      348.754       28.678      857.753
07/07/2013  19:49:00     -202.775       -2.971        4.947      159.786       97.849       52.746    25531.593     9574.473     2782.115        3.951        1.894      202.796       67.160        0.110      348.767       28.701      857.763
07/07/2013  19:50:00     -204.051       10.427       -9.048      145.388      112.188       62.185    21137.598    12586.073     3866.984        3.970        1.880      204.317       56.389        0.076      348.744       28.663      857.756
07/07/2013  19:51:00     -238.137      -44.788        6.754      145.363      129.224       72.922    21130.296    16698.776     5317.595        5.094        2.157      242.312       84.621        0.122      348.730       28.637      857.743
07/07/2013  19:52:00     -501.778     -145.089      -37.500      243.929      180.070      102.396    59501.186    32425.168    10484.957       18.830        5.121      522.333      114.055        0.048      348.717       28.614      857.662
07/07/2013  19:53:00     -632.207     -169.910      -35.300      217.291      150.443       89.922    47215.489    22633.074     8085.908       25.385        3.897      654.642       90.481        0.019      348.681       28.553      857.702
07/07/2013  19:54:00     -366.512     -130.137       -7.293      175.607      128.451       78.718    30837.658    16499.645     6196.523       10.242        2.677      388.930       95.625        0.060      348.685       28.559      857.739
07/07/2013  19:55:00     -480.467     -138.907      -28.566      274.706      144.625       81.462    75463.635    20916.266     6636.045       17.697        5.151      500.144       93.987        0.035      348.676       28.542      857.781
07/07/2013  19:56:00     -312.624      -58.217      -11.652      170.383      105.033       69.064    29030.264    11031.971     4769.887        7.304        2.242      317.998       84.518        0.071      348.646       28.490      857.789
07/07/2013  19:57:00     -380.222      -67.663       -9.862      168.272      115.990       74.618    28315.363    13453.673     5567.887        9.828        2.367      386.196       85.868        0.049      348.624       28.452      857.800
07/07/2013  19:58:00     -355.234      -46.974        1.598      193.306      118.291       72.517    37367.074    13992.783     5258.668        9.250        2.831      358.326       86.548        0.058      348.578       28.374      857.815
07/07/2013  19:59:00     -376.164      -56.803      -24.991      126.620      130.274       81.761    16032.642    16971.296     6684.812        9.251        1.984      380.428       80.448        0.045      348.590       28.394      857.819
07/07/2013  20:00:00     -285.166      -37.825      -16.633      145.495       87.296       50.442    21168.818     7620.640     2544.443        5.717        1.567      287.664       61.708        0.046      348.577       28.370      857.830
07/07/2013  20:01:00     -297.717      -44.861      -31.096      148.846       91.202       52.803    22154.985     8317.735     2788.187        6.243        1.663      301.078       69.244        0.053      348.569       28.354      857.818
07/07/2013  20:02:00     -207.261      -61.074        3.579      130.216      100.059       51.389    16956.280    10011.860     2640.832        3.815        1.480      216.072       55.036        0.065      348.552       28.329      857.859
07/07/2013  20:03:00     -142.039      -71.128        1.475      105.413      103.437       53.484    11111.963    10699.303     2860.526        2.495        1.234      158.853       44.333        0.078      348.496       28.232      857.899
07/07/2013  20:04:00     -252.175      -68.496       -7.869      178.082      125.228       69.317    31713.223    15682.160     4804.891        6.026        2.610      261.312       84.982        0.106      348.516       28.266      857.916
07/07/2013  20:05:00     -306.418     -109.776      -14.387      190.635      133.085       65.177    36341.763    17711.701     4248.060        8.221        2.915      325.489       77.822        0.057      348.466       28.182      857.921
07/07/2013  20:06:00     -378.120      -78.828      -23.965      133.028      125.313       69.144    17696.420    15703.263     4780.916        9.396        1.909      386.249       53.359        0.019      348.428       28.112      857.928
07/07/2013  20:07:00     -333.491      -59.866       -8.528      152.896      102.756       65.208    23377.300    10558.693     4252.081        7.652        1.909      338.822       68.449        0.041      348.386       28.040      857.938
07/07/2013  20:08:00     -403.008     -121.837       -6.539      179.699      114.220       66.736    32291.679    13046.129     4453.747       11.354        2.490      421.022       75.751        0.032      348.395       28.058      857.926
07/07/2013  20:09:00     -306.829     -121.173        1.611      179.208      142.043       86.525    32115.528    20176.275     7486.654        8.429        2.989      329.889       89.400        0.073      348.392       28.052      857.904
07/07/2013  20:10:00     -300.927       12.395      -13.882      136.841       95.405       57.241    18725.484     9102.060     3276.520        6.100        1.555      301.182       64.445        0.046      348.381       28.033      857.926
07/07/2013  20:11:00     -350.929     -107.888       -7.552      187.361      139.217       79.291    35104.108    19381.417     6287.136        9.780        3.039      367.138       68.661        0.035      348.349       27.976      857.935
07/07/2013  20:12:00     -329.705      -76.872        8.263      238.913      126.438       75.823    57079.387    15986.520     5749.168        9.673        3.941      338.548      101.233        0.089      348.324       27.935      857.957
07/07/2013  20:13:00     -302.477      -95.606       14.355      170.113      136.206       70.878    28938.488    18551.966     5023.745        7.667        2.626      317.226       83.318        0.069      348.301       27.894      857.962
07/07/2013  20:14:00     -407.676      -74.130      -21.580      165.681      129.729       67.067    27450.314    16829.699     4497.950       11.046        2.439      414.361       67.164        0.026      348.298       27.888      858.015
07/07/2013  20:15:00     -489.631       -6.612      -33.808      150.704      132.700       67.639    22711.715    17609.406     4574.994       14.290        2.245      489.676       65.847        0.018      348.322       27.930      858.052
07/07/2013  20:16:00     -505.606     -105.816      -29.241      121.436       92.314       58.664    14746.799     8521.794     3441.428       14.719        1.336      516.560       56.746        0.012      348.367       28.006      858.080
07/07/2013  20:17:00     -258.318     -100.408      -28.300      135.985      123.126       54.915    18491.885    15159.913     3015.690        5.713        1.833      277.146       43.731        0.025      348.347       27.974      858.082
07/07/2013  20:18:00     -243.621      -56.244      -11.219      124.463      101.181       43.507    15491.140    10237.658     1892.820        4.513        1.381      250.029       53.513        0.046      348.319       27.924      858.107
07/07/2013  20:19:00     -199.797       15.423        0.761      131.995       78.321       50.887    17422.753     6134.101     2589.439        3.315        1.307      200.391       56.999        0.081      348.264       27.832      858.115
07/07/2013  20:20:00     -313.937      -65.702      -14.504      137.092      125.508       61.950    18794.338    15752.224     3837.779        7.073        1.919      320.739       63.531        0.039      348.245       27.797      858.123
07/07/2013  20:21:00     -239.882      -89.654       -9.947      126.497       81.641       55.368    16001.366     6665.292     3065.563        4.570        1.287      256.089       45.653        0.032      348.245       27.796      858.124
07/07/2013  20:22:00     -242.246       -7.704      -18.761      159.749       77.851       48.501    25519.893     6060.721     2352.331        4.651        1.697      242.368       58.632        0.059      348.222       27.757      858.162
07/07/2013  20:23:00     -431.283      -26.665      -39.854      158.936      164.290       72.418    25260.575    26991.287     5244.377       12.289        2.875      432.106       70.700        0.027      348.231       27.773      858.208
07/07/2013  20:24:00     -371.842      -60.367      -26.986      164.371      147.300       78.673    27017.705    21697.184     6189.391        9.876        2.745      376.710       84.863        0.051      348.224       27.759      858.238
07/07/2013  20:25:00     -368.362      -99.988       -8.873      145.390      113.029       65.091    21138.180    12775.579     4236.860        9.195        1.908      381.691       69.346        0.033      348.225       27.764      858.253
07/07/2013  20:26:00     -289.030      -69.013      -13.572      147.744      144.376       68.460    21828.322    20844.410     4686.788        6.791        2.368      297.155       69.215        0.054      348.207       27.730      858.269
07/07/2013  20:27:00     -292.813       47.300      -27.162       94.051       71.233       51.528     8845.636     5074.157     2655.156        5.264        0.829      296.609       38.653        0.017      348.196       27.713      858.307
07/07/2013  20:28:00     -279.999      -54.472      -23.593      132.226       62.587       48.058    17483.723     3917.098     2309.607        5.281        1.186      285.248       50.882        0.032      348.215       27.746      858.315
07/07/2013  20:29:00     -288.730      -48.990       -7.864      157.546       88.213       65.947    24820.811     7781.468     4348.943        6.138        1.848      292.856       73.145        0.062      348.152       27.637      858.316
07/07/2013  20:30:00     -513.452     -105.368      -24.501      145.375      141.743       76.121    21133.765    20091.034     5794.393       16.117        2.351      524.152       76.521        0.021      348.130       27.598      858.322
07/07/2013  20:31:00     -330.022      -32.260       -1.642      153.637      122.649       55.937    23604.415    15042.712     3128.909        7.586        2.089      331.595       59.035        0.032      348.088       27.526      858.317
07/07/2013  20:32:00     -451.201      -84.419      -33.416      133.065      155.324       67.647    17706.408    24125.451     4576.143       12.911        2.320      459.030       68.991        0.023      348.102       27.549      858.319
07/07/2013  20:33:00     -498.252      -98.603      -22.713      191.260      123.514       77.932    36580.540    15255.755     6073.414       15.819        2.895      507.915       77.812        0.023      348.141       27.618      858.331
07/07/2013  20:34:00     -358.911      -33.468      -14.824      202.803      112.560       80.755    41129.156    12669.645     6521.300        9.523        3.016      360.469      101.359        0.079      348.117       27.576      858.338
07/07/2013  20:35:00     -497.181      -90.029      -38.132      202.059      123.259       78.051    40827.764    15192.701     6091.955       15.942        3.106      505.266       95.248        0.036      348.110       27.563      858.350
07/07/2013  20:36:00     -346.764      -61.016      -14.986      154.704      109.046       59.778    23933.260    11891.053     3573.467        8.179        1.970      352.091       66.204        0.035      348.092       27.531      858.358
07/07/2013  20:37:00     -372.056      -46.620      -25.209      125.441      107.633       63.232    15735.513    11584.816     3998.305        8.627        1.566      374.965       59.779        0.025      348.075       27.502      858.394
07/07/2013  20:38:00     -237.467      -39.732        0.495      149.417       93.583       49.299    22325.575     8757.747     2430.390        4.574        1.676      240.768       51.285        0.045      348.071       27.497      858.404
07/07/2013  20:39:00     -227.488      -51.799       -7.601       65.456       95.982       43.968     4284.442     9212.474     1933.213        3.496        0.772      233.311       37.941        0.026      348.063       27.482      858.424
07/07/2013  20:40:00     -322.656      -71.469      -19.885      124.876      119.265       53.701    15594.064    14224.041     2883.786        7.115        1.635      330.476       45.504        0.019      348.092       27.532      858.436
07/07/2013  20:41:00     -474.314      -77.190      -23.835      162.336      132.257       68.571    26352.961    17492.044     4701.970       14.001        2.427      480.554       79.639        0.027      348.072       27.497      858.449
07/07/2013  20:42:00     -319.013      -90.880      -10.542      142.135      130.082       61.423    20202.371    16921.391     3772.835        7.551        2.045      331.705       57.296        0.030      348.027       27.419      858.471
07/07/2013  20:43:00     -469.181      -56.916      -20.125      168.060      129.018       58.888    28244.223    16645.669     3467.753       13.606        2.418      472.621       65.219        0.019      348.011       27.392      858.496
07/07/2013  20:44:00     -355.324      -47.382       -9.164      125.147      130.438       78.031    15661.651    17013.995     6088.851        8.367        1.938      358.469       53.959        0.023      347.971       27.324      858.531
07/07/2013  20:45:00     -283.997      -68.168       -7.991      154.066      119.758       66.624    23736.330    14341.860     4438.787        6.393        2.126      292.064       68.182        0.054      347.954       27.297      858.538
07/07/2013  20:46:00     -301.448      -97.412       -2.442      145.195      107.007       70.062    21081.645    11450.580     4908.749        6.890        1.872      316.796       73.222        0.053      347.936       27.264      858.517
07/07/2013  20:47:00     -303.603     -168.204      -16.042      130.609      124.576       63.847    17058.755    15519.152     4076.393        7.868        1.833      347.084       58.752        0.029      347.941       27.272      858.489
07/07/2013  20:48:00     -363.868      -44.055       -6.471      159.292      137.167       69.442    25374.072    18814.876     4822.214        9.169        2.451      366.525       70.616        0.037      347.940       27.270      858.509
07/07/2013  20:49:00     -512.131       -8.049      -18.184      180.471      143.969       79.741    32569.786    20726.966     6358.644       16.115        2.983      512.194       85.096        0.028      348.057       27.470      858.554
07/07/2013  20:50:00     -317.841      -79.416       -9.204      102.404      114.823       61.415    10486.582    13184.283     3771.854        6.742        1.372      327.613       53.033        0.026      348.045       27.452      858.575
07/07/2013  20:51:00     -288.844      -34.870        0.839      149.825       97.304       59.559    22447.628     9468.125     3547.239        6.005        1.773      290.941       60.777        0.044      348.027       27.421      858.630
07/07/2013  20:52:00     -296.176      -70.029       -5.463      132.347      100.122       48.946    17515.829    10024.468     2395.701        6.129        1.497      304.342       50.759        0.028      348.004       27.380      858.670
07/07/2013  20:53:00     -375.884     -111.677       -4.836      139.529      108.666       59.693    19468.476    11808.204     3563.309        9.430        1.742      392.123       56.710        0.021      348.055       27.468      858.677
07/07/2013  20:54:00     -236.191      -46.256        2.345      124.188      110.016       55.682    15422.613    12103.487     3100.524        4.427        1.531      240.678       64.734        0.072      347.926       27.246      858.710
07/07/2013  20:55:00     -289.764      -98.357       -5.114      102.943      111.536       59.989    10597.288    12440.227     3598.710        6.014        1.332      306.002       45.409        0.022      347.948       27.284      858.737
07/07/2013  20:56:00     -332.154      -43.824      -16.232      157.751      121.016       59.999    24885.401    14644.908     3599.841        7.781        2.157      335.032       74.889        0.050      347.956       27.298      858.737
07/07/2013  20:57:00     -389.034      -76.544       -8.276      178.623      109.852       71.428    31906.166    12067.519     5101.960       10.317        2.454      396.493       82.065        0.043      347.916       27.229      858.771
07/07/2013  20:58:00     -389.344      -38.469      -30.330      151.634       97.679       60.080    22992.994     9541.128     3609.584        9.506        1.807      391.240       65.052        0.028      347.976       27.334      858.785
07/07/2013  20:59:00     -368.935       -4.471      -26.560      159.559      115.907       70.994    25459.175    13434.538     5040.161        9.038        2.197      368.962       84.743        0.053      347.944       27.277      858.765
07/07/2013  21:00:00     -429.095      -58.491      -15.074      202.453      129.706       76.410    40987.176    16823.651     5838.435       12.570        3.182      433.063       93.159        0.046      347.894       27.190      858.763
07/07/2013  21:01:00     -374.980     -157.808      -13.651      169.892      141.972       72.202    28863.189    20155.910     5213.060       10.996        2.712      406.833       84.759        0.043      347.899       27.200      858.796
07/07/2013  21:02:00     -265.735     -106.726       11.123      115.364      109.745       62.601    13308.925    12043.975     3918.916        5.569        1.464      286.366       65.814        0.053      347.884       27.172      858.815
07/07/2013  21:03:00     -298.906       79.076      -14.296      133.180       99.568       58.249    17736.901     9913.701     3392.998        6.342        1.552      309.189       52.447        0.029      347.906       27.212      858.821
07/07/2013  21:04:00     -335.135       15.012      -11.563      125.930      101.283       62.984    15858.434    10258.235     3966.968        7.137        1.504      335.471       58.113        0.030      347.883       27.172      858.830
07/07/2013  21:05:00     -359.867      -42.730      -18.021      144.275       93.588       56.439    20815.164     8758.725     3185.357        8.220        1.638      362.395       69.439        0.037      347.915       27.227      858.828
07/07/2013  21:06:00     -387.456      -48.607      -24.377      137.476       86.796       62.881    18899.699     7533.563     3954.077        9.173        1.519      390.493       72.018        0.034      347.883       27.171      858.818
07/07/2013  21:07:00     -424.002      -86.734      -10.720      135.360      104.496       67.927    18322.420    10919.445     4614.067       11.063        1.693      432.783       67.645        0.024      347.885       27.175      858.831
07/07/2013  21:08:00     -268.846      -25.928       -8.510      125.984       86.586       58.765    15871.852     7497.054     3453.341        4.992        1.341      270.093       55.972        0.043      347.806       27.040      858.857
07/07/2013  21:09:00     -253.850      -25.138       -5.647      119.320      112.200       58.712    14237.180    12588.887     3447.094        4.768        1.514      255.092       63.519        0.062      347.762       26.963      858.871
07/07/2013  21:10:00     -250.941      -69.400       -9.500       85.291       92.747       47.837     7274.504     8602.025     2288.370        4.302        0.908      260.360       37.115        0.020      347.765       26.968      858.877
07/07/2013  21:11:00     -326.478      -13.519      -10.688      142.587      106.368       66.732    20330.945    11314.171     4453.110        7.148        1.805      326.758       71.313        0.048      347.739       26.924      858.856
07/07/2013  21:12:00     -392.281      -98.252      -16.971      149.913      121.669       59.799    22473.953    14803.392     3575.904       10.233        2.043      404.399       60.842        0.023      347.761       26.962      858.868
07/07/2013  21:13:00     -373.329     -100.231      -17.861      156.846      109.118       68.397    24600.618    11906.752     4678.178        9.545        2.059      386.550       66.556        0.030      347.740       26.924      858.866
07/07/2013  21:14:00     -348.294     -159.417      -12.395      139.780      120.825       65.930    19538.343    14598.689     4346.786        9.267        1.924      383.043       69.762        0.033      347.762       26.963      858.858
07/07/2013  21:15:00     -213.384     -121.520        8.994      166.797      116.078       73.229    27821.275    13474.048     5362.483        5.351        2.333      245.560       73.106        0.089      347.750       26.943      858.877
07/07/2013  21:16:00     -298.759      -89.198        4.833      127.623      123.930       65.839    16287.728    15358.562     4334.836        6.660        1.799      311.790       66.128        0.045      347.751       26.944      858.913
07/07/2013  21:17:00     -330.292     -122.514      -10.822      140.214      101.335       57.654    19660.056    10268.820     3323.977        7.873        1.663      352.282       54.122        0.024      347.726       26.898      858.949
07/07/2013  21:18:00     -425.113     -127.511      -14.822      193.698      165.190       75.927    37518.907    27287.739     5764.877       13.387        3.529      443.824       84.475        0.036      347.799       27.025      858.934
07/07/2013  21:19:00     -364.409      -50.325      -11.291      119.122       95.344       63.255    14189.943     9090.425     4001.155        8.136        1.364      367.868       63.595        0.030      347.692       26.843      858.971
07/07/2013  21:20:00     -311.482      -30.230       -3.730      122.885       99.399       59.318    15100.706     9880.082     3518.580        6.322        1.425      312.946       60.736        0.038      347.661       26.788      858.982
07/07/2013  21:21:00     -249.466      -67.461        3.214      111.761       81.853       50.197    12490.519     6699.981     2519.715        4.425        1.086      258.426       55.182        0.046      347.645       26.762      859.006
07/07/2013  21:22:00     -293.565      -63.040      -17.314      129.652       83.521       57.654    16809.716     6975.809     3324.007        5.878        1.355      300.257       63.749        0.045      347.579       26.647      859.030
07/07/2013  21:23:00     -315.735      -36.717       -8.131      116.590       78.436       54.139    13593.134     6152.150     2930.992        6.189        1.134      317.863       55.757        0.031      347.553       26.604      859.056
07/07/2013  21:24:00     -286.476      -46.983      -18.546      126.800       94.240       52.886    16078.239     8881.196     2796.919        5.618        1.388      290.303       62.009        0.046      347.566       26.625      859.050
07/07/2013  21:25:00     -324.908      -66.018      -11.226      122.716      124.826       60.783    15059.273    15581.454     3694.585        7.219        1.717      331.548       53.395        0.026      347.605       26.692      859.041
07/07/2013  21:26:00     -295.272     -137.131       -6.536      108.520       86.939       58.859    11776.624     7558.381     3464.358        6.441        1.140      325.562       59.514        0.033      347.571       26.633      859.059
07/07/2013  21:27:00     -223.829      -95.076        2.981      130.449       93.698       54.991    17017.066     8779.367     3024.054        4.398        1.441      243.185       65.888        0.073      347.570       26.632      859.085
07/07/2013  21:28:00     -321.212      -74.685      -13.196      101.844      101.250       48.972    10372.129    10251.525     2398.294        6.597        1.151      329.780       45.193        0.019      347.615       26.709      859.095
07/07/2013  21:29:00     -322.851      -32.071       -8.424      120.035      106.489       66.924    14408.356    11339.982     4478.852        6.777        1.511      324.440       62.070        0.037      347.599       26.682      859.114
07/07/2013  21:30:00     -234.342      -96.963        6.067      105.204       97.230       59.901    11067.809     9453.653     3588.090        4.423        1.205      253.610       55.432        0.048      347.626       26.727      859.129
07/07/2013  21:31:00     -446.018      -58.824      -25.185      158.543      115.242       67.742    25135.982    13280.662     4588.981       12.301        2.150      449.880       72.071        0.026      347.676       26.815      859.149
07/07/2013  21:32:00     -466.334      -50.701      -22.260      146.716      121.471       74.842    21525.460    14755.265     5601.334       13.120        2.094      469.082       77.084        0.027      347.656       26.780      859.162
07/07/2013  21:33:00     -372.387      -97.779      -13.608      144.154      105.522       68.727    20780.392    11134.925     4723.392        9.252        1.832      385.010       74.501        0.037      347.668       26.801      859.165
07/07/2013  21:34:00     -335.993      -94.845       -4.077      125.170       79.590       57.406    15667.534     6334.643     3295.478        7.360        1.265      349.123       59.170        0.029      347.600       26.684      859.213
07/07/2013  21:35:00     -288.835      -22.664       -4.015      112.223       90.212       51.485    12594.004     8138.226     2650.686        5.366        1.169      289.723       54.062        0.035      347.554       26.605      859.249
07/07/2013  21:36:00     -282.374      -88.484       -7.989      109.110       93.215       53.928    11904.886     8689.115     2908.249        5.556        1.175      295.913       50.022        0.029      347.568       26.628      859.272
07/07/2013  21:37:00     -256.873       -6.724       -2.922      131.237      102.380       54.331    17223.216    10481.731     2951.850        4.834        1.533      256.961       62.685        0.060      347.551       26.598      859.289
07/07/2013  21:38:00     -217.430      -80.714       -0.999       82.677       63.199       37.573     6835.484     3994.096     1411.734        3.301        0.612      231.928       38.530        0.028      347.519       26.544      859.331
07/07/2013  21:39:00     -202.060      -46.260       -3.289       80.778       60.373       36.821     6525.118     3644.909     1355.807        2.725        0.576      207.288       38.975        0.035      347.499       26.509      859.361
07/07/2013  21:40:00     -216.144      -39.764       -4.959       94.640       59.178       40.084     8956.807     3502.092     1606.696        3.119        0.703      219.772       47.627        0.047      347.511       26.529      859.365
07/07/2013  21:41:00     -273.296      -75.043      -14.524       64.383       58.850       36.918     4145.206     3463.312     1362.909        4.475        0.449      283.411       33.366        0.014      347.516       26.536      859.381
07/07/2013  21:42:00     -207.996     -158.947        4.660      121.527      105.393       71.586    14768.746    11107.624     5124.509        4.977        1.550      261.776       69.026        0.070      347.503       26.515      859.379
07/07/2013  21:43:00     -213.151     -114.488       -4.173       87.242       85.136       43.983     7611.119     7248.108     1934.509        3.767        0.840      241.953       36.882        0.023      347.460       26.440      859.406
07/07/2013  21:44:00     -203.306      -96.177       -4.845       84.608       69.805       39.649     7158.442     4872.807     1572.031        3.210        0.680      224.907       42.424        0.036      347.433       26.396      859.427
07/07/2013  21:45:00     -272.147      -81.067       -1.322      121.505      112.198       66.949    14763.567    12588.282     4482.110        5.623        1.592      283.964       71.511        0.063      347.502       26.515      859.440
07/07/2013  21:46:00     -267.092      -97.966      -12.149      113.406       92.601       50.437    12860.974     8574.921     2543.871        5.253        1.199      284.492       48.573        0.029      347.498       26.508      859.463
07/07/2013  21:47:00     -150.323      -58.567        0.022       92.210       82.466       41.590     8502.745     6800.670     1729.741        2.153        0.852      161.329       46.901        0.085      347.450       26.427      859.459
07/07/2013  21:48:00     -131.390      -19.926        4.812      122.756       66.058       34.029    15068.991     4363.639     1157.978        1.913        1.030      132.892       53.553        0.162      347.368       26.285      859.483
07/07/2013  21:49:00     -228.631      -91.017       -1.119       65.510       60.807       44.239     4291.611     3697.499     1957.089        3.525        0.497      246.082       42.054        0.029      347.332       26.220      859.474
07/07/2013  21:50:00     -222.726      -85.389       -6.646       89.738       69.340       33.887     8052.998     4808.067     1148.295        3.547        0.700      238.533       27.052        0.013      347.338       26.232      859.493
07/07/2013  21:51:00     -277.563     -103.523       -5.062       76.823       66.425       37.814     5901.734     4412.227     1429.864        4.976        0.587      296.240       40.460        0.019      347.360       26.269      859.499
07/07/2013  21:52:00     -202.652      -80.949       -7.708      115.466       94.033       52.701    13332.437     8842.179     2777.444        3.631        1.248      218.222       53.103        0.059      347.339       26.234      859.514
07/07/2013  21:53:00     -278.114      -75.998       -0.576      131.894       84.819       54.893    17396.116     7194.192     3013.259        5.536        1.380      288.310       60.523        0.044      347.421       26.376      859.535
07/07/2013  21:54:00     -260.783      -55.767       -1.464      103.222       79.520       46.395    10654.699     6323.383     2152.483        4.512        0.957      266.679       43.877        0.027      347.451       26.426      859.547
07/07/2013  21:55:00     -174.928      -23.074       -5.728      108.988       59.636       36.809    11878.392     3556.510     1354.914        2.397        0.839      176.443       43.436        0.061      347.383       26.310      859.573
07/07/2013  21:56:00     -219.667      -48.202       -2.509       87.157       64.713       42.801     7596.277     4187.765     1831.931        3.210        0.681      224.893       40.335        0.032      347.379       26.302      859.598
07/07/2013  21:57:00     -236.078      -46.841      -16.501       58.038       44.300       37.744     3368.439     1962.498     1424.631        3.248        0.338      240.680       26.895        0.012      347.461       26.440      859.605
07/07/2013  21:58:00     -157.413      -10.798       -0.478       82.236       48.046       34.136     6762.830     2308.445     1165.289        1.756        0.512      157.783       39.586        0.063      347.326       26.213      859.629
07/07/2013  21:59:00     -325.773      -67.659      -13.333      101.500       88.084       40.030    10302.161     7758.845     1602.418        6.527        0.983      332.725       40.583        0.015      347.400       26.338      859.635
07/07/2013  22:00:00     -264.473      -90.144      -17.396       88.821       73.094       48.409     7889.155     5342.746     2343.460        4.697        0.779      279.414       48.555        0.030      347.337       26.230      859.635
07/07/2013  22:01:00     -233.433      -51.454       -1.696      125.937       78.237       51.129    15860.247     6121.042     2614.204        4.086        1.230      239.036       55.185        0.053      347.309       26.183      859.656
07/07/2013  22:02:00     -237.360      -34.437       -5.345      112.146       81.352       38.410    12576.765     6618.076     1475.337        3.911        1.034      239.845       40.956        0.029      347.298       26.163      859.667
07/07/2013  22:03:00     -210.229      -57.665       -9.728       75.807       45.685       30.723     5746.726     2087.100      943.918        2.820        0.439      217.994       27.158        0.016      347.282       26.134      859.656
07/07/2013  22:04:00     -218.097      -68.260       -9.426       62.405       56.468       29.937     3894.412     3188.621      896.246        3.015        0.399      228.530       26.190        0.013      347.218       26.022      859.660
07/07/2013  22:05:00     -216.616     -103.254      -10.282      126.870       88.331       44.257    16096.041     7802.332     1958.640        4.177        1.293      239.966       51.234        0.046      347.281       26.133      859.663
07/07/2013  22:06:00     -243.562      -80.391      -18.302      108.799       71.846       46.346    11837.206     5161.882     2147.950        4.263        0.957      256.487       51.093        0.040      347.257       26.093      859.669
07/07/2013  22:07:00     -234.370      -31.709      -16.018      103.336       58.418       36.031    10678.320     3412.710     1298.245        3.579        0.769      236.506       41.332        0.031      347.191       25.977      859.681
07/07/2013  22:08:00     -223.359      -86.530       -8.805      100.590       66.029       36.358    10118.404     4359.849     1321.892        3.662        0.790      239.534       42.008        0.031      347.182       25.963      859.674
07/07/2013  22:09:00     -180.624      -37.924       -6.261       71.458       88.638       51.015     5106.176     7856.766     2602.524        2.483        0.778      184.562       46.653        0.064      347.183       25.966      859.662
07/07/2013  22:10:00     -275.020     -108.632       -8.807       84.897      101.368       48.548     7207.582    10275.500     2356.951        5.367        0.992      295.697       41.265        0.019      347.216       26.020      859.666
07/07/2013  22:11:00     -297.932     -132.446      -12.039      132.851      100.124       58.553    17649.313    10024.886     3428.476        6.877        1.555      326.045       54.939        0.028      347.236       26.055      859.648
07/07/2013  22:12:00     -376.969      -88.592      -23.439       94.223       71.351       43.163     8877.901     5090.988     1863.029        8.316        0.792      387.239       36.141        0.009      347.254       26.087      859.647
07/07/2013  22:13:00     -347.598      -14.498      -24.151      132.477       86.596       55.760    17550.247     7498.897     3109.139        7.488        1.408      347.901       61.748        0.032      347.228       26.042      859.639
07/07/2013  22:14:00     -302.012      -89.355       -8.159       80.520       89.234       45.473     6483.513     7962.779     2067.750        5.788        0.826      314.953       36.355        0.013      347.197       25.988      859.626
07/07/2013  22:15:00     -286.622      -52.464        4.690      106.950       83.721       53.354    11438.257     7009.281     2846.656        5.311        1.065      291.384       54.407        0.035      347.205       26.001      859.626
07/07/2013  22:16:00     -231.762      -70.257       -7.445       71.290       66.234       39.980     5082.241     4386.897     1598.365        3.488        0.553      242.177       36.990        0.023      347.203       25.999      859.619
07/07/2013  22:17:00     -275.724        2.517      -19.342       86.565       84.535       54.014     7493.470     7146.104     2917.536        4.698        0.878      275.736       46.998        0.029      347.187       25.971      859.605
07/07/2013  22:18:00     -329.502      -68.478       -1.364      107.873       90.940       54.984    11636.588     8270.163     3023.194        6.809        1.146      336.542       52.937        0.025      347.134       25.879      859.582
07/07/2013  22:19:00     -383.967      -91.759      -10.369      140.119      104.977       55.206    19633.296    11020.205     3047.677        9.482        1.685      394.779       58.684        0.022      347.130       25.872      859.561
07/07/2013  22:20:00     -472.869     -115.865      -19.080      107.834      101.270       63.246    11628.193    10255.588     4000.095       13.163        1.294      486.857       53.915        0.012      347.279       26.129      859.568
07/07/2013  22:21:00     -272.134     -110.825        7.944      124.252      102.508       60.559    15438.502    10507.883     3667.395        5.800        1.481      293.835       66.608        0.051      347.178       25.955      859.572
07/07/2013  22:22:00     -239.164      -15.204        4.792      115.639       77.106       51.184    13372.481     5945.398     2619.799        3.969        1.097      239.647       56.612        0.056      347.140       25.891      859.575
07/07/2013  22:23:00     -325.431      -92.543      -23.762       91.238      100.639       50.922     8324.315    10128.161     2593.060        6.804        1.052      338.333       45.422        0.018      347.150       25.906      859.555
07/07/2013  22:24:00     -293.493      -99.063      -11.746      104.702       94.241       58.262    10962.444     8881.312     3394.484        5.966        1.162      309.760       60.009        0.038      347.092       25.808      859.536
07/07/2013  22:25:00     -368.261     -124.381      -16.498      119.116       88.560       61.399    14188.608     7842.901     3769.841        8.858        1.290      388.699       45.134        0.013      347.081       25.788      859.530
07/07/2013  22:26:00     -286.763      -76.798       -3.813      133.029      120.682       55.710    17696.802    14564.239     3103.564        6.175        1.768      296.868       62.482        0.044      347.022       25.686      859.497
07/07/2013  22:27:00     -315.104     -102.319       -6.810      151.080      101.128       58.089    22825.286    10226.923     3374.384        7.311        1.821      331.300       73.107        0.049      347.026       25.695      859.491
07/07/2013  22:28:00     -379.490     -118.830        2.068      130.407       97.574       59.873    17005.903     9520.667     3584.724        9.412        1.506      397.660       52.481        0.017      347.000       25.649      859.478
07/07/2013  22:29:00     -397.373      -47.090      -24.197      129.188      146.892       71.722    16689.637    21577.203     5144.077       10.205        2.171      400.153       61.981        0.024      347.005       25.660      859.469
07/07/2013  22:30:00     -266.861      -52.361       -4.292      161.909      112.137       64.649    26214.556    12574.778     4179.554        5.846        2.148      271.949       71.891        0.070      346.997       25.645      859.483
07/07/2013  22:31:00     -480.501      -25.516      -14.809      213.987      148.424       81.315    45790.290    22029.773     6612.178       15.308        3.722      481.178      100.684        0.044      347.135       25.881      859.468
07/07/2013  22:32:00     -565.927      -78.977      -19.852      175.168      126.257       82.559    30683.888    15940.841     6815.915       19.016        2.672      571.411       94.635        0.027      347.155       25.916      859.474
07/07/2013  22:33:00     -378.706     -146.002       -0.160      152.338      102.716       62.657    23206.771    10550.651     3925.896       10.120        1.884      405.875       68.730        0.029      347.059       25.749      859.496
07/07/2013  22:34:00     -443.383     -103.228      -23.876      166.574      136.447       74.519    27746.914    18617.878     5553.098       12.986        2.596      455.241       72.953        0.026      347.077       25.781      859.509
07/07/2013  22:35:00     -381.960      -34.906      -12.155      164.058      116.017       67.978    26915.043    13459.860     4621.064        9.612        2.250      383.551       79.646        0.043      347.075       25.778      859.515
07/07/2013  22:36:00     -373.901      -88.603      -27.649      109.026       98.772       58.681    11886.606     9756.003     3443.442        8.675        1.254      384.256       55.919        0.021      347.078       25.782      859.508
07/07/2013  22:37:00     -390.039     -154.033       -7.370      174.369      104.673       55.656    30404.634    10956.507     3097.611       11.018        2.223      419.352       60.533        0.021      347.024       25.691      859.495
07/07/2013  22:38:00     -297.126      -49.968        0.753      173.939      118.888       56.648    30254.732    14134.470     3208.994        6.918        2.380      301.298       69.660        0.053      346.972       25.600      859.476
07/07/2013  22:39:00     -304.273      -63.230      -24.821      118.657       89.975       53.610    14079.368     8095.428     2874.062        6.112        1.252      310.774       52.947        0.029      346.916       25.502      859.469
07/07/2013  22:40:00     -407.917      -45.232      -17.761      178.353      102.675       65.636    31809.616    10542.107     4308.068       10.770        2.333      410.417       61.365        0.022      346.992       25.636      859.482
07/07/2013  22:41:00     -287.825      -50.023      -14.401      150.070       92.239       54.578    22521.109     8508.011     2978.762        5.977        1.700      292.140       69.828        0.057      347.025       25.692      859.476
07/07/2013  22:42:00     -219.159      -68.587       -0.346      102.601       88.732       51.631    10526.888     7873.456     2665.737        3.690        1.053      229.641       51.166        0.050      346.954       25.569      859.483
07/07/2013  22:43:00     -319.102      -49.446      -13.163      145.632      112.041       64.120    21208.785    12553.178     4111.426        7.115        1.894      322.910       75.903        0.055      346.950       25.563      859.506
07/07/2013  22:44:00     -460.363       37.487      -27.847      134.745      124.669       67.412    18156.135    15542.420     4544.399       12.617        1.912      461.887       61.555        0.018      346.963       25.585      859.499
07/07/2013  22:45:00     -383.704      -38.643      -13.558      126.841       91.659       63.867    16088.714     8401.367     4079.021        8.873        1.428      385.645       65.905        0.029      346.875       25.432      859.502
07/07/2013  22:46:00     -361.884      -62.508      -18.797      163.444      116.791       71.658    26713.781    13640.217     5134.918        9.035        2.274      367.243       76.361        0.043      346.847       25.386      859.492
07/07/2013  22:47:00     -325.879      -15.131      -18.450      208.629      119.898       66.778    43526.006    14375.606     4459.364        8.455        3.118      326.230       97.968        0.090      346.929       25.529      859.487
07/07/2013  22:48:00     -387.082     -131.192      -11.892      176.355      154.734       70.502    31100.960    23942.695     4970.554       11.359        3.001      408.710       71.219        0.030      346.939       25.544      859.488
07/07/2013  22:49:00     -243.989      -88.153       -6.053      115.421      101.449       57.963    13321.915    10291.879     3359.732        4.715        1.349      259.426       57.369        0.049      346.854       25.399      859.503
07/07/2013  22:50:00     -387.476     -100.595      -25.824      123.009      121.337       65.370    15131.215    14722.571     4273.216        9.752        1.706      400.322       55.667        0.019      346.845       25.382      859.509
07/07/2013  22:51:00     -376.070      -68.369        4.010      179.450      120.561       73.975    32202.235    14535.041     5472.308        9.915        2.610      382.235       88.123        0.053      346.830       25.356      859.519
07/07/2013  22:52:00     -315.316      -95.498        0.851      164.150      132.169       67.261    26945.363    17468.647     4524.018        7.873        2.447      329.460       68.401        0.043      346.798       25.301      859.512
07/07/2013  22:53:00     -364.327       -2.944      -11.026      196.306      125.229       86.770    38535.923    15682.353     7529.093        9.729        3.087      364.339      105.069        0.083      346.811       25.325      859.497
07/07/2013  22:54:00     -430.004      -54.492       -9.871      218.443      118.290       66.618    47717.177    13992.511     4438.010       12.705        3.307      433.443       77.451        0.032      346.872       25.427      859.500
07/07/2013  22:55:00     -359.284     -101.519       -9.063      144.440      112.273       58.642    20862.809    12605.127     3438.827        8.818        1.845      373.351       62.737        0.028      346.790       25.287      859.495
07/07/2013  22:56:00     -350.949      -60.615      -12.531      161.072      142.274       71.885    25944.346    20242.030     5167.502        8.916        2.568      356.145       72.970        0.042      346.762       25.239      859.474
07/07/2013  22:57:00     -351.022      -74.395       -5.357      158.556      108.714       72.518    25140.099    11818.839     5258.923        8.549        2.111      358.819       78.802        0.048      346.756       25.230      859.497
07/07/2013  22:58:00     -342.554      -55.200      -11.411      165.824       97.171       62.230    27497.669     9442.207     3872.601        8.066        2.041      346.973       68.969        0.040      346.758       25.232      859.507
07/07/2013  22:59:00     -400.412      -26.939      -21.606      158.935      114.676       63.099    25260.246    13150.614     3981.500       10.195        2.120      401.317       67.328        0.028      346.753       25.223      859.501
07/07/2013  23:00:00     -343.557      -68.102      -17.926      150.561       96.375       64.786    22668.555     9288.212     4197.192        7.957        1.808      350.242       56.201        0.026      346.750       25.218      859.506
07/07/2013  23:01:00     -386.427      -41.598      -11.773      139.901      132.422       69.590    19572.384    17535.558     4842.736        9.656        2.098      388.659       55.246        0.020      346.758       25.232      859.513
07/07/2013  23:02:00     -353.643      -71.994       -5.371      127.798      105.339       60.040    16332.433    11096.401     3604.758        8.065        1.552      360.897       61.114        0.029      346.738       25.197      859.521
07/07/2013  23:03:00     -414.494      -90.952      -13.198      177.452       95.139       64.204    31489.275     9051.340     4122.189       11.245        2.233      424.355       71.905        0.029      346.814       25.328      859.527
07/07/2013  23:04:00     -354.787      -83.729       -5.113      161.525      119.467       68.172    26090.278    14272.255     4647.427        8.895        2.250      364.533       75.922        0.043      346.765       25.244      859.548
07/07/2013  23:05:00     -303.667      -79.765        1.278      146.092      121.444       63.891    21342.878    14748.752     4082.107        6.937        2.009      313.968       64.770        0.043      346.759       25.234      859.550
07/07/2013  23:06:00     -263.635      -63.130       -7.497      143.878      120.435       66.548    20700.921    14504.561     4428.584        5.658        1.982      271.088       71.673        0.070      346.711       25.151      859.565
07/07/2013  23:07:00     -422.468      -78.947      -13.985      168.808      123.255       75.414    28496.117    15191.755     5687.231       11.713        2.469      429.781       71.478        0.028      346.666       25.075      859.568
07/07/2013  23:08:00     -313.745      -93.547       -9.967      137.582      106.332       56.349    18928.809    11306.571     3175.262        7.034        1.671      327.394       57.662        0.031      346.710       25.151      859.555
07/07/2013  23:09:00     -419.519     -100.788      -14.025      156.994      145.154       78.170    24646.984    21069.612     6110.579       11.908        2.591      431.456       70.882        0.027      346.733       25.188      859.531
07/07/2013  23:10:00     -425.758      -71.800      -10.418      123.351      119.338       63.438    15215.375    14241.547     4024.427       11.000        1.674      431.769       53.480        0.015      346.694       25.122      859.550
07/07/2013  23:11:00     -359.764      -93.078      -17.537      131.445       97.086       49.573    17277.675     9425.781     2457.521        8.378        1.458      371.610       45.741        0.015      346.700       25.130      859.561
07/07/2013  23:12:00     -556.576      -40.005      -35.561      147.197      137.889       84.446    21667.079    19013.282     7131.167       18.022        2.391      558.012       81.340        0.021      346.736       25.193      859.562
07/07/2013  23:13:00     -395.140     -125.369       -1.546      169.922      150.952       88.305    28873.626    22786.514     7797.766       11.564        2.973      414.552       84.406        0.041      346.739       25.200      859.554
07/07/2013  23:14:00     -376.501      -44.444      -15.740      137.631      101.193       69.894    18942.298    10239.982     4885.170        8.901        1.703      379.115       73.197        0.037      346.721       25.167      859.586
07/07/2013  23:15:00     -401.121      -68.000      -25.275      154.503       87.526       53.662    23871.229     7660.732     2879.566       10.028        1.721      406.844       68.415        0.028      346.727       25.179      859.558
07/07/2013  23:16:00     -416.608     -154.977      -11.640      175.845      127.225       71.544    30921.472    16186.252     5118.550       12.496        2.611      444.500       77.750        0.031      346.658       25.061      859.562
07/07/2013  23:17:00     -345.652      -85.915       -8.002      188.257      130.746       81.761    35440.566    17094.577     6684.859        9.306        2.961      356.169       90.898        0.065      346.636       25.022      859.553
07/07/2013  23:18:00     -471.995     -129.626      -16.041      208.928      153.152       91.112    43650.727    23455.561     8301.358       15.761        3.770      489.472      109.557        0.050      346.646       25.040      859.564
07/07/2013  23:19:00     -348.977      -40.191      -10.158      159.770      138.392       62.415    25526.584    19152.373     3895.609        8.603        2.429      351.283       67.521        0.037      346.632       25.016      859.570
07/07/2013  23:20:00     -359.225      -93.913      -20.174      163.494      114.031       62.732    26730.317    13003.102     3935.286        9.096        2.183      371.298       69.291        0.035      346.627       25.007      859.544
07/07/2013  23:21:00     -354.645      -85.965      -21.750      189.986      142.257       72.518    36094.504    20237.187     5258.928        9.760        3.080      364.915       68.275        0.035      346.635       25.020      859.542
07/07/2013  23:22:00     -350.557      -94.251       -0.680      173.040      145.831       75.110    29942.946    21266.760     5641.532        9.430        2.843      363.006       78.573        0.047      346.607       24.973      859.545
07/07/2013  23:23:00     -431.499      -71.997       -9.516      162.458      120.034       73.456    26392.564    14408.227     5395.770       11.882        2.310      437.464       81.043        0.034      346.581       24.928      859.552
07/07/2013  23:24:00     -418.846      -55.889      -14.031      194.560      156.970       85.229    37853.719    24639.686     7264.007       12.424        3.488      422.558       93.961        0.049      346.602       24.964      859.552
07/07/2013  23:25:00     -432.249      -41.745      -27.162      149.356      131.389       72.943    22307.229    17263.095     5320.654       11.710        2.245      434.260       52.236        0.014      346.635       25.021      859.581
07/07/2013  23:26:00     -497.802      -71.244      -32.421      200.741      142.090       75.975    40297.027    20189.599     5772.141       16.008        3.313      502.874       91.844        0.033      346.621       24.997      859.587
07/07/2013  23:27:00     -433.087      -22.885      -18.484      140.095      114.878       74.536    19626.538    13196.968     5555.641       11.340        1.919      433.692       68.522        0.025      346.610       24.977      859.586
07/07/2013  23:28:00     -449.468      -74.498      -18.797      155.856      128.972       75.456    24291.027    16633.779     5693.651       12.726        2.331      455.600       77.974        0.029      346.575       24.919      859.575
07/07/2013  23:29:00     -226.034      -66.467        6.437      147.299      118.610       58.454    21696.996    14068.314     3416.817        4.736        1.959      235.604       59.821        0.064      346.555       24.884      859.575
07/07/2013  23:30:00     -293.992      -48.911       -2.388      176.291      123.891       79.992    31078.522    15348.989     6398.733        7.082        2.641      298.033       77.652        0.068      346.559       24.892      859.572
07/07/2013  23:31:00     -330.181      -78.786       -5.569      164.433      134.627       85.378    27038.246    18124.365     7289.469        8.384        2.623      339.450       82.150        0.059      346.561       24.895      859.601
07/07/2013  23:32:00     -343.504      -92.840      -18.690       93.471      137.229       59.943     8736.754    18831.827     3593.142        7.906        1.558      355.828       55.943        0.025      346.552       24.877      859.590
07/07/2013  23:33:00     -403.765      -12.383      -20.962      166.523      145.448       81.166    27730.008    21155.098     6587.873       10.953        2.774      403.954       78.694        0.038      346.558       24.888      859.607
07/07/2013  23:34:00     -327.300      -57.179       -5.002      142.220      129.059       59.825    20226.538    16656.331     3579.067        7.543        2.023      332.257       62.905        0.036      346.539       24.856      859.642
07/07/2013  23:35:00     -316.554     -129.214      -14.647       95.974       93.288       54.697     9210.946     8702.634     2991.742        6.901        1.045      341.910       43.768        0.016      346.584       24.933      859.659
07/07/2013  23:36:00     -352.423       83.373      -11.374      213.472      159.640       85.720    45570.343    25485.061     7347.993       10.483        3.920      362.150       82.880        0.052      346.589       24.942      859.664
07/07/2013  23:37:00     -318.475       -9.594       -9.783      143.133      124.265       71.230    20487.061    15441.732     5073.709        7.130        2.050      318.619       79.103        0.062      346.529       24.839      859.653
07/07/2013  23:38:00     -384.191     -134.919      -21.736      163.062      115.047       69.516    26589.316    13235.728     4832.506       10.546        2.233      407.193       68.304        0.028      346.567       24.904      859.671
07/07/2013  23:39:00     -344.710      -41.656      -25.542      182.143      111.454       72.714    33175.929    12422.054     5287.346        8.604        2.544      347.217       88.193        0.065      346.562       24.896      859.669
07/07/2013  23:40:00     -272.533      -94.302       -2.696      131.442      129.965       67.318    17277.036    16891.013     4531.763        6.093        1.935      288.387       72.997        0.064      346.512       24.810      859.654
07/07/2013  23:41:00     -288.826      -39.490       -0.327      153.160      113.463       66.053    23457.938    12873.880     4362.954        6.283        2.035      291.513       73.147        0.063      346.503       24.794      859.672
07/07/2013  23:42:00     -452.123      -38.615      -25.067      200.434       98.702       61.373    40173.878     9742.045     3766.610       13.010        2.684      453.769       74.772        0.027      346.548       24.872      859.689
07/07/2013  23:43:00     -394.437     -108.223       -3.663      201.296      115.589       67.960    40520.163    13360.815     4618.518       11.289        2.925      409.014       84.273        0.042      346.522       24.828      859.701
07/07/2013  23:44:00     -377.662      -47.441      -28.997      146.671       94.995       59.275    21512.324     9024.119     3513.583        8.988        1.703      380.630       67.211        0.031      346.526       24.833      859.683
07/07/2013  23:45:00     -324.766     -166.250        1.594      153.131      123.648       76.589    23449.201    15288.830     5865.948        8.885        2.230      364.845       84.374        0.053      346.514       24.813      859.689
07/07/2013  23:46:00     -439.884      -47.761      -19.212      163.483      142.276       75.949    26726.854    20242.377     5768.323       12.443        2.637      442.469       83.674        0.036      346.571       24.911      859.678
07/07/2013  23:47:00     -403.105      -92.715      -27.952      203.143      131.887       77.206    41267.154    17394.230     5960.838       11.823        3.231      413.630       82.876        0.040      346.561       24.893      859.680
07/07/2013  23:48:00     -376.043      -97.710       -4.683      144.007      104.135       68.899    20738.041    10844.102     4747.017        9.365        1.816      388.530       70.294        0.033      346.510       24.805      859.687
07/07/2013  23:49:00     -319.393      -56.409       -7.480      163.611      102.786       68.305    26768.535    10564.900     4665.560        7.362        2.100      324.336       76.503        0.056      346.484       24.763      859.706
07/07/2013  23:50:00     -404.637      -11.841      -32.141      167.512      130.998       70.907    28060.130    17160.404     5027.792       10.757        2.512      404.811       77.358        0.037      346.529       24.838      859.694
07/07/2013  23:51:00     -480.779     -130.182      -24.247      141.060      142.589       83.781    19897.816    20331.646     7019.177       14.796        2.362      498.092       85.451        0.029      346.508       24.803      859.713
07/07/2013  23:52:00     -519.141      -63.027      -38.586      234.117      142.873       75.692    54810.729    20412.623     5729.350       17.794        4.048      522.953       88.670        0.029      346.531       24.843      859.723
07/07/2013  23:53:00     -305.324      -79.864       -4.948      147.506      107.241       69.301    21758.011    11500.539     4802.631        6.884        1.903      315.596       67.248        0.045      346.443       24.691      859.738
07/07/2013  23:54:00     -348.922      -49.980      -12.521      165.708      131.921       59.956    27459.234    17403.273     3594.719        8.642        2.423      352.483       59.050        0.028      346.465       24.729      859.757
07/07/2013  23:55:00     -469.353      -73.555      -41.699      167.673      104.760       76.027    28114.312    10974.718     5780.058       13.615        2.243      475.082       85.650        0.033      346.513       24.813      859.763
07/07/2013  23:56:00     -288.856      -22.832       -4.364      137.450      112.059       69.018    18892.605    12557.254     4763.464        6.009        1.811      289.757       56.926        0.039      346.431       24.671      859.758
07/07/2013  23:57:00     -250.766      -27.725       -6.053      140.594      132.650       69.408    19766.691    17596.079     4817.523        5.293        2.109      252.294       58.763        0.054      346.438       24.682      859.744
07/07/2013  23:58:00     -344.035      -51.544       -4.954      163.148      134.230       64.706    26617.384    18017.651     4186.887        8.492        2.441      347.875       75.136        0.047      346.414       24.642      859.743
07/07/2013  23:59:00     -362.640      -20.281      -26.227      183.970      125.954       71.380    33844.827    15864.520     5095.122        9.369        2.740      363.207       73.642        0.041      346.429       24.667      859.762
